<?xml version='1.0' encoding='UTF-8'?><gpx version="1.1" creator="JPX - https://github.com/jenetics/jpx" xmlns="http://www.topografix.com/GPX/1/1"><trk><trkseg><trkpt lat="44.365885588170855" lon="10.83756060748525"><ele>718.0</ele><time>2026-04-19T13:05:39Z</time></trkpt><trkpt lat="44.36594616729711" lon="10.837418470635958"><ele>718.0</ele><time>2026-04-19T13:05:49Z</time></trkpt><trkpt lat="44.366020559148765" lon="10.83738282756057"><ele>718.0</ele><time>2026-04-19T13:05:50Z</time></trkpt><trkpt lat="44.366121469036486" lon="10.837342572319649"><ele>718.0</ele><time>2026-04-19T13:05:51Z</time></trkpt><trkpt lat="44.36625596826963" lon="10.837287987455328"><ele>718.0</ele><time>2026-04-19T13:05:52Z</time></trkpt><trkpt lat="44.36639033207126" lon="10.837245841322874"><ele>717.0</ele><time>2026-04-19T13:05:53Z</time></trkpt><trkpt lat="44.36647114061719" lon="10.837228513922083"><ele>716.0</ele><time>2026-04-19T13:05:54Z</time></trkpt><trkpt lat="44.3665611242616" lon="10.837220403970381"><ele>715.0</ele><time>2026-04-19T13:05:55Z</time></trkpt><trkpt lat="44.36665881067828" lon="10.837264848176485"><ele>714.0</ele><time>2026-04-19T13:05:57Z</time></trkpt><trkpt lat="44.36671262386869" lon="10.83749490923341"><ele>713.0</ele><time>2026-04-19T13:05:59Z</time></trkpt><trkpt lat="44.36677932553648" lon="10.83765377868418"><ele>712.8333333333333</ele><time>2026-04-19T13:06:00Z</time></trkpt><trkpt lat="44.3668251679075" lon="10.837803448742134"><ele>712.6666666666666</ele><time>2026-04-19T13:06:01Z</time></trkpt><trkpt lat="44.36685464092215" lon="10.837911229232606"><ele>712.5</ele><time>2026-04-19T13:06:02Z</time></trkpt><trkpt lat="44.366888082319015" lon="10.837997346622366"><ele>712.3333333333334</ele><time>2026-04-19T13:06:03Z</time></trkpt><trkpt lat="44.36690729412765" lon="10.838081258529057"><ele>712.1666666666667</ele><time>2026-04-19T13:06:06Z</time></trkpt><trkpt lat="44.36701675294358" lon="10.838060340604809"><ele>712.0</ele><time>2026-04-19T13:06:08Z</time></trkpt><trkpt lat="44.36707574064579" lon="10.838017199053331"><ele>712.0</ele><time>2026-04-19T13:06:09Z</time></trkpt><trkpt lat="44.367138186933694" lon="10.837971423548145"><ele>712.0</ele><time>2026-04-19T13:06:10Z</time></trkpt><trkpt lat="44.36721558685045" lon="10.8379400828159"><ele>712.0</ele><time>2026-04-19T13:06:11Z</time></trkpt><trkpt lat="44.36731480953552" lon="10.837895089833681"><ele>712.0</ele><time>2026-04-19T13:06:13Z</time></trkpt><trkpt lat="44.36738087320993" lon="10.838140295875089"><ele>712.0</ele><time>2026-04-19T13:06:16Z</time></trkpt><trkpt lat="44.3674329883172" lon="10.838265826012034"><ele>711.0</ele><time>2026-04-19T13:06:17Z</time></trkpt><trkpt lat="44.36748844270452" lon="10.838395755380262"><ele>710.0</ele><time>2026-04-19T13:06:18Z</time></trkpt><trkpt lat="44.367538697868355" lon="10.838505584966951"><ele>709.0</ele><time>2026-04-19T13:06:19Z</time></trkpt><trkpt lat="44.36759641521759" lon="10.838621940812892"><ele>708.0</ele><time>2026-04-19T13:06:20Z</time></trkpt><trkpt lat="44.367656254737355" lon="10.838721560193724"><ele>707.0</ele><time>2026-04-19T13:06:21Z</time></trkpt><trkpt lat="44.36772032600479" lon="10.838814008747276"><ele>705.5</ele><time>2026-04-19T13:06:22Z</time></trkpt><trkpt lat="44.367787706555006" lon="10.838885527642482"><ele>704.0</ele><time>2026-04-19T13:06:23Z</time></trkpt><trkpt lat="44.367847816567625" lon="10.838953874563595"><ele>702.5</ele><time>2026-04-19T13:06:24Z</time></trkpt><trkpt lat="44.367914897863535" lon="10.839008243245907"><ele>701.0</ele><time>2026-04-19T13:06:25Z</time></trkpt><trkpt lat="44.367990178356145" lon="10.839031204214344"><ele>699.5</ele><time>2026-04-19T13:06:26Z</time></trkpt><trkpt lat="44.36807354591993" lon="10.839041572943401"><ele>698.0</ele><time>2026-04-19T13:06:27Z</time></trkpt><trkpt lat="44.36818151335835" lon="10.839037414247528"><ele>698.0</ele><time>2026-04-19T13:06:28Z</time></trkpt><trkpt lat="44.36831806166474" lon="10.839058348662952"><ele>698.0</ele><time>2026-04-19T13:06:29Z</time></trkpt><trkpt lat="44.36842622164394" lon="10.839083219575222"><ele>698.0</ele><time>2026-04-19T13:06:30Z</time></trkpt><trkpt lat="44.36851487864777" lon="10.839105867590831"><ele>698.0</ele><time>2026-04-19T13:06:31Z</time></trkpt><trkpt lat="44.3685844409039" lon="10.839165585231633"><ele>698.0</ele><time>2026-04-19T13:06:32Z</time></trkpt><trkpt lat="44.36867061143991" lon="10.8392156230322"><ele>698.0</ele><time>2026-04-19T13:06:33Z</time></trkpt><trkpt lat="44.368750165554175" lon="10.839267905638616"><ele>698.0</ele><time>2026-04-19T13:06:34Z</time></trkpt><trkpt lat="44.36880734330765" lon="10.839321752448408"><ele>698.0</ele><time>2026-04-19T13:06:35Z</time></trkpt><trkpt lat="44.3688696256935" lon="10.839336904855877"><ele>698.0</ele><time>2026-04-19T13:06:35.999Z</time></trkpt><trkpt lat="44.36898669352106" lon="10.839314344780822"><ele>698.0</ele><time>2026-04-19T13:06:37.999Z</time></trkpt><trkpt lat="44.36904845484104" lon="10.839272779146121"><ele>698.0</ele><time>2026-04-19T13:06:38.999Z</time></trkpt><trkpt lat="44.369166357296834" lon="10.83923401686621"><ele>697.1666666666666</ele><time>2026-04-19T13:06:40.999Z</time></trkpt><trkpt lat="44.369229106237384" lon="10.83925051479322"><ele>696.3333333333333</ele><time>2026-04-19T13:06:41.999Z</time></trkpt><trkpt lat="44.369297390321606" lon="10.839234318084477"><ele>695.5</ele><time>2026-04-19T13:06:42.999Z</time></trkpt><trkpt lat="44.36936473805918" lon="10.839291495009864"><ele>694.6666666666666</ele><time>2026-04-19T13:06:43.999Z</time></trkpt><trkpt lat="44.369422298813866" lon="10.83935529351812"><ele>693.8333333333334</ele><time>2026-04-19T13:06:44.999Z</time></trkpt><trkpt lat="44.369492184041356" lon="10.839439807295918"><ele>693.0</ele><time>2026-04-19T13:06:45.999Z</time></trkpt><trkpt lat="44.36957015108642" lon="10.839551626592199"><ele>690.0</ele><time>2026-04-19T13:06:46.999Z</time></trkpt><trkpt lat="44.369640152196844" lon="10.839658404555607"><ele>687.0</ele><time>2026-04-19T13:06:47.999Z</time></trkpt><trkpt lat="44.369703920586716" lon="10.839759614501366"><ele>684.0</ele><time>2026-04-19T13:06:48.999Z</time></trkpt><trkpt lat="44.369763938707415" lon="10.83985592643233"><ele>681.0</ele><time>2026-04-19T13:06:49.999Z</time></trkpt><trkpt lat="44.36983281781052" lon="10.83993155367297"><ele>678.0</ele><time>2026-04-19T13:06:50.999Z</time></trkpt><trkpt lat="44.36988311562979" lon="10.840010661707899"><ele>677.75</ele><time>2026-04-19T13:06:51.999Z</time></trkpt><trkpt lat="44.36994661030332" lon="10.840118663765017"><ele>677.5</ele><time>2026-04-19T13:06:53.999Z</time></trkpt><trkpt lat="44.369999160290526" lon="10.840201877990399"><ele>677.25</ele><time>2026-04-19T13:06:55.999Z</time></trkpt><trkpt lat="44.369976543351946" lon="10.840470087438984"><ele>677.0</ele><time>2026-04-19T13:06:57.999Z</time></trkpt><trkpt lat="44.369967125028566" lon="10.84063555798473"><ele>674.6666666666666</ele><time>2026-04-19T13:06:59.999Z</time></trkpt><trkpt lat="44.369905087613986" lon="10.840758959071437"><ele>672.3333333333333</ele><time>2026-04-19T13:07:01.999Z</time></trkpt><trkpt lat="44.36988695787074" lon="10.840855772985169"><ele>670.0</ele><time>2026-04-19T13:07:03.999Z</time></trkpt><trkpt lat="44.36987945839931" lon="10.840968432736538"><ele>667.6666666666666</ele><time>2026-04-19T13:07:05.999Z</time></trkpt><trkpt lat="44.36986756977557" lon="10.841085785866257"><ele>665.3333333333334</ele><time>2026-04-19T13:07:07.999Z</time></trkpt><trkpt lat="44.36984547915769" lon="10.841199137862306"><ele>663.0</ele><time>2026-04-19T13:07:09.999Z</time></trkpt><trkpt lat="44.369809773619025" lon="10.841330310232978"><ele>660.5999999999999</ele><time>2026-04-19T13:07:11.999Z</time></trkpt><trkpt lat="44.369769183524944" lon="10.841466573166292"><ele>658.1999999999999</ele><time>2026-04-19T13:07:13.999Z</time></trkpt><trkpt lat="44.369731136121274" lon="10.841598785178661"><ele>655.8</ele><time>2026-04-19T13:07:15.999Z</time></trkpt><trkpt lat="44.369690922062055" lon="10.841747878333978"><ele>653.4</ele><time>2026-04-19T13:07:17.999Z</time></trkpt><trkpt lat="44.36964763876761" lon="10.841893151205584"><ele>651.0</ele><time>2026-04-19T13:07:20Z</time></trkpt><trkpt lat="44.3696058335264" lon="10.842032947461666"><ele>647.25</ele><time>2026-04-19T13:07:22Z</time></trkpt><trkpt lat="44.369559660212595" lon="10.842179857984126"><ele>643.5</ele><time>2026-04-19T13:07:24Z</time></trkpt><trkpt lat="44.36951673329613" lon="10.84232610859987"><ele>639.75</ele><time>2026-04-19T13:07:26Z</time></trkpt><trkpt lat="44.369483779671384" lon="10.842471067816993"><ele>636.0</ele><time>2026-04-19T13:07:28Z</time></trkpt><trkpt lat="44.36946971370166" lon="10.842641721024728"><ele>633.2</ele><time>2026-04-19T13:07:30Z</time></trkpt><trkpt lat="44.36944242138365" lon="10.842792352122341"><ele>630.4000000000001</ele><time>2026-04-19T13:07:32Z</time></trkpt><trkpt lat="44.36940752117871" lon="10.842919617765206"><ele>627.6</ele><time>2026-04-19T13:07:34Z</time></trkpt><trkpt lat="44.36939453010338" lon="10.84307006987702"><ele>624.8000000000001</ele><time>2026-04-19T13:07:36Z</time></trkpt><trkpt lat="44.3693876645707" lon="10.843203849119494"><ele>622.0</ele><time>2026-04-19T13:07:38Z</time></trkpt><trkpt lat="44.36938843127758" lon="10.843360766722741"><ele>618.0</ele><time>2026-04-19T13:07:40Z</time></trkpt><trkpt lat="44.36939508949854" lon="10.843546642085588"><ele>614.0</ele><time>2026-04-19T13:07:42Z</time></trkpt><trkpt lat="44.369382020688946" lon="10.843696231489282"><ele>610.0</ele><time>2026-04-19T13:07:44Z</time></trkpt><trkpt lat="44.36937211757214" lon="10.843852542247587"><ele>606.0</ele><time>2026-04-19T13:07:46Z</time></trkpt><trkpt lat="44.36935246085615" lon="10.843985494163446"><ele>606.0</ele><time>2026-04-19T13:07:48Z</time></trkpt><trkpt lat="44.36932495000558" lon="10.844087859293083"><ele>606.0</ele><time>2026-04-19T13:07:50Z</time></trkpt><trkpt lat="44.36929579801521" lon="10.844170871983719"><ele>606.0</ele><time>2026-04-19T13:07:51Z</time></trkpt><trkpt lat="44.369231894735265" lon="10.844273342896127"><ele>606.0</ele><time>2026-04-19T13:07:53Z</time></trkpt><trkpt lat="44.369185161848556" lon="10.844371956094323"><ele>606.0</ele><time>2026-04-19T13:07:55Z</time></trkpt><trkpt lat="44.36912056667989" lon="10.844523562752768"><ele>603.0</ele><time>2026-04-19T13:07:57Z</time></trkpt><trkpt lat="44.369088312077665" lon="10.844650820715998"><ele>600.0</ele><time>2026-04-19T13:07:59Z</time></trkpt><trkpt lat="44.36904463391269" lon="10.844775151843802"><ele>597.0</ele><time>2026-04-19T13:08:01Z</time></trkpt><trkpt lat="44.36903930042964" lon="10.844875784088424"><ele>594.0</ele><time>2026-04-19T13:08:03Z</time></trkpt><trkpt lat="44.368991527024505" lon="10.844972068490051"><ele>591.0</ele><time>2026-04-19T13:08:04.999Z</time></trkpt><trkpt lat="44.3689320727536" lon="10.845018336820385"><ele>588.0</ele><time>2026-04-19T13:08:06.999Z</time></trkpt><trkpt lat="44.368867584192046" lon="10.84509014082534"><ele>591.1999999999999</ele><time>2026-04-19T13:08:08.999Z</time></trkpt><trkpt lat="44.368814543335766" lon="10.845163850004687"><ele>594.4</ele><time>2026-04-19T13:08:10.999Z</time></trkpt><trkpt lat="44.36877046171778" lon="10.845237610148208"><ele>597.5999999999999</ele><time>2026-04-19T13:08:12.999Z</time></trkpt><trkpt lat="44.36873907028189" lon="10.845370490992764"><ele>600.8</ele><time>2026-04-19T13:08:14.999Z</time></trkpt><trkpt lat="44.36870673963796" lon="10.845554503886682"><ele>604.0</ele><time>2026-04-19T13:08:16.999Z</time></trkpt><trkpt lat="44.36868238960664" lon="10.845701163444676"><ele>604.0</ele><time>2026-04-19T13:08:18.999Z</time></trkpt><trkpt lat="44.36868516124885" lon="10.845861749137349"><ele>604.0</ele><time>2026-04-19T13:08:20.999Z</time></trkpt><trkpt lat="44.36874270765988" lon="10.845953298139316"><ele>604.0</ele><time>2026-04-19T13:08:22.999Z</time></trkpt><trkpt lat="44.36877449996372" lon="10.846041272953535"><ele>604.0</ele><time>2026-04-19T13:08:23.999Z</time></trkpt><trkpt lat="44.368795307992904" lon="10.846171023356039"><ele>604.0</ele><time>2026-04-19T13:08:25.999Z</time></trkpt><trkpt lat="44.368742541944684" lon="10.846279242924878"><ele>605.0</ele><time>2026-04-19T13:08:28.999Z</time></trkpt><trkpt lat="44.368666896782294" lon="10.846304203521123"><ele>606.0</ele><time>2026-04-19T13:08:30.999Z</time></trkpt><trkpt lat="44.368581456829084" lon="10.846316062330413"><ele>607.0</ele><time>2026-04-19T13:08:32.999Z</time></trkpt><trkpt lat="44.36848025616352" lon="10.84633728664487"><ele>608.0</ele><time>2026-04-19T13:08:34.999Z</time></trkpt><trkpt lat="44.36838461040062" lon="10.846356494109767"><ele>609.0</ele><time>2026-04-19T13:08:36.999Z</time></trkpt><trkpt lat="44.36826266531576" lon="10.846371203555641"><ele>609.0</ele><time>2026-04-19T13:08:38.999Z</time></trkpt><trkpt lat="44.36816863881812" lon="10.846391266436543"><ele>609.0</ele><time>2026-04-19T13:08:40.999Z</time></trkpt><trkpt lat="44.36810054224952" lon="10.846408016477175"><ele>609.0</ele><time>2026-04-19T13:08:41.999Z</time></trkpt><trkpt lat="44.36799868733153" lon="10.846407760873696"><ele>609.0</ele><time>2026-04-19T13:08:43.999Z</time></trkpt><trkpt lat="44.3678857904043" lon="10.846427323469083"><ele>609.0</ele><time>2026-04-19T13:08:45.999Z</time></trkpt><trkpt lat="44.3677769269023" lon="10.846437115546815"><ele>612.0</ele><time>2026-04-19T13:08:47.999Z</time></trkpt><trkpt lat="44.36770353977691" lon="10.846466949274683"><ele>615.0</ele><time>2026-04-19T13:08:50.999Z</time></trkpt><trkpt lat="44.36764627222528" lon="10.846509179120376"><ele>618.0</ele><time>2026-04-19T13:08:52.999Z</time></trkpt><trkpt lat="44.367589191770065" lon="10.846554758387477"><ele>621.0</ele><time>2026-04-19T13:08:54.999Z</time></trkpt><trkpt lat="44.367532013600965" lon="10.84659176901822"><ele>624.0</ele><time>2026-04-19T13:08:56.999Z</time></trkpt><trkpt lat="44.367472044286856" lon="10.846678724238702"><ele>627.0</ele><time>2026-04-19T13:08:58.999Z</time></trkpt><trkpt lat="44.367418651953315" lon="10.846792367517885"><ele>627.8000000000001</ele><time>2026-04-19T13:09:00.999Z</time></trkpt><trkpt lat="44.367422001012" lon="10.846920063842013"><ele>628.6</ele><time>2026-04-19T13:09:03.999Z</time></trkpt><trkpt lat="44.36740504260934" lon="10.847058502930997"><ele>629.4000000000001</ele><time>2026-04-19T13:09:05.999Z</time></trkpt><trkpt lat="44.367386523818354" lon="10.84720508532377"><ele>630.2</ele><time>2026-04-19T13:09:07.999Z</time></trkpt><trkpt lat="44.36736261616569" lon="10.847344308574346"><ele>631.0</ele><time>2026-04-19T13:09:09.999Z</time></trkpt><trkpt lat="44.36733712021399" lon="10.847468499673"><ele>631.0</ele><time>2026-04-19T13:09:11.999Z</time></trkpt><trkpt lat="44.367306254500946" lon="10.847566762357376"><ele>631.0</ele><time>2026-04-19T13:09:12.999Z</time></trkpt><trkpt lat="44.367259157110325" lon="10.84771783040637"><ele>631.0</ele><time>2026-04-19T13:09:13.999Z</time></trkpt><trkpt lat="44.36721692277665" lon="10.847820760844337"><ele>631.0</ele><time>2026-04-19T13:09:14.999Z</time></trkpt><trkpt lat="44.367184935405454" lon="10.847905100786763"><ele>631.0</ele><time>2026-04-19T13:09:15.999Z</time></trkpt><trkpt lat="44.36714164398615" lon="10.848073067907986"><ele>635.5</ele><time>2026-04-19T13:09:17.999Z</time></trkpt><trkpt lat="44.367132293001276" lon="10.848164605613304"><ele>640.0</ele><time>2026-04-19T13:09:18.999Z</time></trkpt><trkpt lat="44.367117469368466" lon="10.848318523051475"><ele>644.5</ele><time>2026-04-19T13:09:20.999Z</time></trkpt><trkpt lat="44.367058423942986" lon="10.848350043706906"><ele>649.0</ele><time>2026-04-19T13:09:23.999Z</time></trkpt><trkpt lat="44.366975598715584" lon="10.84830711579033"><ele>653.5</ele><time>2026-04-19T13:09:25.999Z</time></trkpt><trkpt lat="44.366898814319065" lon="10.848194032354144"><ele>658.0</ele><time>2026-04-19T13:09:27.999Z</time></trkpt><trkpt lat="44.36687504533134" lon="10.84800151299863"><ele>658.0</ele><time>2026-04-19T13:09:29.999Z</time></trkpt><trkpt lat="44.36685705942536" lon="10.847889005031956"><ele>658.0</ele><time>2026-04-19T13:09:30.999Z</time></trkpt><trkpt lat="44.36683314484989" lon="10.847772175679513"><ele>658.0</ele><time>2026-04-19T13:09:31.999Z</time></trkpt><trkpt lat="44.36680810894806" lon="10.84767280446828"><ele>658.0</ele><time>2026-04-19T13:09:32.999Z</time></trkpt><trkpt lat="44.366786340971814" lon="10.847538762443811"><ele>658.0</ele><time>2026-04-19T13:09:34.999Z</time></trkpt><trkpt lat="44.36673259709767" lon="10.84739707044797"><ele>658.2857142857143</ele><time>2026-04-19T13:09:37Z</time></trkpt><trkpt lat="44.366673263044675" lon="10.847344993532134"><ele>658.5714285714286</ele><time>2026-04-19T13:09:38Z</time></trkpt><trkpt lat="44.36661559699214" lon="10.847301101054779"><ele>658.8571428571429</ele><time>2026-04-19T13:09:39Z</time></trkpt><trkpt lat="44.36656377003309" lon="10.84724229535877"><ele>659.1428571428571</ele><time>2026-04-19T13:09:40Z</time></trkpt><trkpt lat="44.366520689049075" lon="10.847168504325227"><ele>659.4285714285714</ele><time>2026-04-19T13:09:41Z</time></trkpt><trkpt lat="44.366475711254544" lon="10.847083634822136"><ele>659.7142857142858</ele><time>2026-04-19T13:09:42Z</time></trkpt><trkpt lat="44.36641315842832" lon="10.846994351077193"><ele>660.0</ele><time>2026-04-19T13:09:43Z</time></trkpt><trkpt lat="44.36634031499115" lon="10.84690406991492"><ele>665.2</ele><time>2026-04-19T13:09:44Z</time></trkpt><trkpt lat="44.366264792347046" lon="10.846801122333867"><ele>670.4</ele><time>2026-04-19T13:09:45Z</time></trkpt><trkpt lat="44.366201974998575" lon="10.846691616479303"><ele>675.5999999999999</ele><time>2026-04-19T13:09:46Z</time></trkpt><trkpt lat="44.366146121392674" lon="10.846595621220878"><ele>680.8</ele><time>2026-04-19T13:09:47Z</time></trkpt><trkpt lat="44.36610097274712" lon="10.846507218235093"><ele>686.0</ele><time>2026-04-19T13:09:48Z</time></trkpt><trkpt lat="44.366067456515125" lon="10.846398991412388"><ele>686.0</ele><time>2026-04-19T13:09:49Z</time></trkpt><trkpt lat="44.366081725317386" lon="10.846266066010454"><ele>686.0</ele><time>2026-04-19T13:09:50Z</time></trkpt><trkpt lat="44.36609236398596" lon="10.84613056989911"><ele>686.0</ele><time>2026-04-19T13:09:51Z</time></trkpt><trkpt lat="44.36613714522917" lon="10.845984032795073"><ele>686.0</ele><time>2026-04-19T13:09:52Z</time></trkpt><trkpt lat="44.36619109373549" lon="10.845839452395328"><ele>686.0</ele><time>2026-04-19T13:09:53Z</time></trkpt><trkpt lat="44.366214713274175" lon="10.845719069899136"><ele>685.8333333333333</ele><time>2026-04-19T13:09:54Z</time></trkpt><trkpt lat="44.366215512970214" lon="10.845587404962759"><ele>685.6666666666666</ele><time>2026-04-19T13:09:55Z</time></trkpt><trkpt lat="44.366199750391885" lon="10.845475989965923"><ele>685.5</ele><time>2026-04-19T13:09:56Z</time></trkpt><trkpt lat="44.3661766583892" lon="10.84538814260478"><ele>685.3333333333334</ele><time>2026-04-19T13:09:57Z</time></trkpt><trkpt lat="44.36610869459245" lon="10.845292274050497"><ele>685.1666666666667</ele><time>2026-04-19T13:09:59Z</time></trkpt><trkpt lat="44.366021283991486" lon="10.845232471606186"><ele>685.0</ele><time>2026-04-19T13:10:01Z</time></trkpt><trkpt lat="44.365942128327546" lon="10.845170657335807"><ele>682.0</ele><time>2026-04-19T13:10:03Z</time></trkpt><trkpt lat="44.36582999538431" lon="10.845091963958568"><ele>679.0</ele><time>2026-04-19T13:10:05Z</time></trkpt><trkpt lat="44.365784658953096" lon="10.845018417196577"><ele>676.0</ele><time>2026-04-19T13:10:06Z</time></trkpt><trkpt lat="44.36571970523067" lon="10.844925496111948"><ele>673.0</ele><time>2026-04-19T13:10:07.999Z</time></trkpt><trkpt lat="44.36575624608773" lon="10.844759453622139"><ele>670.0</ele><time>2026-04-19T13:10:12.999Z</time></trkpt><trkpt lat="44.365796591420356" lon="10.8450678166832"><ele>672.5</ele><time>2026-04-19T13:10:13.999Z</time></trkpt><trkpt lat="44.36586212200591" lon="10.845140431637791"><ele>675.0</ele><time>2026-04-19T13:10:14.999Z</time></trkpt><trkpt lat="44.36594284575141" lon="10.845185157717864"><ele>677.5</ele><time>2026-04-19T13:10:15.999Z</time></trkpt><trkpt lat="44.366005754160234" lon="10.845227241858813"><ele>680.0</ele><time>2026-04-19T13:10:16.999Z</time></trkpt><trkpt lat="44.366063576910705" lon="10.845277761399064"><ele>682.5</ele><time>2026-04-19T13:10:17.999Z</time></trkpt><trkpt lat="44.36610977600519" lon="10.845349764445219"><ele>685.0</ele><time>2026-04-19T13:10:18.999Z</time></trkpt><trkpt lat="44.366170096101" lon="10.845446014128909"><ele>685.0</ele><time>2026-04-19T13:10:20.999Z</time></trkpt><trkpt lat="44.36618311688077" lon="10.845598305376585"><ele>685.0</ele><time>2026-04-19T13:10:23.999Z</time></trkpt><trkpt lat="44.36617704248627" lon="10.845695830226457"><ele>685.0</ele><time>2026-04-19T13:10:25.999Z</time></trkpt><trkpt lat="44.36615768946456" lon="10.845842410144689"><ele>685.0</ele><time>2026-04-19T13:10:27.999Z</time></trkpt><trkpt lat="44.36612956373293" lon="10.845927166768721"><ele>685.0</ele><time>2026-04-19T13:10:30.999Z</time></trkpt><trkpt lat="44.366175086498906" lon="10.845813329090593"><ele>685.0</ele><time>2026-04-19T13:10:38.999Z</time></trkpt><trkpt lat="44.36617574075353" lon="10.84570689806882"><ele>685.0</ele><time>2026-04-19T13:10:40.999Z</time></trkpt><trkpt lat="44.366181863459516" lon="10.845619202768406"><ele>685.0</ele><time>2026-04-19T13:10:42.999Z</time></trkpt><trkpt lat="44.366223980561756" lon="10.845515989740822"><ele>685.0</ele><time>2026-04-19T13:10:44.999Z</time></trkpt><trkpt lat="44.36616860825643" lon="10.84539656800652"><ele>685.0</ele><time>2026-04-19T13:10:46.999Z</time></trkpt><trkpt lat="44.366107091197435" lon="10.845324920511993"><ele>685.0</ele><time>2026-04-19T13:10:48.999Z</time></trkpt><trkpt lat="44.366045051659256" lon="10.845261979143325"><ele>685.0</ele><time>2026-04-19T13:10:50.999Z</time></trkpt><trkpt lat="44.36597737762482" lon="10.845205191919394"><ele>685.0</ele><time>2026-04-19T13:10:52.999Z</time></trkpt><trkpt lat="44.36591138944382" lon="10.845159795944822"><ele>685.0</ele><time>2026-04-19T13:10:54.999Z</time></trkpt><trkpt lat="44.365841335989025" lon="10.84510561463063"><ele>685.0</ele><time>2026-04-19T13:10:56.999Z</time></trkpt><trkpt lat="44.36577917854131" lon="10.845048953044738"><ele>685.0</ele><time>2026-04-19T13:10:58.999Z</time></trkpt><trkpt lat="44.36573179385137" lon="10.844987378700898"><ele>685.0</ele><time>2026-04-19T13:11:00.999Z</time></trkpt><trkpt lat="44.365658149569676" lon="10.844900629180408"><ele>685.0</ele><time>2026-04-19T13:11:03.999Z</time></trkpt><trkpt lat="44.36559885472717" lon="10.84483419353491"><ele>683.6</ele><time>2026-04-19T13:11:05.999Z</time></trkpt><trkpt lat="44.36550120353547" lon="10.844812368959603"><ele>682.2</ele><time>2026-04-19T13:11:07.999Z</time></trkpt><trkpt lat="44.365418149529" lon="10.844813252880869"><ele>680.8</ele><time>2026-04-19T13:11:25.999Z</time></trkpt><trkpt lat="44.365267480980826" lon="10.844813579289188"><ele>679.4</ele><time>2026-04-19T13:11:27.999Z</time></trkpt><trkpt lat="44.365174785945456" lon="10.844827267415445"><ele>678.0</ele><time>2026-04-19T13:11:28.999Z</time></trkpt><trkpt lat="44.36504354735084" lon="10.844846647206987"><ele>678.0</ele><time>2026-04-19T13:11:29.999Z</time></trkpt><trkpt lat="44.36490041363711" lon="10.84486783699884"><ele>678.0</ele><time>2026-04-19T13:11:31Z</time></trkpt><trkpt lat="44.36476855046225" lon="10.844898750635355"><ele>678.0</ele><time>2026-04-19T13:11:32Z</time></trkpt><trkpt lat="44.36465482402917" lon="10.844868621418453"><ele>678.0</ele><time>2026-04-19T13:11:33Z</time></trkpt><trkpt lat="44.36454252880743" lon="10.84481680900461"><ele>682.25</ele><time>2026-04-19T13:11:34Z</time></trkpt><trkpt lat="44.364438145918974" lon="10.844798898538565"><ele>686.5</ele><time>2026-04-19T13:11:35Z</time></trkpt><trkpt lat="44.36433015365733" lon="10.844743102534602"><ele>690.75</ele><time>2026-04-19T13:11:36Z</time></trkpt><trkpt lat="44.364191525294096" lon="10.844695660644298"><ele>695.0</ele><time>2026-04-19T13:11:37Z</time></trkpt><trkpt lat="44.36410809113052" lon="10.844589883919024"><ele>695.0</ele><time>2026-04-19T13:11:38Z</time></trkpt><trkpt lat="44.36405372665824" lon="10.844489281903886"><ele>695.0</ele><time>2026-04-19T13:11:39Z</time></trkpt><trkpt lat="44.36398354751934" lon="10.844412779648202"><ele>695.0</ele><time>2026-04-19T13:11:40Z</time></trkpt><trkpt lat="44.36390304259886" lon="10.84434886893771"><ele>695.0</ele><time>2026-04-19T13:11:41Z</time></trkpt><trkpt lat="44.36379016356848" lon="10.84431714836514"><ele>695.0</ele><time>2026-04-19T13:11:42Z</time></trkpt><trkpt lat="44.36369485570916" lon="10.844251227877846"><ele>693.6</ele><time>2026-04-19T13:11:43Z</time></trkpt><trkpt lat="44.36358615829857" lon="10.84424719314766"><ele>692.2</ele><time>2026-04-19T13:11:44Z</time></trkpt><trkpt lat="44.36348249602884" lon="10.844299912158702"><ele>690.8</ele><time>2026-04-19T13:11:45Z</time></trkpt><trkpt lat="44.3634086482874" lon="10.844339850274453"><ele>689.4</ele><time>2026-04-19T13:11:46Z</time></trkpt><trkpt lat="44.36330104923913" lon="10.844395273046072"><ele>688.0</ele><time>2026-04-19T13:11:48Z</time></trkpt><trkpt lat="44.36321429567786" lon="10.844382137428331"><ele>688.0</ele><time>2026-04-19T13:11:50Z</time></trkpt><trkpt lat="44.36314854122845" lon="10.84433620496744"><ele>688.0</ele><time>2026-04-19T13:11:52Z</time></trkpt><trkpt lat="44.36309933202119" lon="10.844269107641964"><ele>688.0</ele><time>2026-04-19T13:11:55Z</time></trkpt><trkpt lat="44.36306393324661" lon="10.844153258692028"><ele>688.0</ele><time>2026-04-19T13:12:09Z</time></trkpt><trkpt lat="44.36301433741635" lon="10.844089889931738"><ele>688.0</ele><time>2026-04-19T13:12:10Z</time></trkpt><trkpt lat="44.36297479086614" lon="10.84398979670966"><ele>688.0</ele><time>2026-04-19T13:12:11Z</time></trkpt><trkpt lat="44.362921147995635" lon="10.84387033944714"><ele>691.8</ele><time>2026-04-19T13:12:12Z</time></trkpt><trkpt lat="44.36287950288637" lon="10.843736173246567"><ele>695.5999999999999</ele><time>2026-04-19T13:12:13Z</time></trkpt><trkpt lat="44.36280336645184" lon="10.843620467670403"><ele>699.4000000000001</ele><time>2026-04-19T13:12:14Z</time></trkpt><trkpt lat="44.36269580111389" lon="10.843568462554014"><ele>703.2</ele><time>2026-04-19T13:12:15Z</time></trkpt><trkpt lat="44.36259258765407" lon="10.843500865597841"><ele>707.0</ele><time>2026-04-19T13:12:16Z</time></trkpt><trkpt lat="44.36251456139435" lon="10.843421445156515"><ele>707.0</ele><time>2026-04-19T13:12:17Z</time></trkpt><trkpt lat="44.36245353382166" lon="10.843346882655638"><ele>707.0</ele><time>2026-04-19T13:12:18Z</time></trkpt><trkpt lat="44.36240422293734" lon="10.84326115260082"><ele>707.0</ele><time>2026-04-19T13:12:19Z</time></trkpt><trkpt lat="44.36237695456141" lon="10.843157037994485"><ele>707.0</ele><time>2026-04-19T13:12:20Z</time></trkpt><trkpt lat="44.36235430842733" lon="10.843056524419636"><ele>707.0</ele><time>2026-04-19T13:12:21Z</time></trkpt><trkpt lat="44.36239935196425" lon="10.842951776071253"><ele>707.0</ele><time>2026-04-19T13:12:22Z</time></trkpt><trkpt lat="44.36245464911686" lon="10.842881220652789"><ele>707.0</ele><time>2026-04-19T13:12:23Z</time></trkpt><trkpt lat="44.362527571501616" lon="10.84283601818965"><ele>707.0</ele><time>2026-04-19T13:12:24Z</time></trkpt><trkpt lat="44.362616285852795" lon="10.842735685903925"><ele>707.0</ele><time>2026-04-19T13:12:25Z</time></trkpt><trkpt lat="44.362721321851154" lon="10.842680427966373"><ele>707.0</ele><time>2026-04-19T13:12:26Z</time></trkpt><trkpt lat="44.36281981004996" lon="10.842583019510666"><ele>707.0</ele><time>2026-04-19T13:12:27Z</time></trkpt><trkpt lat="44.362943589742606" lon="10.842550771885096"><ele>705.6</ele><time>2026-04-19T13:12:28Z</time></trkpt><trkpt lat="44.36302865246182" lon="10.842591564332311"><ele>704.2</ele><time>2026-04-19T13:12:29Z</time></trkpt><trkpt lat="44.36310818265363" lon="10.842623814319722"><ele>702.8</ele><time>2026-04-19T13:12:30Z</time></trkpt><trkpt lat="44.36320632516507" lon="10.842644311032267"><ele>701.4</ele><time>2026-04-19T13:12:31Z</time></trkpt><trkpt lat="44.363282353411016" lon="10.842640270330008"><ele>700.0</ele><time>2026-04-19T13:12:32Z</time></trkpt><trkpt lat="44.36328792729674" lon="10.84244442153888"><ele>700.0</ele><time>2026-04-19T13:12:35Z</time></trkpt><trkpt lat="44.36319572020795" lon="10.842403414186016"><ele>700.0</ele><time>2026-04-19T13:12:36Z</time></trkpt><trkpt lat="44.363121385259106" lon="10.842363959985253"><ele>700.0</ele><time>2026-04-19T13:12:37Z</time></trkpt><trkpt lat="44.36305185734364" lon="10.842298117415602"><ele>700.0</ele><time>2026-04-19T13:12:38Z</time></trkpt><trkpt lat="44.36297444600029" lon="10.842248719211321"><ele>700.0</ele><time>2026-04-19T13:12:38.999Z</time></trkpt><trkpt lat="44.3628757069877" lon="10.842199232834611"><ele>704.0</ele><time>2026-04-19T13:12:39.999Z</time></trkpt><trkpt lat="44.36276166896473" lon="10.842136530468272"><ele>708.0</ele><time>2026-04-19T13:12:40.999Z</time></trkpt><trkpt lat="44.36264336338237" lon="10.84203889089829"><ele>712.0</ele><time>2026-04-19T13:12:41.999Z</time></trkpt><trkpt lat="44.36253217343908" lon="10.841963455847377"><ele>716.0</ele><time>2026-04-19T13:12:42.999Z</time></trkpt><trkpt lat="44.362425972495025" lon="10.841907913836792"><ele>716.0</ele><time>2026-04-19T13:12:43.999Z</time></trkpt><trkpt lat="44.36232564453904" lon="10.841816769051333"><ele>716.0</ele><time>2026-04-19T13:12:44.999Z</time></trkpt><trkpt lat="44.362233889529854" lon="10.841728098238686"><ele>716.0</ele><time>2026-04-19T13:12:45.999Z</time></trkpt><trkpt lat="44.362158142534334" lon="10.84164908419716"><ele>716.0</ele><time>2026-04-19T13:12:46.999Z</time></trkpt><trkpt lat="44.3620882283416" lon="10.841576824475812"><ele>716.0</ele><time>2026-04-19T13:12:47.999Z</time></trkpt><trkpt lat="44.36202734688515" lon="10.841507491276413"><ele>719.1999999999999</ele><time>2026-04-19T13:12:48.999Z</time></trkpt><trkpt lat="44.361959332277344" lon="10.841466146918494"><ele>722.4</ele><time>2026-04-19T13:12:49.999Z</time></trkpt><trkpt lat="44.361888610859694" lon="10.841398864863594"><ele>725.6</ele><time>2026-04-19T13:12:51.999Z</time></trkpt><trkpt lat="44.361832386838245" lon="10.841354704737869"><ele>728.8</ele><time>2026-04-19T13:12:54.999Z</time></trkpt><trkpt lat="44.3616981765071" lon="10.84148412812208"><ele>732.0</ele><time>2026-04-19T13:13:27.999Z</time></trkpt><trkpt lat="44.36168885783193" lon="10.841611513049813"><ele>732.0</ele><time>2026-04-19T13:13:28.999Z</time></trkpt><trkpt lat="44.36164119654879" lon="10.841672027096948"><ele>732.0</ele><time>2026-04-19T13:13:29.999Z</time></trkpt><trkpt lat="44.36157909559719" lon="10.841719357583466"><ele>732.0</ele><time>2026-04-19T13:13:30.999Z</time></trkpt><trkpt lat="44.361483190131096" lon="10.841770612599433"><ele>732.0</ele><time>2026-04-19T13:13:32.999Z</time></trkpt><trkpt lat="44.36139848652734" lon="10.841819387520522"><ele>732.0</ele><time>2026-04-19T13:13:34.999Z</time></trkpt><trkpt lat="44.361329826037085" lon="10.841819993473424"><ele>732.0</ele><time>2026-04-19T13:13:35.999Z</time></trkpt><trkpt lat="44.36125989976201" lon="10.841848072278022"><ele>734.1666666666666</ele><time>2026-04-19T13:13:37Z</time></trkpt><trkpt lat="44.36118448193211" lon="10.84187159049988"><ele>736.3333333333334</ele><time>2026-04-19T13:13:38Z</time></trkpt><trkpt lat="44.36110677135786" lon="10.841915562670883"><ele>738.5</ele><time>2026-04-19T13:13:39Z</time></trkpt><trkpt lat="44.361024815087156" lon="10.841931089293958"><ele>740.6666666666667</ele><time>2026-04-19T13:13:40Z</time></trkpt><trkpt lat="44.360947547735705" lon="10.841962760314964"><ele>742.8333333333334</ele><time>2026-04-19T13:13:41Z</time></trkpt><trkpt lat="44.36087505603078" lon="10.841986215352273"><ele>745.0</ele><time>2026-04-19T13:13:42Z</time></trkpt><trkpt lat="44.36082006446667" lon="10.842065600794763"><ele>745.0</ele><time>2026-04-19T13:13:43Z</time></trkpt><trkpt lat="44.36078352353875" lon="10.842143241038015"><ele>745.0</ele><time>2026-04-19T13:13:44Z</time></trkpt><trkpt lat="44.360766097441314" lon="10.842236636712963"><ele>745.0</ele><time>2026-04-19T13:13:45Z</time></trkpt><trkpt lat="44.3607499635056" lon="10.842324926668798"><ele>745.0</ele><time>2026-04-19T13:13:46Z</time></trkpt><trkpt lat="44.36072622745702" lon="10.84241909581618"><ele>745.0</ele><time>2026-04-19T13:13:47Z</time></trkpt><trkpt lat="44.360721150534424" lon="10.842550714119158"><ele>745.0</ele><time>2026-04-19T13:13:48Z</time></trkpt><trkpt lat="44.36070668612492" lon="10.8426494304828"><ele>745.0</ele><time>2026-04-19T13:13:49Z</time></trkpt><trkpt lat="44.36069976058791" lon="10.842757282144191"><ele>747.6</ele><time>2026-04-19T13:13:50Z</time></trkpt><trkpt lat="44.36068544541168" lon="10.842899497492946"><ele>750.2</ele><time>2026-04-19T13:13:51Z</time></trkpt><trkpt lat="44.36066246695884" lon="10.843050408267047"><ele>752.8</ele><time>2026-04-19T13:13:52Z</time></trkpt><trkpt lat="44.36063969664875" lon="10.843213386695858"><ele>755.4</ele><time>2026-04-19T13:13:53Z</time></trkpt><trkpt lat="44.360623385422286" lon="10.843347324089654"><ele>758.0</ele><time>2026-04-19T13:13:54Z</time></trkpt><trkpt lat="44.360610100926685" lon="10.843456793311795"><ele>758.8</ele><time>2026-04-19T13:13:55Z</time></trkpt><trkpt lat="44.36060073284579" lon="10.843599897956741"><ele>759.5999999999999</ele><time>2026-04-19T13:13:56Z</time></trkpt><trkpt lat="44.36058903364241" lon="10.843748975713494"><ele>760.4000000000001</ele><time>2026-04-19T13:13:57Z</time></trkpt><trkpt lat="44.36057806857626" lon="10.843892920718854"><ele>761.2</ele><time>2026-04-19T13:13:58Z</time></trkpt><trkpt lat="44.36056348024844" lon="10.844016810404492"><ele>762.0</ele><time>2026-04-19T13:13:59Z</time></trkpt><trkpt lat="44.36054769254038" lon="10.844144530962932"><ele>762.0</ele><time>2026-04-19T13:14:00Z</time></trkpt><trkpt lat="44.36054830393677" lon="10.844280291648493"><ele>762.0</ele><time>2026-04-19T13:14:01Z</time></trkpt><trkpt lat="44.36054902977696" lon="10.844427478633555"><ele>762.0</ele><time>2026-04-19T13:14:02Z</time></trkpt><trkpt lat="44.36057030851233" lon="10.84457173847961"><ele>762.0</ele><time>2026-04-19T13:14:03Z</time></trkpt><trkpt lat="44.360586882576236" lon="10.844668451548944"><ele>762.0</ele><time>2026-04-19T13:14:04Z</time></trkpt><trkpt lat="44.36059503760429" lon="10.844760223625816"><ele>762.0</ele><time>2026-04-19T13:14:05Z</time></trkpt><trkpt lat="44.36060879950057" lon="10.844876607111894"><ele>762.1666666666666</ele><time>2026-04-19T13:14:06Z</time></trkpt><trkpt lat="44.360550050594064" lon="10.844979040423416"><ele>762.3333333333334</ele><time>2026-04-19T13:14:07Z</time></trkpt><trkpt lat="44.36050240344377" lon="10.845097090915296"><ele>762.5</ele><time>2026-04-19T13:14:08Z</time></trkpt><trkpt lat="44.360455799539395" lon="10.8452021448502"><ele>762.6666666666667</ele><time>2026-04-19T13:14:09Z</time></trkpt><trkpt lat="44.360416904342614" lon="10.845292560425996"><ele>762.8333333333334</ele><time>2026-04-19T13:14:10Z</time></trkpt><trkpt lat="44.3603723072005" lon="10.845386105892324"><ele>763.0</ele><time>2026-04-19T13:14:11Z</time></trkpt><trkpt lat="44.36032262498097" lon="10.845460333989795"><ele>763.0</ele><time>2026-04-19T13:14:12Z</time></trkpt><trkpt lat="44.36026457902472" lon="10.845525701824636"><ele>763.0</ele><time>2026-04-19T13:14:13Z</time></trkpt><trkpt lat="44.360198232335684" lon="10.845571356458404"><ele>763.0</ele><time>2026-04-19T13:14:14Z</time></trkpt><trkpt lat="44.36010693245467" lon="10.845633319891087"><ele>763.0</ele><time>2026-04-19T13:14:15Z</time></trkpt><trkpt lat="44.36000302684014" lon="10.845705150180187"><ele>763.0</ele><time>2026-04-19T13:14:16Z</time></trkpt><trkpt lat="44.35990294222673" lon="10.845785965903525"><ele>763.0</ele><time>2026-04-19T13:14:17Z</time></trkpt><trkpt lat="44.359819147408174" lon="10.84586245005207"><ele>763.0</ele><time>2026-04-19T13:14:18Z</time></trkpt><trkpt lat="44.359726547900955" lon="10.845944149334704"><ele>763.0</ele><time>2026-04-19T13:14:19Z</time></trkpt><trkpt lat="44.3596090301084" lon="10.846031715609472"><ele>763.0</ele><time>2026-04-19T13:14:20Z</time></trkpt><trkpt lat="44.359508038470935" lon="10.846094347643715"><ele>762.4</ele><time>2026-04-19T13:14:21Z</time></trkpt><trkpt lat="44.359418359620506" lon="10.846151128465532"><ele>761.8</ele><time>2026-04-19T13:14:22Z</time></trkpt><trkpt lat="44.35933409976438" lon="10.84620713186378"><ele>761.2</ele><time>2026-04-19T13:14:23Z</time></trkpt><trkpt lat="44.359259266936895" lon="10.846288493669007"><ele>760.6</ele><time>2026-04-19T13:14:24Z</time></trkpt><trkpt lat="44.359177716080964" lon="10.846340155379854"><ele>760.0</ele><time>2026-04-19T13:14:25Z</time></trkpt><trkpt lat="44.35910497700247" lon="10.8464089757975"><ele>760.0</ele><time>2026-04-19T13:14:26Z</time></trkpt><trkpt lat="44.359038810307275" lon="10.846487917524996"><ele>760.0</ele><time>2026-04-19T13:14:27Z</time></trkpt><trkpt lat="44.35897880712291" lon="10.846567682082014"><ele>760.0</ele><time>2026-04-19T13:14:28Z</time></trkpt><trkpt lat="44.35892310571581" lon="10.846638164748722"><ele>760.0</ele><time>2026-04-19T13:14:29Z</time></trkpt><trkpt lat="44.35885696873296" lon="10.846698932085953"><ele>760.0</ele><time>2026-04-19T13:14:30Z</time></trkpt><trkpt lat="44.35875069835669" lon="10.846767845250165"><ele>760.0</ele><time>2026-04-19T13:14:32Z</time></trkpt><trkpt lat="44.35860802535873" lon="10.846758737006793"><ele>759.5</ele><time>2026-04-19T13:14:34Z</time></trkpt><trkpt lat="44.358494758871295" lon="10.846745613403671"><ele>759.0</ele><time>2026-04-19T13:14:35Z</time></trkpt><trkpt lat="44.35835813819661" lon="10.846733604638281"><ele>758.5</ele><time>2026-04-19T13:14:36Z</time></trkpt><trkpt lat="44.35820160548953" lon="10.846722284783159"><ele>758.0</ele><time>2026-04-19T13:14:37Z</time></trkpt><trkpt lat="44.358098486512525" lon="10.846718836824284"><ele>758.3333333333333</ele><time>2026-04-19T13:14:38Z</time></trkpt><trkpt lat="44.35802083000388" lon="10.846733342975611"><ele>758.6666666666666</ele><time>2026-04-19T13:14:39Z</time></trkpt><trkpt lat="44.357947939188186" lon="10.84672945841154"><ele>759.0</ele><time>2026-04-19T13:14:40Z</time></trkpt><trkpt lat="44.35787437339117" lon="10.846741485607808"><ele>759.3333333333334</ele><time>2026-04-19T13:14:41Z</time></trkpt><trkpt lat="44.357793068380296" lon="10.846754802802298"><ele>759.6666666666667</ele><time>2026-04-19T13:14:42Z</time></trkpt><trkpt lat="44.357696315936906" lon="10.846776368057247"><ele>760.0</ele><time>2026-04-19T13:14:43Z</time></trkpt><trkpt lat="44.35758389076305" lon="10.846798259608233"><ele>761.0</ele><time>2026-04-19T13:14:44Z</time></trkpt><trkpt lat="44.357493228033164" lon="10.846823143247853"><ele>762.0</ele><time>2026-04-19T13:14:45Z</time></trkpt><trkpt lat="44.35740251069744" lon="10.84685840718717"><ele>763.0</ele><time>2026-04-19T13:14:46Z</time></trkpt><trkpt lat="44.3573165457707" lon="10.846906622723127"><ele>764.0</ele><time>2026-04-19T13:14:47Z</time></trkpt><trkpt lat="44.357237567992605" lon="10.846968255171344"><ele>765.0</ele><time>2026-04-19T13:14:48Z</time></trkpt><trkpt lat="44.35715597836791" lon="10.847037513864402"><ele>765.0</ele><time>2026-04-19T13:14:49Z</time></trkpt><trkpt lat="44.35705039878945" lon="10.84712212656193"><ele>765.0</ele><time>2026-04-19T13:14:50Z</time></trkpt><trkpt lat="44.35695983760595" lon="10.847142306639117"><ele>765.0</ele><time>2026-04-19T13:14:51Z</time></trkpt><trkpt lat="44.35688549808159" lon="10.847150037755313"><ele>765.0</ele><time>2026-04-19T13:14:52Z</time></trkpt><trkpt lat="44.356782347114404" lon="10.847148297133678"><ele>765.0</ele><time>2026-04-19T13:14:53Z</time></trkpt><trkpt lat="44.356678903794595" lon="10.847146422671491"><ele>765.0</ele><time>2026-04-19T13:14:54Z</time></trkpt><trkpt lat="44.356582402522584" lon="10.847139585131316"><ele>765.0</ele><time>2026-04-19T13:14:55Z</time></trkpt><trkpt lat="44.356492674215865" lon="10.847131579495015"><ele>765.0</ele><time>2026-04-19T13:14:56Z</time></trkpt><trkpt lat="44.35641822992039" lon="10.847125331035404"><ele>765.0</ele><time>2026-04-19T13:14:57Z</time></trkpt><trkpt lat="44.35633208851656" lon="10.847122610239905"><ele>765.0</ele><time>2026-04-19T13:14:58Z</time></trkpt><trkpt lat="44.35624918397754" lon="10.847120089556537"><ele>765.0</ele><time>2026-04-19T13:14:59Z</time></trkpt><trkpt lat="44.356169526718595" lon="10.847118753986296"><ele>766.2</ele><time>2026-04-19T13:15:00Z</time></trkpt><trkpt lat="44.356070055079805" lon="10.847124482249264"><ele>767.4</ele><time>2026-04-19T13:15:01Z</time></trkpt><trkpt lat="44.35597233791849" lon="10.847136214784463"><ele>768.5999999999999</ele><time>2026-04-19T13:15:02Z</time></trkpt><trkpt lat="44.355881523097416" lon="10.847150605711862"><ele>769.8</ele><time>2026-04-19T13:15:03Z</time></trkpt><trkpt lat="44.35578619660581" lon="10.84716891520207"><ele>771.0</ele><time>2026-04-19T13:15:03.999Z</time></trkpt><trkpt lat="44.355695597373085" lon="10.847211192624084"><ele>771.0</ele><time>2026-04-19T13:15:04.999Z</time></trkpt><trkpt lat="44.355616645151265" lon="10.847207925982035"><ele>771.0</ele><time>2026-04-19T13:15:05.999Z</time></trkpt><trkpt lat="44.35552542585736" lon="10.847234847765272"><ele>771.0</ele><time>2026-04-19T13:15:06.999Z</time></trkpt><trkpt lat="44.35541016094611" lon="10.847273335059667"><ele>771.0</ele><time>2026-04-19T13:15:07.999Z</time></trkpt><trkpt lat="44.35530798067158" lon="10.847307937274513"><ele>771.0</ele><time>2026-04-19T13:15:08.999Z</time></trkpt><trkpt lat="44.35521013175213" lon="10.847338691876052"><ele>770.3333333333334</ele><time>2026-04-19T13:15:09.999Z</time></trkpt><trkpt lat="44.355125569449584" lon="10.847359093893688"><ele>769.6666666666666</ele><time>2026-04-19T13:15:10.999Z</time></trkpt><trkpt lat="44.35503465015224" lon="10.847378873379688"><ele>769.0</ele><time>2026-04-19T13:15:11.999Z</time></trkpt><trkpt lat="44.35495658563461" lon="10.847429779583459"><ele>768.3333333333333</ele><time>2026-04-19T13:15:12.999Z</time></trkpt><trkpt lat="44.35489055127505" lon="10.847468347172146"><ele>767.6666666666666</ele><time>2026-04-19T13:15:13.999Z</time></trkpt><trkpt lat="44.354807719675186" lon="10.84749638985663"><ele>767.0</ele><time>2026-04-19T13:15:14.999Z</time></trkpt><trkpt lat="44.35472286841081" lon="10.84755000803199"><ele>767.8333333333333</ele><time>2026-04-19T13:15:15.999Z</time></trkpt><trkpt lat="44.35464258698007" lon="10.847614768040662"><ele>768.6666666666666</ele><time>2026-04-19T13:15:16.999Z</time></trkpt><trkpt lat="44.35455969992576" lon="10.847666214376776"><ele>769.5</ele><time>2026-04-19T13:15:17.999Z</time></trkpt><trkpt lat="44.354482492309955" lon="10.847713580487829"><ele>770.3333333333333</ele><time>2026-04-19T13:15:18.999Z</time></trkpt><trkpt lat="44.354409469038984" lon="10.84776209786767"><ele>771.1666666666666</ele><time>2026-04-19T13:15:19.999Z</time></trkpt><trkpt lat="44.35432910230928" lon="10.84779119462852"><ele>772.0</ele><time>2026-04-19T13:15:20.999Z</time></trkpt><trkpt lat="44.35424353457148" lon="10.847840777633795"><ele>773.0</ele><time>2026-04-19T13:15:21.999Z</time></trkpt><trkpt lat="44.35416821481833" lon="10.847864914875396"><ele>774.0</ele><time>2026-04-19T13:15:22.999Z</time></trkpt><trkpt lat="44.35410365292584" lon="10.847868590640449"><ele>775.0</ele><time>2026-04-19T13:15:23.999Z</time></trkpt><trkpt lat="44.35398249032195" lon="10.847902038655997"><ele>776.0</ele><time>2026-04-19T13:15:25.999Z</time></trkpt><trkpt lat="44.35391610860529" lon="10.847931163433676"><ele>777.0</ele><time>2026-04-19T13:15:26.999Z</time></trkpt><trkpt lat="44.35378982065856" lon="10.847960873213566"><ele>777.0</ele><time>2026-04-19T13:15:28.999Z</time></trkpt><trkpt lat="44.35365108053778" lon="10.847974998631555"><ele>777.0</ele><time>2026-04-19T13:15:30.999Z</time></trkpt><trkpt lat="44.35356930028516" lon="10.84802083232897"><ele>777.0</ele><time>2026-04-19T13:15:31.999Z</time></trkpt><trkpt lat="44.35345386753721" lon="10.848050873916435"><ele>777.0</ele><time>2026-04-19T13:15:33.999Z</time></trkpt><trkpt lat="44.35338858479357" lon="10.848086819698864"><ele>777.0</ele><time>2026-04-19T13:15:34.999Z</time></trkpt><trkpt lat="44.35330082959494" lon="10.848125852954412"><ele>777.0</ele><time>2026-04-19T13:15:35.999Z</time></trkpt><trkpt lat="44.353196412924035" lon="10.848163075559025"><ele>777.0</ele><time>2026-04-19T13:15:36.999Z</time></trkpt><trkpt lat="44.35311190790347" lon="10.848207147318961"><ele>777.0</ele><time>2026-04-19T13:15:37.999Z</time></trkpt><trkpt lat="44.35303166917973" lon="10.848264966710412"><ele>777.0</ele><time>2026-04-19T13:15:38.999Z</time></trkpt><trkpt lat="44.352936253655145" lon="10.848310162614906"><ele>777.0</ele><time>2026-04-19T13:15:39.999Z</time></trkpt><trkpt lat="44.3528376641463" lon="10.848368629792168"><ele>777.0</ele><time>2026-04-19T13:15:40.999Z</time></trkpt><trkpt lat="44.35276200758425" lon="10.848426297496019"><ele>777.0</ele><time>2026-04-19T13:15:41.999Z</time></trkpt><trkpt lat="44.35270005314054" lon="10.848473740433352"><ele>777.0</ele><time>2026-04-19T13:15:43Z</time></trkpt><trkpt lat="44.3525909876549" lon="10.848506656689217"><ele>777.0</ele><time>2026-04-19T13:15:45Z</time></trkpt><trkpt lat="44.352517806432566" lon="10.848524050900403"><ele>777.0</ele><time>2026-04-19T13:15:46Z</time></trkpt><trkpt lat="44.35241225652589" lon="10.848640307590829"><ele>778.0</ele><time>2026-04-19T13:15:47Z</time></trkpt><trkpt lat="44.35228214869512" lon="10.848722692360413"><ele>779.0</ele><time>2026-04-19T13:15:48Z</time></trkpt><trkpt lat="44.352146646458856" lon="10.848821668702255"><ele>780.0</ele><time>2026-04-19T13:15:49Z</time></trkpt><trkpt lat="44.35202847996163" lon="10.848907372250558"><ele>781.0</ele><time>2026-04-19T13:15:50Z</time></trkpt><trkpt lat="44.35193222231671" lon="10.848956496475292"><ele>781.0</ele><time>2026-04-19T13:15:51Z</time></trkpt><trkpt lat="44.351867195626035" lon="10.849036232162629"><ele>781.0</ele><time>2026-04-19T13:15:52Z</time></trkpt><trkpt lat="44.35180726080233" lon="10.84907440811943"><ele>781.0</ele><time>2026-04-19T13:15:53Z</time></trkpt><trkpt lat="44.35172929167569" lon="10.849089858417814"><ele>781.0</ele><time>2026-04-19T13:15:55Z</time></trkpt><trkpt lat="44.35160571175898" lon="10.849006611082887"><ele>781.0</ele><time>2026-04-19T13:15:57Z</time></trkpt><trkpt lat="44.35153442554282" lon="10.848940253661349"><ele>780.9999999999999</ele><time>2026-04-19T13:15:58Z</time></trkpt><trkpt lat="44.351441366982485" lon="10.848929897877385"><ele>781.0</ele><time>2026-04-19T13:15:59Z</time></trkpt><trkpt lat="44.351338622424954" lon="10.84889142944731"><ele>781.0</ele><time>2026-04-19T13:16:00Z</time></trkpt><trkpt lat="44.35124857778244" lon="10.848870045402505"><ele>781.0</ele><time>2026-04-19T13:16:01Z</time></trkpt><trkpt lat="44.35117005566858" lon="10.848833776412983"><ele>780.9999999999999</ele><time>2026-04-19T13:16:02Z</time></trkpt><trkpt lat="44.35112415204205" lon="10.848755915011179"><ele>781.0</ele><time>2026-04-19T13:16:03Z</time></trkpt><trkpt lat="44.35106818433303" lon="10.848690488689499"><ele>780.6666666666666</ele><time>2026-04-19T13:16:04Z</time></trkpt><trkpt lat="44.3510570170553" lon="10.848573335104497"><ele>780.3333333333333</ele><time>2026-04-19T13:16:05Z</time></trkpt><trkpt lat="44.35101946407582" lon="10.84849419548575"><ele>780.0</ele><time>2026-04-19T13:16:06Z</time></trkpt><trkpt lat="44.35098300583773" lon="10.848378894922986"><ele>779.6666666666667</ele><time>2026-04-19T13:16:08Z</time></trkpt><trkpt lat="44.35087125710656" lon="10.84842818258428"><ele>779.3333333333334</ele><time>2026-04-19T13:16:09Z</time></trkpt><trkpt lat="44.35079621170638" lon="10.848409405234754"><ele>779.0</ele><time>2026-04-19T13:16:10Z</time></trkpt><trkpt lat="44.350700030735624" lon="10.848410898380662"><ele>779.4000000000001</ele><time>2026-04-19T13:16:11Z</time></trkpt><trkpt lat="44.35061098405209" lon="10.8484135051933"><ele>779.8</ele><time>2026-04-19T13:16:12Z</time></trkpt><trkpt lat="44.350503779344315" lon="10.848420070697662"><ele>780.2</ele><time>2026-04-19T13:16:13Z</time></trkpt><trkpt lat="44.35039733572575" lon="10.848435147579478"><ele>780.5999999999999</ele><time>2026-04-19T13:16:14Z</time></trkpt><trkpt lat="44.35029314585421" lon="10.848458420111093"><ele>781.0</ele><time>2026-04-19T13:16:15Z</time></trkpt><trkpt lat="44.35019181629554" lon="10.848476894848366"><ele>780.9999999999999</ele><time>2026-04-19T13:16:16Z</time></trkpt><trkpt lat="44.35008879853644" lon="10.848494197414503"><ele>781.0</ele><time>2026-04-19T13:16:17Z</time></trkpt><trkpt lat="44.349997208721646" lon="10.848522894483352"><ele>781.0</ele><time>2026-04-19T13:16:18Z</time></trkpt><trkpt lat="44.34992510848813" lon="10.848542886470545"><ele>781.0</ele><time>2026-04-19T13:16:19Z</time></trkpt><trkpt lat="44.34985172236493" lon="10.84854666263"><ele>780.9999999999999</ele><time>2026-04-19T13:16:20Z</time></trkpt><trkpt lat="44.34979289683313" lon="10.848513886318665"><ele>781.0</ele><time>2026-04-19T13:16:21Z</time></trkpt><trkpt lat="44.34971816613237" lon="10.848455586870518"><ele>784.1666666666666</ele><time>2026-04-19T13:16:22Z</time></trkpt><trkpt lat="44.34963704225177" lon="10.84839872552972"><ele>787.3333333333333</ele><time>2026-04-19T13:16:23Z</time></trkpt><trkpt lat="44.34955965605197" lon="10.84834689917246"><ele>790.5</ele><time>2026-04-19T13:16:24Z</time></trkpt><trkpt lat="44.34948988598915" lon="10.848309558558032"><ele>793.6666666666667</ele><time>2026-04-19T13:16:25Z</time></trkpt><trkpt lat="44.34942176297627" lon="10.848285432121372"><ele>796.8333333333334</ele><time>2026-04-19T13:16:26Z</time></trkpt><trkpt lat="44.34935524123411" lon="10.848264366388483"><ele>800.0</ele><time>2026-04-19T13:16:27Z</time></trkpt><trkpt lat="44.349277813986035" lon="10.848233977419207"><ele>800.0</ele><time>2026-04-19T13:16:28Z</time></trkpt><trkpt lat="44.34920599043649" lon="10.848196066696527"><ele>800.0</ele><time>2026-04-19T13:16:29Z</time></trkpt><trkpt lat="44.34912721086884" lon="10.848160387831829"><ele>800.0</ele><time>2026-04-19T13:16:30Z</time></trkpt><trkpt lat="44.34905544286792" lon="10.848138707655998"><ele>800.0</ele><time>2026-04-19T13:16:31Z</time></trkpt><trkpt lat="44.34891476255063" lon="10.848193800217363"><ele>800.0</ele><time>2026-04-19T13:16:33Z</time></trkpt><trkpt lat="44.34883258495886" lon="10.848300433557192"><ele>805.25</ele><time>2026-04-19T13:16:34Z</time></trkpt><trkpt lat="44.34875699543108" lon="10.848407382143188"><ele>810.5</ele><time>2026-04-19T13:16:35Z</time></trkpt><trkpt lat="44.348681632973666" lon="10.848577493281345"><ele>815.75</ele><time>2026-04-19T13:16:36Z</time></trkpt><trkpt lat="44.348605159281966" lon="10.848680184448536"><ele>821.0</ele><time>2026-04-19T13:16:37Z</time></trkpt><trkpt lat="44.34853705618649" lon="10.848774713494185"><ele>821.0000000000001</ele><time>2026-04-19T13:16:38Z</time></trkpt><trkpt lat="44.34846692955892" lon="10.848849069133696"><ele>821.0</ele><time>2026-04-19T13:16:39Z</time></trkpt><trkpt lat="44.34838945775414" lon="10.848926513703272"><ele>821.0</ele><time>2026-04-19T13:16:40Z</time></trkpt><trkpt lat="44.348313967031565" lon="10.849000705596222"><ele>821.0</ele><time>2026-04-19T13:16:41Z</time></trkpt><trkpt lat="44.34825036682367" lon="10.849059969466744"><ele>821.0000000000001</ele><time>2026-04-19T13:16:42Z</time></trkpt><trkpt lat="44.34819427227442" lon="10.849133297908958"><ele>821.0</ele><time>2026-04-19T13:16:43Z</time></trkpt><trkpt lat="44.34817212260771" lon="10.849247846048755"><ele>821.1666666666667</ele><time>2026-04-19T13:16:44Z</time></trkpt><trkpt lat="44.34813770405202" lon="10.849384274703564"><ele>821.3333333333334</ele><time>2026-04-19T13:16:45Z</time></trkpt><trkpt lat="44.348089126041955" lon="10.84949323785589"><ele>821.5</ele><time>2026-04-19T13:16:46Z</time></trkpt><trkpt lat="44.34805555717081" lon="10.849570488850043"><ele>821.6666666666667</ele><time>2026-04-19T13:16:47Z</time></trkpt><trkpt lat="44.34802324916258" lon="10.849674801004458"><ele>821.8333333333334</ele><time>2026-04-19T13:16:49Z</time></trkpt><trkpt lat="44.347952227032046" lon="10.849734289190454"><ele>822.0</ele><time>2026-04-19T13:16:51Z</time></trkpt><trkpt lat="44.347890180068276" lon="10.84983183656438"><ele>822.0</ele><time>2026-04-19T13:16:53Z</time></trkpt><trkpt lat="44.34781183668888" lon="10.849965271712238"><ele>822.0</ele><time>2026-04-19T13:16:54Z</time></trkpt><trkpt lat="44.347676730250114" lon="10.850019252113118"><ele>822.0</ele><time>2026-04-19T13:16:56Z</time></trkpt><trkpt lat="44.34760530798082" lon="10.850031039299909"><ele>822.0</ele><time>2026-04-19T13:16:57Z</time></trkpt><trkpt lat="44.347533518009264" lon="10.850036794248805"><ele>822.0</ele><time>2026-04-19T13:16:58Z</time></trkpt><trkpt lat="44.34746970514818" lon="10.850038458215503"><ele>822.0</ele><time>2026-04-19T13:17:00Z</time></trkpt><trkpt lat="44.34747252892837" lon="10.849564923841099"><ele>822.0</ele><time>2026-04-19T13:17:41.999Z</time></trkpt><trkpt lat="44.347501727175334" lon="10.849484658177358"><ele>822.0</ele><time>2026-04-19T13:17:42.999Z</time></trkpt><trkpt lat="44.34749780021362" lon="10.849335015404359"><ele>824.8</ele><time>2026-04-19T13:17:44.999Z</time></trkpt><trkpt lat="44.34745800498624" lon="10.849217474097193"><ele>827.6</ele><time>2026-04-19T13:17:46.999Z</time></trkpt><trkpt lat="44.34741193637179" lon="10.84908141605546"><ele>830.4</ele><time>2026-04-19T13:17:49.001Z</time></trkpt><trkpt lat="44.347378387988115" lon="10.848953937175175"><ele>833.1999999999999</ele><time>2026-04-19T13:17:51.001Z</time></trkpt><trkpt lat="44.347383325817056" lon="10.848855430770142"><ele>836.0</ele><time>2026-04-19T13:17:59Z</time></trkpt><trkpt lat="44.34738790017761" lon="10.848976680889193"><ele>836.0</ele><time>2026-04-19T13:18:04Z</time></trkpt><trkpt lat="44.34739802288288" lon="10.84906619808014"><ele>836.0</ele><time>2026-04-19T13:18:05Z</time></trkpt><trkpt lat="44.34745764191675" lon="10.849201614535323"><ele>836.0</ele><time>2026-04-19T13:18:07Z</time></trkpt><trkpt lat="44.34751579499733" lon="10.849347314627034"><ele>836.0</ele><time>2026-04-19T13:18:09Z</time></trkpt><trkpt lat="44.34754784210018" lon="10.849463169926922"><ele>836.0</ele><time>2026-04-19T13:18:11Z</time></trkpt><trkpt lat="44.34752909462868" lon="10.84958701156471"><ele>833.6666666666667</ele><time>2026-04-19T13:18:13Z</time></trkpt><trkpt lat="44.347481823974775" lon="10.84967170240559"><ele>831.3333333333334</ele><time>2026-04-19T13:18:15Z</time></trkpt><trkpt lat="44.347435500806135" lon="10.849732736030568"><ele>829.0</ele><time>2026-04-19T13:18:18Z</time></trkpt><trkpt lat="44.347364968449625" lon="10.849654677138814"><ele>826.6666666666667</ele><time>2026-04-19T13:18:21Z</time></trkpt><trkpt lat="44.347328284776545" lon="10.849575189965377"><ele>824.3333333333334</ele><time>2026-04-19T13:18:23Z</time></trkpt><trkpt lat="44.347267925114544" lon="10.849488473814034"><ele>822.0</ele><time>2026-04-19T13:18:25Z</time></trkpt><trkpt lat="44.347225917759616" lon="10.849383184576551"><ele>825.3333333333334</ele><time>2026-04-19T13:18:28Z</time></trkpt><trkpt lat="44.34712549831113" lon="10.849350938870687"><ele>828.6666666666667</ele><time>2026-04-19T13:18:31Z</time></trkpt><trkpt lat="44.34703597180007" lon="10.849317337637892"><ele>832.0</ele><time>2026-04-19T13:18:33Z</time></trkpt><trkpt lat="44.346956358259916" lon="10.849318142188869"><ele>835.3333333333334</ele><time>2026-04-19T13:18:35Z</time></trkpt><trkpt lat="44.34687797929443" lon="10.84931000842476"><ele>838.6666666666667</ele><time>2026-04-19T13:18:42Z</time></trkpt><trkpt lat="44.34679754453168" lon="10.849281507034707"><ele>842.0</ele><time>2026-04-19T13:18:44Z</time></trkpt><trkpt lat="44.3467244793021" lon="10.849283594389737"><ele>842.0</ele><time>2026-04-19T13:18:45Z</time></trkpt><trkpt lat="44.34659209101875" lon="10.849295485276723"><ele>842.0</ele><time>2026-04-19T13:18:47Z</time></trkpt><trkpt lat="44.34648830832954" lon="10.849303290191616"><ele>842.0</ele><time>2026-04-19T13:18:49Z</time></trkpt><trkpt lat="44.346377076653695" lon="10.849290011519399"><ele>842.0</ele><time>2026-04-19T13:18:51Z</time></trkpt><trkpt lat="44.34630479761968" lon="10.849302379598754"><ele>842.0</ele><time>2026-04-19T13:18:52Z</time></trkpt><trkpt lat="44.34622580467186" lon="10.849402122882397"><ele>846.8</ele><time>2026-04-19T13:18:54Z</time></trkpt><trkpt lat="44.346174884020776" lon="10.849512629292438"><ele>851.6</ele><time>2026-04-19T13:18:56Z</time></trkpt><trkpt lat="44.346067239614364" lon="10.849566005964244"><ele>856.3999999999999</ele><time>2026-04-19T13:18:58Z</time></trkpt><trkpt lat="44.34596273898644" lon="10.84955519852687"><ele>861.1999999999999</ele><time>2026-04-19T13:19:00Z</time></trkpt><trkpt lat="44.345881751381484" lon="10.84958256576902"><ele>866.0</ele><time>2026-04-19T13:19:02Z</time></trkpt><trkpt lat="44.345784895292155" lon="10.849642184595917"><ele>866.0</ele><time>2026-04-19T13:19:04Z</time></trkpt><trkpt lat="44.34572216938956" lon="10.849651016319234"><ele>865.9999999999999</ele><time>2026-04-19T13:19:05Z</time></trkpt><trkpt lat="44.34559757788276" lon="10.849708160260318"><ele>865.9999999999999</ele><time>2026-04-19T13:19:07Z</time></trkpt><trkpt lat="44.34550752069032" lon="10.849702707363516"><ele>866.0</ele><time>2026-04-19T13:19:09Z</time></trkpt><trkpt lat="44.34541841589692" lon="10.849694883233884"><ele>866.0</ele><time>2026-04-19T13:19:11Z</time></trkpt><trkpt lat="44.34530971847691" lon="10.849738815806006"><ele>866.8</ele><time>2026-04-19T13:19:13Z</time></trkpt><trkpt lat="44.34524750546635" lon="10.8498580470904"><ele>867.5999999999999</ele><time>2026-04-19T13:19:15Z</time></trkpt><trkpt lat="44.34521684711073" lon="10.849998778676596"><ele>868.4</ele><time>2026-04-19T13:19:17.999Z</time></trkpt><trkpt lat="44.34519542908734" lon="10.850104906737062"><ele>869.2</ele><time>2026-04-19T13:19:18.999Z</time></trkpt><trkpt lat="44.3451456447705" lon="10.8502506293667"><ele>870.0</ele><time>2026-04-19T13:19:20.999Z</time></trkpt><trkpt lat="44.34512734068867" lon="10.850367730143981"><ele>870.0</ele><time>2026-04-19T13:19:22.999Z</time></trkpt><trkpt lat="44.34513839369078" lon="10.850503845654778"><ele>870.0</ele><time>2026-04-19T13:19:24.999Z</time></trkpt><trkpt lat="44.34514687839709" lon="10.850623587164776"><ele>870.0</ele><time>2026-04-19T13:19:26.999Z</time></trkpt><trkpt lat="44.34508319320259" lon="10.850695651073066"><ele>870.0</ele><time>2026-04-19T13:19:29.999Z</time></trkpt><trkpt lat="44.34500837744734" lon="10.850716134990348"><ele>870.0</ele><time>2026-04-19T13:19:31.999Z</time></trkpt><trkpt lat="44.34493583439273" lon="10.850652805624978"><ele>870.0</ele><time>2026-04-19T13:19:33.999Z</time></trkpt><trkpt lat="44.34485598023986" lon="10.85058314436528"><ele>870.0</ele><time>2026-04-19T13:19:35.999Z</time></trkpt><trkpt lat="44.34478974919249" lon="10.850527732736039"><ele>870.0</ele><time>2026-04-19T13:19:37.999Z</time></trkpt><trkpt lat="44.34474203651153" lon="10.850458490616985"><ele>870.0</ele><time>2026-04-19T13:19:38.999Z</time></trkpt><trkpt lat="44.34468495636137" lon="10.850395391176546"><ele>870.0</ele><time>2026-04-19T13:19:39.999Z</time></trkpt><trkpt lat="44.344615413713946" lon="10.850330677282678"><ele>870.0</ele><time>2026-04-19T13:19:40.999Z</time></trkpt><trkpt lat="44.34455382423264" lon="10.850275875897333"><ele>870.0</ele><time>2026-04-19T13:19:41.999Z</time></trkpt><trkpt lat="44.34448784266016" lon="10.850216124834297"><ele>865.5</ele><time>2026-04-19T13:19:42.999Z</time></trkpt><trkpt lat="44.34440991343218" lon="10.850105779566976"><ele>861.0</ele><time>2026-04-19T13:19:43.999Z</time></trkpt><trkpt lat="44.34434785773119" lon="10.849996852846072"><ele>856.5</ele><time>2026-04-19T13:19:44.999Z</time></trkpt><trkpt lat="44.3442306686098" lon="10.849898132258904"><ele>852.0</ele><time>2026-04-19T13:19:46.999Z</time></trkpt><trkpt lat="44.34412520245562" lon="10.849781948713707"><ele>852.0</ele><time>2026-04-19T13:19:48.999Z</time></trkpt><trkpt lat="44.34406066869357" lon="10.849718643691066"><ele>852.0</ele><time>2026-04-19T13:19:50.999Z</time></trkpt><trkpt lat="44.34396207462917" lon="10.849703411611468"><ele>852.0</ele><time>2026-04-19T13:19:52.999Z</time></trkpt><trkpt lat="44.34389086049459" lon="10.849704454075301"><ele>852.0</ele><time>2026-04-19T13:19:53.999Z</time></trkpt><trkpt lat="44.34377135484471" lon="10.849685870087681"><ele>852.0</ele><time>2026-04-19T13:19:56.001Z</time></trkpt><trkpt lat="44.34364411978651" lon="10.849646447705396"><ele>846.8</ele><time>2026-04-19T13:19:58.001Z</time></trkpt><trkpt lat="44.343578122161816" lon="10.849613272576445"><ele>841.6</ele><time>2026-04-19T13:19:59.001Z</time></trkpt><trkpt lat="44.34347369223002" lon="10.849520563059178"><ele>836.4</ele><time>2026-04-19T13:20:01.001Z</time></trkpt><trkpt lat="44.34342010745008" lon="10.849461100189599"><ele>831.1999999999999</ele><time>2026-04-19T13:20:02.001Z</time></trkpt><trkpt lat="44.34331390942321" lon="10.849346673279777"><ele>826.0</ele><time>2026-04-19T13:20:04Z</time></trkpt><trkpt lat="44.343260094609754" lon="10.849290830075319"><ele>826.0</ele><time>2026-04-19T13:20:05Z</time></trkpt><trkpt lat="44.3431603786659" lon="10.849215539811139"><ele>826.0</ele><time>2026-04-19T13:20:07Z</time></trkpt><trkpt lat="44.34306858425689" lon="10.849143333482907"><ele>826.0</ele><time>2026-04-19T13:20:09Z</time></trkpt><trkpt lat="44.342958831365436" lon="10.849092156271556"><ele>826.0</ele><time>2026-04-19T13:20:11Z</time></trkpt><trkpt lat="44.34288741224904" lon="10.849092353094239"><ele>826.0</ele><time>2026-04-19T13:20:12Z</time></trkpt><trkpt lat="44.342823328550445" lon="10.84908764405095"><ele>823.1428571428571</ele><time>2026-04-19T13:20:13Z</time></trkpt><trkpt lat="44.34275139035796" lon="10.849081463708847"><ele>820.2857142857142</ele><time>2026-04-19T13:20:14Z</time></trkpt><trkpt lat="44.34267219446988" lon="10.849062128435207"><ele>817.4285714285714</ele><time>2026-04-19T13:20:15Z</time></trkpt><trkpt lat="44.342609683769076" lon="10.849019692189868"><ele>814.5714285714286</ele><time>2026-04-19T13:20:16Z</time></trkpt><trkpt lat="44.342545907226096" lon="10.848973183247313"><ele>811.7142857142857</ele><time>2026-04-19T13:20:17Z</time></trkpt><trkpt lat="44.34247653845598" lon="10.848933602659688"><ele>808.8571428571429</ele><time>2026-04-19T13:20:18Z</time></trkpt><trkpt lat="44.342406310517404" lon="10.848902595257819"><ele>806.0</ele><time>2026-04-19T13:20:19Z</time></trkpt><trkpt lat="44.3422900477518" lon="10.848834615375246"><ele>806.0</ele><time>2026-04-19T13:20:21Z</time></trkpt><trkpt lat="44.34223100738615" lon="10.848786801834454"><ele>806.0</ele><time>2026-04-19T13:20:22Z</time></trkpt><trkpt lat="44.34216229629435" lon="10.84872648889905"><ele>806.0</ele><time>2026-04-19T13:20:23Z</time></trkpt><trkpt lat="44.342106738274154" lon="10.848669231759517"><ele>806.0</ele><time>2026-04-19T13:20:24Z</time></trkpt><trkpt lat="44.34204144575187" lon="10.848610862948398"><ele>806.0</ele><time>2026-04-19T13:20:25Z</time></trkpt><trkpt lat="44.34198460939686" lon="10.848557513502758"><ele>806.0</ele><time>2026-04-19T13:20:26Z</time></trkpt><trkpt lat="44.34193052797838" lon="10.848503363739948"><ele>806.0</ele><time>2026-04-19T13:20:27Z</time></trkpt><trkpt lat="44.34187442633127" lon="10.848440751097433"><ele>803.8</ele><time>2026-04-19T13:20:28Z</time></trkpt><trkpt lat="44.34181226859351" lon="10.848358152633228"><ele>801.5999999999999</ele><time>2026-04-19T13:20:29Z</time></trkpt><trkpt lat="44.34174831906269" lon="10.848250492960712"><ele>799.4</ele><time>2026-04-19T13:20:30Z</time></trkpt><trkpt lat="44.34168595898225" lon="10.848131160319504"><ele>797.2</ele><time>2026-04-19T13:20:31Z</time></trkpt><trkpt lat="44.34163312469161" lon="10.848036007005213"><ele>795.0</ele><time>2026-04-19T13:20:32Z</time></trkpt><trkpt lat="44.34158370032061" lon="10.847949609250705"><ele>795.0</ele><time>2026-04-19T13:20:33Z</time></trkpt><trkpt lat="44.3415401912579" lon="10.847872928007282"><ele>795.0</ele><time>2026-04-19T13:20:34Z</time></trkpt><trkpt lat="44.341489229094535" lon="10.847775480715576"><ele>795.0</ele><time>2026-04-19T13:20:36Z</time></trkpt><trkpt lat="44.34151990017993" lon="10.847637461114347"><ele>795.0</ele><time>2026-04-19T13:20:38Z</time></trkpt><trkpt lat="44.34156873790067" lon="10.84753466406659"><ele>795.0</ele><time>2026-04-19T13:20:39Z</time></trkpt><trkpt lat="44.341614564265896" lon="10.847426763310402"><ele>795.0</ele><time>2026-04-19T13:20:40Z</time></trkpt><trkpt lat="44.34165891608629" lon="10.847285228911069"><ele>794.0</ele><time>2026-04-19T13:20:41Z</time></trkpt><trkpt lat="44.34169357693775" lon="10.847154743336064"><ele>793.0</ele><time>2026-04-19T13:20:42Z</time></trkpt><trkpt lat="44.34171783193219" lon="10.847013338502725"><ele>792.0</ele><time>2026-04-19T13:20:43Z</time></trkpt><trkpt lat="44.341731898787266" lon="10.846855712375996"><ele>791.0</ele><time>2026-04-19T13:20:44Z</time></trkpt><trkpt lat="44.3417326423155" lon="10.846717090971037"><ele>790.0</ele><time>2026-04-19T13:20:45Z</time></trkpt><trkpt lat="44.34173711322687" lon="10.846579120464048"><ele>789.3333333333333</ele><time>2026-04-19T13:20:46Z</time></trkpt><trkpt lat="44.341774095088056" lon="10.84645861171674"><ele>788.6666666666666</ele><time>2026-04-19T13:20:47Z</time></trkpt><trkpt lat="44.34176821966306" lon="10.84634326226419"><ele>788.0</ele><time>2026-04-19T13:20:48Z</time></trkpt><trkpt lat="44.341755938838794" lon="10.846214545912463"><ele>787.3333333333333</ele><time>2026-04-19T13:20:49Z</time></trkpt><trkpt lat="44.341721031295535" lon="10.846101286764542"><ele>786.6666666666666</ele><time>2026-04-19T13:20:50Z</time></trkpt><trkpt lat="44.34169596255591" lon="10.84601162657073"><ele>786.0</ele><time>2026-04-19T13:20:51Z</time></trkpt><trkpt lat="44.341645524739036" lon="10.845920963620735"><ele>785.0</ele><time>2026-04-19T13:20:52Z</time></trkpt><trkpt lat="44.34158172225411" lon="10.845837116255556"><ele>784.0</ele><time>2026-04-19T13:20:53Z</time></trkpt><trkpt lat="44.341522346623954" lon="10.84572643023631"><ele>783.0</ele><time>2026-04-19T13:20:54Z</time></trkpt><trkpt lat="44.34141208669459" lon="10.845598849652585"><ele>782.0</ele><time>2026-04-19T13:20:55Z</time></trkpt><trkpt lat="44.34130055571071" lon="10.845408340755109"><ele>781.6</ele><time>2026-04-19T13:20:56Z</time></trkpt><trkpt lat="44.34121955768301" lon="10.845262759213576"><ele>781.2</ele><time>2026-04-19T13:20:57Z</time></trkpt><trkpt lat="44.341159668166355" lon="10.845151944281707"><ele>780.8</ele><time>2026-04-19T13:20:58Z</time></trkpt><trkpt lat="44.341115235148195" lon="10.845069186333097"><ele>780.4</ele><time>2026-04-19T13:20:59Z</time></trkpt><trkpt lat="44.3410761605757" lon="10.844995317887781"><ele>780.0</ele><time>2026-04-19T13:21:00Z</time></trkpt><trkpt lat="44.34101538326803" lon="10.844880421586794"><ele>779.6666666666667</ele><time>2026-04-19T13:21:02Z</time></trkpt><trkpt lat="44.340935079146526" lon="10.844744316796726"><ele>779.3333333333334</ele><time>2026-04-19T13:21:04Z</time></trkpt><trkpt lat="44.34088907488206" lon="10.844680028543259"><ele>779.0</ele><time>2026-04-19T13:21:05Z</time></trkpt><trkpt lat="44.34053255506315" lon="10.84491647806197"><ele>779.4000000000001</ele><time>2026-04-19T13:21:06Z</time></trkpt><trkpt lat="44.340429886312975" lon="10.844901747857799"><ele>779.8</ele><time>2026-04-19T13:21:07Z</time></trkpt><trkpt lat="44.34033557267807" lon="10.844891569039788"><ele>780.2</ele><time>2026-04-19T13:21:08Z</time></trkpt><trkpt lat="44.34026776150395" lon="10.844887920371312"><ele>780.5999999999999</ele><time>2026-04-19T13:21:09Z</time></trkpt><trkpt lat="44.34016732759775" lon="10.84487091263372"><ele>781.0</ele><time>2026-04-19T13:21:10Z</time></trkpt><trkpt lat="44.34005636897676" lon="10.844864666408593"><ele>781.0</ele><time>2026-04-19T13:21:10.999Z</time></trkpt><trkpt lat="44.339929046535495" lon="10.844863400010446"><ele>781.0</ele><time>2026-04-19T13:21:11.999Z</time></trkpt><trkpt lat="44.3398043022109" lon="10.844856728924958"><ele>781.0</ele><time>2026-04-19T13:21:12.999Z</time></trkpt><trkpt lat="44.33971567399545" lon="10.844859076083356"><ele>781.0</ele><time>2026-04-19T13:21:13.999Z</time></trkpt><trkpt lat="44.339636340731076" lon="10.844859995421006"><ele>781.0</ele><time>2026-04-19T13:21:14.999Z</time></trkpt><trkpt lat="44.33953729557122" lon="10.84485527297248"><ele>783.4</ele><time>2026-04-19T13:21:15.999Z</time></trkpt><trkpt lat="44.33945680644348" lon="10.844860024104277"><ele>785.8</ele><time>2026-04-19T13:21:16.999Z</time></trkpt><trkpt lat="44.339329214239534" lon="10.84485389186665"><ele>788.1999999999999</ele><time>2026-04-19T13:21:17.999Z</time></trkpt><trkpt lat="44.339211467832754" lon="10.844879641184765"><ele>790.5999999999999</ele><time>2026-04-19T13:21:18.999Z</time></trkpt><trkpt lat="44.339148487952095" lon="10.84492002222995"><ele>793.0</ele><time>2026-04-19T13:21:19.999Z</time></trkpt><trkpt lat="44.33901602964221" lon="10.845012776945417"><ele>793.0</ele><time>2026-04-19T13:21:22.999Z</time></trkpt><trkpt lat="44.33895386176589" lon="10.845038315795286"><ele>793.0</ele><time>2026-04-19T13:21:23.999Z</time></trkpt><trkpt lat="44.3388998503506" lon="10.845091810003002"><ele>793.0</ele><time>2026-04-19T13:21:24.999Z</time></trkpt><trkpt lat="44.338824933944814" lon="10.845172499871607"><ele>793.0</ele><time>2026-04-19T13:21:26.999Z</time></trkpt><trkpt lat="44.33871014218658" lon="10.845231211838083"><ele>793.0</ele><time>2026-04-19T13:21:28.999Z</time></trkpt><trkpt lat="44.338594463880995" lon="10.845250998095596"><ele>793.6666666666666</ele><time>2026-04-19T13:21:30.999Z</time></trkpt><trkpt lat="44.33852312729894" lon="10.845232063098848"><ele>794.3333333333333</ele><time>2026-04-19T13:21:31.999Z</time></trkpt><trkpt lat="44.33843180152082" lon="10.845195612322762"><ele>795.0</ele><time>2026-04-19T13:21:32.999Z</time></trkpt><trkpt lat="44.33836006465578" lon="10.845169341978176"><ele>795.6666666666667</ele><time>2026-04-19T13:21:33.999Z</time></trkpt><trkpt lat="44.33827702032079" lon="10.845142071693088"><ele>796.3333333333334</ele><time>2026-04-19T13:21:34.999Z</time></trkpt><trkpt lat="44.33819868519893" lon="10.845115248910101"><ele>797.0</ele><time>2026-04-19T13:21:36.999Z</time></trkpt><trkpt lat="44.33807054048595" lon="10.845145954779479"><ele>794.5000000000001</ele><time>2026-04-19T13:21:38.999Z</time></trkpt><trkpt lat="44.33799405826834" lon="10.845125291325113"><ele>792.0</ele><time>2026-04-19T13:21:39.999Z</time></trkpt><trkpt lat="44.337921834662296" lon="10.84510605483928"><ele>789.5</ele><time>2026-04-19T13:21:40.999Z</time></trkpt><trkpt lat="44.33785607194402" lon="10.845073368693892"><ele>787.0</ele><time>2026-04-19T13:21:41.999Z</time></trkpt><trkpt lat="44.337794388051186" lon="10.845032647501982"><ele>784.5000000000001</ele><time>2026-04-19T13:21:42.999Z</time></trkpt><trkpt lat="44.33768760976596" lon="10.844948797915002"><ele>782.0</ele><time>2026-04-19T13:21:44.999Z</time></trkpt><trkpt lat="44.33761495012845" lon="10.844891467145418"><ele>782.0</ele><time>2026-04-19T13:21:45.999Z</time></trkpt><trkpt lat="44.33752502458568" lon="10.844791426935506"><ele>782.0</ele><time>2026-04-19T13:21:47.999Z</time></trkpt><trkpt lat="44.337429772510795" lon="10.844667718922532"><ele>782.0</ele><time>2026-04-19T13:21:49.999Z</time></trkpt><trkpt lat="44.33739063251317" lon="10.844596014695718"><ele>782.0</ele><time>2026-04-19T13:21:50.999Z</time></trkpt><trkpt lat="44.33735708708765" lon="10.844519886404392"><ele>782.0</ele><time>2026-04-19T13:21:51.999Z</time></trkpt><trkpt lat="44.337309516866135" lon="10.84439599220751"><ele>783.0</ele><time>2026-04-19T13:21:52.999Z</time></trkpt><trkpt lat="44.33726397128792" lon="10.844257962110637"><ele>784.0</ele><time>2026-04-19T13:21:53.999Z</time></trkpt><trkpt lat="44.337244041939165" lon="10.844156169635356"><ele>785.0</ele><time>2026-04-19T13:21:54.999Z</time></trkpt><trkpt lat="44.337202827278" lon="10.844020826184057"><ele>786.0</ele><time>2026-04-19T13:21:55.999Z</time></trkpt><trkpt lat="44.337153003498344" lon="10.843922185019238"><ele>787.0</ele><time>2026-04-19T13:21:56.999Z</time></trkpt><trkpt lat="44.33708996939731" lon="10.843831495513703"><ele>784.0</ele><time>2026-04-19T13:21:57.999Z</time></trkpt><trkpt lat="44.33700768018253" lon="10.843728670194304"><ele>781.0</ele><time>2026-04-19T13:21:58.999Z</time></trkpt><trkpt lat="44.33692081707295" lon="10.843611402983955"><ele>778.0</ele><time>2026-04-19T13:22:00Z</time></trkpt><trkpt lat="44.33682884355359" lon="10.843494601479724"><ele>775.0</ele><time>2026-04-19T13:22:01Z</time></trkpt><trkpt lat="44.33676317107708" lon="10.843431326919559"><ele>772.0</ele><time>2026-04-19T13:22:03Z</time></trkpt><trkpt lat="44.33671782925571" lon="10.843353360261071"><ele>772.0000000000001</ele><time>2026-04-19T13:22:04Z</time></trkpt><trkpt lat="44.33668908287286" lon="10.843271449754956"><ele>772.0</ele><time>2026-04-19T13:22:05Z</time></trkpt><trkpt lat="44.33663044465229" lon="10.843162187875736"><ele>772.0</ele><time>2026-04-19T13:22:07Z</time></trkpt><trkpt lat="44.33656926296353" lon="10.84312226780882"><ele>772.0</ele><time>2026-04-19T13:22:08Z</time></trkpt><trkpt lat="44.336502917644076" lon="10.843083971998677"><ele>772.0</ele><time>2026-04-19T13:22:09Z</time></trkpt><trkpt lat="44.33643953543189" lon="10.843043721845593"><ele>772.0000000000001</ele><time>2026-04-19T13:22:10Z</time></trkpt><trkpt lat="44.336386238451816" lon="10.842992931201486"><ele>772.0</ele><time>2026-04-19T13:22:11Z</time></trkpt><trkpt lat="44.336290244412915" lon="10.84291617643099"><ele>771.2</ele><time>2026-04-19T13:22:13Z</time></trkpt><trkpt lat="44.33622266437809" lon="10.842894821562112"><ele>770.4000000000001</ele><time>2026-04-19T13:22:15Z</time></trkpt><trkpt lat="44.33609388375021" lon="10.842934824214067"><ele>769.5999999999999</ele><time>2026-04-19T13:22:17Z</time></trkpt><trkpt lat="44.33601104034552" lon="10.84294933291601"><ele>768.8</ele><time>2026-04-19T13:22:18Z</time></trkpt><trkpt lat="44.335942539239525" lon="10.842967372795345"><ele>768.0</ele><time>2026-04-19T13:22:19Z</time></trkpt><trkpt lat="44.33582865782475" lon="10.843022348983368"><ele>768.0</ele><time>2026-04-19T13:22:21Z</time></trkpt><trkpt lat="44.33576524848165" lon="10.84310970609128"><ele>768.0</ele><time>2026-04-19T13:22:22Z</time></trkpt><trkpt lat="44.3357241014453" lon="10.843201826301971"><ele>768.0</ele><time>2026-04-19T13:22:23Z</time></trkpt><trkpt lat="44.33565522089567" lon="10.84330501524957"><ele>768.0</ele><time>2026-04-19T13:22:24Z</time></trkpt><trkpt lat="44.33554026389815" lon="10.843375335574384"><ele>768.0</ele><time>2026-04-19T13:22:26Z</time></trkpt><trkpt lat="44.33547192793243" lon="10.843395089084165"><ele>766.8333333333334</ele><time>2026-04-19T13:22:27Z</time></trkpt><trkpt lat="44.33539616390602" lon="10.843400148508476"><ele>765.6666666666666</ele><time>2026-04-19T13:22:28Z</time></trkpt><trkpt lat="44.33531963883111" lon="10.843396766009876"><ele>764.5</ele><time>2026-04-19T13:22:29Z</time></trkpt><trkpt lat="44.335218031983054" lon="10.843343110016288"><ele>763.3333333333333</ele><time>2026-04-19T13:22:31Z</time></trkpt><trkpt lat="44.335148603794266" lon="10.843222796158164"><ele>762.1666666666666</ele><time>2026-04-19T13:22:33Z</time></trkpt><trkpt lat="44.335099978959654" lon="10.843145248390714"><ele>761.0</ele><time>2026-04-19T13:22:34Z</time></trkpt><trkpt lat="44.33506795277781" lon="10.843063100367072"><ele>761.0</ele><time>2026-04-19T13:22:35Z</time></trkpt><trkpt lat="44.335023508435484" lon="10.842934213452294"><ele>761.0</ele><time>2026-04-19T13:22:37Z</time></trkpt><trkpt lat="44.33497527387892" lon="10.842801101539985"><ele>761.0</ele><time>2026-04-19T13:22:39Z</time></trkpt><trkpt lat="44.33496948045076" lon="10.842711934373806"><ele>761.0</ele><time>2026-04-19T13:22:41Z</time></trkpt><trkpt lat="44.33502285798074" lon="10.84255267848392"><ele>761.0</ele><time>2026-04-19T13:22:43Z</time></trkpt><trkpt lat="44.33507813894362" lon="10.842477810907772"><ele>761.5999999999999</ele><time>2026-04-19T13:22:44Z</time></trkpt><trkpt lat="44.33516646715103" lon="10.842367366135402"><ele>762.2</ele><time>2026-04-19T13:22:46Z</time></trkpt><trkpt lat="44.33524892655129" lon="10.842274661707147"><ele>762.8</ele><time>2026-04-19T13:22:48Z</time></trkpt><trkpt lat="44.335292668392285" lon="10.842168743579423"><ele>763.4000000000001</ele><time>2026-04-19T13:22:50Z</time></trkpt><trkpt lat="44.33526534140632" lon="10.842043333850869"><ele>764.0</ele><time>2026-04-19T13:22:52Z</time></trkpt><trkpt lat="44.33521053457957" lon="10.841994932854712"><ele>764.0</ele><time>2026-04-19T13:22:53Z</time></trkpt><trkpt lat="44.33513869639289" lon="10.841937823870134"><ele>764.0</ele><time>2026-04-19T13:22:54Z</time></trkpt><trkpt lat="44.33506879790418" lon="10.84186861103179"><ele>764.0</ele><time>2026-04-19T13:22:55Z</time></trkpt><trkpt lat="44.335017907627325" lon="10.841803405559647"><ele>764.0</ele><time>2026-04-19T13:22:56Z</time></trkpt><trkpt lat="44.33496166661553" lon="10.841725284831757"><ele>764.0</ele><time>2026-04-19T13:22:57Z</time></trkpt><trkpt lat="44.334914758894456" lon="10.841638722983516"><ele>764.0</ele><time>2026-04-19T13:22:58Z</time></trkpt><trkpt lat="44.33487442220859" lon="10.841558683775904"><ele>762.5</ele><time>2026-04-19T13:22:59Z</time></trkpt><trkpt lat="44.33483051511699" lon="10.8414748909016"><ele>761.0</ele><time>2026-04-19T13:23:00Z</time></trkpt><trkpt lat="44.33477914671955" lon="10.841415920631125"><ele>759.5</ele><time>2026-04-19T13:23:00.999Z</time></trkpt><trkpt lat="44.334709199192666" lon="10.841366197240074"><ele>758.0</ele><time>2026-04-19T13:23:01.999Z</time></trkpt><trkpt lat="44.33462869017658" lon="10.841312814610323"><ele>756.5</ele><time>2026-04-19T13:23:02.999Z</time></trkpt><trkpt lat="44.334580319053195" lon="10.841226595366203"><ele>755.0</ele><time>2026-04-19T13:23:03.999Z</time></trkpt><trkpt lat="44.334500282360494" lon="10.84118098240035"><ele>753.0</ele><time>2026-04-19T13:23:04.999Z</time></trkpt><trkpt lat="44.33441821894794" lon="10.841144453448228"><ele>751.0</ele><time>2026-04-19T13:23:05.999Z</time></trkpt><trkpt lat="44.334336566061644" lon="10.841128441497707"><ele>749.0</ele><time>2026-04-19T13:23:06.999Z</time></trkpt><trkpt lat="44.33424357450814" lon="10.8411320832283"><ele>747.0</ele><time>2026-04-19T13:23:07.999Z</time></trkpt><trkpt lat="44.334170585799754" lon="10.84108702244678"><ele>745.0</ele><time>2026-04-19T13:23:08.999Z</time></trkpt><trkpt lat="44.33408773035283" lon="10.841046487516063"><ele>743.0</ele><time>2026-04-19T13:23:09.999Z</time></trkpt><trkpt lat="44.334032510938606" lon="10.841003512766909"><ele>742.3333333333333</ele><time>2026-04-19T13:23:10.999Z</time></trkpt><trkpt lat="44.33395088365769" lon="10.840945438517261"><ele>741.6666666666666</ele><time>2026-04-19T13:23:11.999Z</time></trkpt><trkpt lat="44.33388425349284" lon="10.840914714359688"><ele>741.0</ele><time>2026-04-19T13:23:12.999Z</time></trkpt><trkpt lat="44.33381966917784" lon="10.840849792882727"><ele>740.3333333333334</ele><time>2026-04-19T13:23:13.999Z</time></trkpt><trkpt lat="44.33374524637777" lon="10.840817836365861"><ele>739.6666666666667</ele><time>2026-04-19T13:23:14.999Z</time></trkpt><trkpt lat="44.33366174792808" lon="10.840731800928392"><ele>739.0</ele><time>2026-04-19T13:23:15.999Z</time></trkpt><trkpt lat="44.33354266230622" lon="10.840668246508034"><ele>738.6</ele><time>2026-04-19T13:23:16.999Z</time></trkpt><trkpt lat="44.3334395198517" lon="10.840568085428952"><ele>738.2</ele><time>2026-04-19T13:23:17.999Z</time></trkpt><trkpt lat="44.333337719376814" lon="10.840520697317322"><ele>737.8000000000001</ele><time>2026-04-19T13:23:18.999Z</time></trkpt><trkpt lat="44.33326209657558" lon="10.840465260585797"><ele>737.4000000000001</ele><time>2026-04-19T13:23:19.999Z</time></trkpt><trkpt lat="44.333200144619596" lon="10.84038612761732"><ele>737.0</ele><time>2026-04-19T13:23:20.999Z</time></trkpt><trkpt lat="44.33315143606792" lon="10.840326938009415"><ele>737.0</ele><time>2026-04-19T13:23:21.999Z</time></trkpt><trkpt lat="44.33311172539356" lon="10.840228733032772"><ele>737.0</ele><time>2026-04-19T13:23:23.999Z</time></trkpt><trkpt lat="44.33308869212928" lon="10.84014539593977"><ele>737.0</ele><time>2026-04-19T13:23:27.999Z</time></trkpt><trkpt lat="44.333065265073216" lon="10.840002920026128"><ele>737.0</ele><time>2026-04-19T13:23:46.999Z</time></trkpt><trkpt lat="44.33305916091656" lon="10.839864629265108"><ele>737.0</ele><time>2026-04-19T13:23:47.999Z</time></trkpt><trkpt lat="44.33305524756861" lon="10.839724653406225"><ele>737.0</ele><time>2026-04-19T13:23:48.999Z</time></trkpt><trkpt lat="44.33305358703961" lon="10.83956796488192"><ele>736.8</ele><time>2026-04-19T13:23:49.999Z</time></trkpt><trkpt lat="44.33305198891581" lon="10.839426397360281"><ele>736.6</ele><time>2026-04-19T13:23:50.999Z</time></trkpt><trkpt lat="44.333050211044274" lon="10.839281074496258"><ele>736.4</ele><time>2026-04-19T13:23:51.999Z</time></trkpt><trkpt lat="44.333048161019576" lon="10.83915710165231"><ele>736.1999999999999</ele><time>2026-04-19T13:23:52.999Z</time></trkpt><trkpt lat="44.333045714764864" lon="10.839009167325058"><ele>736.0</ele><time>2026-04-19T13:23:53.999Z</time></trkpt><trkpt lat="44.333043531726894" lon="10.83887715020423"><ele>736.0</ele><time>2026-04-19T13:23:54.999Z</time></trkpt><trkpt lat="44.33304723233088" lon="10.838742752967068"><ele>736.0</ele><time>2026-04-19T13:23:55.999Z</time></trkpt><trkpt lat="44.333053793294695" lon="10.838611134047042"><ele>736.0</ele><time>2026-04-19T13:23:56.999Z</time></trkpt><trkpt lat="44.33304986479722" lon="10.838484064822806"><ele>736.0</ele><time>2026-04-19T13:23:57.999Z</time></trkpt><trkpt lat="44.33305774291651" lon="10.838375591397018"><ele>736.0</ele><time>2026-04-19T13:23:58.999Z</time></trkpt><trkpt lat="44.33305996162393" lon="10.838264586719522"><ele>736.0</ele><time>2026-04-19T13:23:59.999Z</time></trkpt><trkpt lat="44.33305351778827" lon="10.83817700281071"><ele>733.8333333333334</ele><time>2026-04-19T13:24:00.999Z</time></trkpt><trkpt lat="44.33300479756595" lon="10.838062844802312"><ele>731.6666666666667</ele><time>2026-04-19T13:24:02.999Z</time></trkpt><trkpt lat="44.33292999320071" lon="10.838060329549693"><ele>729.5</ele><time>2026-04-19T13:24:03.999Z</time></trkpt><trkpt lat="44.33285425807628" lon="10.83812085952135"><ele>727.3333333333334</ele><time>2026-04-19T13:24:04.999Z</time></trkpt><trkpt lat="44.33278409327515" lon="10.838129120545997"><ele>725.1666666666666</ele><time>2026-04-19T13:24:06Z</time></trkpt><trkpt lat="44.33271981103308" lon="10.838174271985505"><ele>723.0</ele><time>2026-04-19T13:24:07Z</time></trkpt><trkpt lat="44.33265423615933" lon="10.8381832580911"><ele>723.0</ele><time>2026-04-19T13:24:08Z</time></trkpt><trkpt lat="44.33259241962724" lon="10.838203893490098"><ele>723.0</ele><time>2026-04-19T13:24:09Z</time></trkpt><trkpt lat="44.33252935777425" lon="10.838230992866727"><ele>723.0</ele><time>2026-04-19T13:24:10Z</time></trkpt><trkpt lat="44.332413976503084" lon="10.838235207364859"><ele>723.0</ele><time>2026-04-19T13:24:12Z</time></trkpt><trkpt lat="44.33232250644459" lon="10.837970139994907"><ele>723.0</ele><time>2026-04-19T13:24:15Z</time></trkpt><trkpt lat="44.33229953917606" lon="10.837834280164818"><ele>723.0</ele><time>2026-04-19T13:24:16Z</time></trkpt><trkpt lat="44.332269290187284" lon="10.837701260705042"><ele>723.0</ele><time>2026-04-19T13:24:17Z</time></trkpt><trkpt lat="44.332244139132726" lon="10.837586229212084"><ele>723.0</ele><time>2026-04-19T13:24:18Z</time></trkpt><trkpt lat="44.332217695229645" lon="10.837458761463505"><ele>723.0</ele><time>2026-04-19T13:24:19Z</time></trkpt><trkpt lat="44.332197238824016" lon="10.837347370513282"><ele>721.3333333333334</ele><time>2026-04-19T13:24:20Z</time></trkpt><trkpt lat="44.332173245986056" lon="10.837221277631196"><ele>719.6666666666666</ele><time>2026-04-19T13:24:21Z</time></trkpt><trkpt lat="44.332154347037815" lon="10.837106325947932"><ele>718.0</ele><time>2026-04-19T13:24:22Z</time></trkpt><trkpt lat="44.33214074686298" lon="10.836980694968323"><ele>716.3333333333333</ele><time>2026-04-19T13:24:23Z</time></trkpt><trkpt lat="44.33214007819029" lon="10.836872105737928"><ele>714.6666666666666</ele><time>2026-04-19T13:24:24Z</time></trkpt><trkpt lat="44.33213892320015" lon="10.836749618973103"><ele>713.0</ele><time>2026-04-19T13:24:25Z</time></trkpt><trkpt lat="44.33213529567687" lon="10.836655945030916"><ele>712.1666666666666</ele><time>2026-04-19T13:24:26Z</time></trkpt><trkpt lat="44.33213295898783" lon="10.836553735102829"><ele>711.3333333333333</ele><time>2026-04-19T13:24:27Z</time></trkpt><trkpt lat="44.33212314546635" lon="10.83643199898647"><ele>710.5</ele><time>2026-04-19T13:24:29Z</time></trkpt><trkpt lat="44.33202069502371" lon="10.836380025556428"><ele>709.6666666666666</ele><time>2026-04-19T13:24:32Z</time></trkpt><trkpt lat="44.331956392376135" lon="10.836408514261631"><ele>708.8333333333334</ele><time>2026-04-19T13:24:33Z</time></trkpt><trkpt lat="44.33186770648603" lon="10.836395904692994"><ele>708.0</ele><time>2026-04-19T13:24:35Z</time></trkpt><trkpt lat="44.33180142745656" lon="10.836288157527235"><ele>708.0</ele><time>2026-04-19T13:24:37Z</time></trkpt><trkpt lat="44.331757855099916" lon="10.836180067635821"><ele>708.0</ele><time>2026-04-19T13:24:38Z</time></trkpt><trkpt lat="44.331718169595" lon="10.83608452479365"><ele>708.0</ele><time>2026-04-19T13:24:39Z</time></trkpt><trkpt lat="44.33167982961859" lon="10.836004542799483"><ele>708.0</ele><time>2026-04-19T13:24:40Z</time></trkpt><trkpt lat="44.33162819615037" lon="10.8359275287386"><ele>708.0</ele><time>2026-04-19T13:24:41Z</time></trkpt><trkpt lat="44.33154563582516" lon="10.835886798706508"><ele>708.0</ele><time>2026-04-19T13:24:42Z</time></trkpt><trkpt lat="44.33145478582095" lon="10.835825452452497"><ele>704.8333333333334</ele><time>2026-04-19T13:24:43Z</time></trkpt><trkpt lat="44.33136521678906" lon="10.835779180963266"><ele>701.6666666666666</ele><time>2026-04-19T13:24:44Z</time></trkpt><trkpt lat="44.33127647442822" lon="10.835739584422338"><ele>698.5</ele><time>2026-04-19T13:24:45Z</time></trkpt><trkpt lat="44.33118446117631" lon="10.835732098193139"><ele>695.3333333333333</ele><time>2026-04-19T13:24:46Z</time></trkpt><trkpt lat="44.331106958152475" lon="10.835701164445627"><ele>692.1666666666666</ele><time>2026-04-19T13:24:47Z</time></trkpt><trkpt lat="44.331026169509556" lon="10.835676325342947"><ele>689.0</ele><time>2026-04-19T13:24:48Z</time></trkpt><trkpt lat="44.3309384233958" lon="10.835643297562385"><ele>689.0</ele><time>2026-04-19T13:24:49Z</time></trkpt><trkpt lat="44.330861159516" lon="10.835612196721552"><ele>689.0</ele><time>2026-04-19T13:24:50Z</time></trkpt><trkpt lat="44.33078824494178" lon="10.835577515285276"><ele>689.0</ele><time>2026-04-19T13:24:51Z</time></trkpt><trkpt lat="44.33068550933995" lon="10.835536336987287"><ele>689.0</ele><time>2026-04-19T13:24:53Z</time></trkpt><trkpt lat="44.33062075011335" lon="10.835514386459481"><ele>689.0</ele><time>2026-04-19T13:24:55Z</time></trkpt><trkpt lat="44.33056245620622" lon="10.835477244081313"><ele>689.0</ele><time>2026-04-19T13:24:58.999Z</time></trkpt><trkpt lat="44.330491704573376" lon="10.835736505966658"><ele>687.5</ele><time>2026-04-19T13:25:00.999Z</time></trkpt><trkpt lat="44.3304737378751" lon="10.835855645542715"><ele>686.0</ele><time>2026-04-19T13:25:01.999Z</time></trkpt><trkpt lat="44.33043303631357" lon="10.835970239168834"><ele>684.5</ele><time>2026-04-19T13:25:02.999Z</time></trkpt><trkpt lat="44.33036464145827" lon="10.836124939133732"><ele>683.0</ele><time>2026-04-19T13:25:03.999Z</time></trkpt><trkpt lat="44.33029954528494" lon="10.836305316981578"><ele>683.0</ele><time>2026-04-19T13:25:04.999Z</time></trkpt><trkpt lat="44.33021908506899" lon="10.836495445887728"><ele>683.0</ele><time>2026-04-19T13:25:05.999Z</time></trkpt><trkpt lat="44.33015040973137" lon="10.836670443922456"><ele>683.0</ele><time>2026-04-19T13:25:06.999Z</time></trkpt><trkpt lat="44.330079978918164" lon="10.836836698936663"><ele>683.0</ele><time>2026-04-19T13:25:07.999Z</time></trkpt><trkpt lat="44.3300268119578" lon="10.83700014693718"><ele>684.5</ele><time>2026-04-19T13:25:08.999Z</time></trkpt><trkpt lat="44.32999686525575" lon="10.837159523234774"><ele>686.0</ele><time>2026-04-19T13:25:09.999Z</time></trkpt><trkpt lat="44.32998574394265" lon="10.83732688633863"><ele>687.5</ele><time>2026-04-19T13:25:10.999Z</time></trkpt><trkpt lat="44.32998688524137" lon="10.837493745915891"><ele>689.0</ele><time>2026-04-19T13:25:11.999Z</time></trkpt><trkpt lat="44.32999307860548" lon="10.837655091770896"><ele>689.25</ele><time>2026-04-19T13:25:12.999Z</time></trkpt><trkpt lat="44.33001720447849" lon="10.837824691818984"><ele>689.5</ele><time>2026-04-19T13:25:13.999Z</time></trkpt><trkpt lat="44.33007647031372" lon="10.837969996551703"><ele>689.75</ele><time>2026-04-19T13:25:14.999Z</time></trkpt><trkpt lat="44.33016609670867" lon="10.838120879523277"><ele>690.0</ele><time>2026-04-19T13:25:15.999Z</time></trkpt><trkpt lat="44.33024383485026" lon="10.838276313566471"><ele>690.0</ele><time>2026-04-19T13:25:16.999Z</time></trkpt><trkpt lat="44.33029389449281" lon="10.838451123014433"><ele>690.0</ele><time>2026-04-19T13:25:17.999Z</time></trkpt><trkpt lat="44.33035904089758" lon="10.838615179946979"><ele>690.0</ele><time>2026-04-19T13:25:18.999Z</time></trkpt><trkpt lat="44.33039840973061" lon="10.838756049136558"><ele>690.0</ele><time>2026-04-19T13:25:19.999Z</time></trkpt><trkpt lat="44.33043270577757" lon="10.83892328783278"><ele>690.0</ele><time>2026-04-19T13:25:20.999Z</time></trkpt><trkpt lat="44.33047064121938" lon="10.839079941601256"><ele>690.0</ele><time>2026-04-19T13:25:21.999Z</time></trkpt><trkpt lat="44.330518468909865" lon="10.83923621668605"><ele>690.0</ele><time>2026-04-19T13:25:22.999Z</time></trkpt><trkpt lat="44.33052762414211" lon="10.839407891441274"><ele>690.0</ele><time>2026-04-19T13:25:23.999Z</time></trkpt><trkpt lat="44.33056598998736" lon="10.839589648241146"><ele>693.0</ele><time>2026-04-19T13:25:24.999Z</time></trkpt><trkpt lat="44.330575737364946" lon="10.839774763609121"><ele>696.0</ele><time>2026-04-19T13:25:25.999Z</time></trkpt><trkpt lat="44.3305857541967" lon="10.839935018955956"><ele>699.0</ele><time>2026-04-19T13:25:26.999Z</time></trkpt><trkpt lat="44.33059711896539" lon="10.840072397734572"><ele>702.0</ele><time>2026-04-19T13:25:27.999Z</time></trkpt><trkpt lat="44.33060399020932" lon="10.840193280370285"><ele>705.0</ele><time>2026-04-19T13:25:28.999Z</time></trkpt><trkpt lat="44.33061203487523" lon="10.840302759216025"><ele>705.0</ele><time>2026-04-19T13:25:29.999Z</time></trkpt><trkpt lat="44.33061461305433" lon="10.840412521068805"><ele>705.0</ele><time>2026-04-19T13:25:30.999Z</time></trkpt><trkpt lat="44.330588587051345" lon="10.840500078941725"><ele>705.0</ele><time>2026-04-19T13:25:31.999Z</time></trkpt><trkpt lat="44.33047447768075" lon="10.840573778083247"><ele>705.0</ele><time>2026-04-19T13:25:33.999Z</time></trkpt><trkpt lat="44.330401905465365" lon="10.84059538612467"><ele>705.0</ele><time>2026-04-19T13:25:34.999Z</time></trkpt><trkpt lat="44.330332207391145" lon="10.840601579318037"><ele>705.0</ele><time>2026-04-19T13:25:35.999Z</time></trkpt><trkpt lat="44.330267881686105" lon="10.840621411174373"><ele>703.1666666666666</ele><time>2026-04-19T13:25:36.999Z</time></trkpt><trkpt lat="44.33019903232902" lon="10.840654351404199"><ele>701.3333333333334</ele><time>2026-04-19T13:25:37.999Z</time></trkpt><trkpt lat="44.33011147028086" lon="10.840655028121608"><ele>699.5</ele><time>2026-04-19T13:25:38.999Z</time></trkpt><trkpt lat="44.33001179749267" lon="10.840637089586094"><ele>697.6666666666667</ele><time>2026-04-19T13:25:39.999Z</time></trkpt><trkpt lat="44.329924449714966" lon="10.840592467473746"><ele>695.8333333333334</ele><time>2026-04-19T13:25:40.999Z</time></trkpt><trkpt lat="44.32984008456507" lon="10.84054792363144"><ele>694.0</ele><time>2026-04-19T13:25:41.999Z</time></trkpt><trkpt lat="44.329759393997435" lon="10.840484303022366"><ele>693.1666666666667</ele><time>2026-04-19T13:25:42.999Z</time></trkpt><trkpt lat="44.32968204500035" lon="10.840435180497083"><ele>692.3333333333334</ele><time>2026-04-19T13:25:43.999Z</time></trkpt><trkpt lat="44.32958729907192" lon="10.840400952292082"><ele>691.5</ele><time>2026-04-19T13:25:44.999Z</time></trkpt><trkpt lat="44.32951169378484" lon="10.84034165047241"><ele>690.6666666666666</ele><time>2026-04-19T13:25:45.999Z</time></trkpt><trkpt lat="44.32944343206653" lon="10.84030363032454"><ele>689.8333333333333</ele><time>2026-04-19T13:25:46.999Z</time></trkpt><trkpt lat="44.329366457790705" lon="10.840266465126863"><ele>689.0</ele><time>2026-04-19T13:25:47.999Z</time></trkpt><trkpt lat="44.32928940389352" lon="10.840225947596771"><ele>689.0</ele><time>2026-04-19T13:25:48.999Z</time></trkpt><trkpt lat="44.32921119189215" lon="10.840179104288783"><ele>689.0</ele><time>2026-04-19T13:25:49.999Z</time></trkpt><trkpt lat="44.32911390638128" lon="10.840142205414026"><ele>689.0</ele><time>2026-04-19T13:25:50.999Z</time></trkpt><trkpt lat="44.329035299443085" lon="10.840098739044977"><ele>689.0</ele><time>2026-04-19T13:25:51.999Z</time></trkpt><trkpt lat="44.328948454237576" lon="10.84008823005178"><ele>689.0</ele><time>2026-04-19T13:25:52.999Z</time></trkpt><trkpt lat="44.328854836507055" lon="10.840079311723928"><ele>689.0</ele><time>2026-04-19T13:25:54.999Z</time></trkpt><trkpt lat="44.32893649424861" lon="10.840073094456026"><ele>689.0</ele><time>2026-04-19T13:26:00.999Z</time></trkpt><trkpt lat="44.32901084275511" lon="10.840126591710094"><ele>689.0</ele><time>2026-04-19T13:26:01.999Z</time></trkpt><trkpt lat="44.32912873103426" lon="10.84016541157124"><ele>689.0</ele><time>2026-04-19T13:26:02.999Z</time></trkpt><trkpt lat="44.32927221990125" lon="10.840221722100823"><ele>689.0</ele><time>2026-04-19T13:26:03.999Z</time></trkpt><trkpt lat="44.329415838787234" lon="10.84030036237128"><ele>689.0</ele><time>2026-04-19T13:26:04.999Z</time></trkpt><trkpt lat="44.32957484214186" lon="10.840405379621176"><ele>689.0</ele><time>2026-04-19T13:26:05.999Z</time></trkpt><trkpt lat="44.32973975399995" lon="10.84051370419108"><ele>689.0</ele><time>2026-04-19T13:26:06.999Z</time></trkpt><trkpt lat="44.329874147129495" lon="10.840590703042396"><ele>690.25</ele><time>2026-04-19T13:26:07.999Z</time></trkpt><trkpt lat="44.32999573822628" lon="10.840646593232961"><ele>691.5</ele><time>2026-04-19T13:26:08.999Z</time></trkpt><trkpt lat="44.33011950774055" lon="10.840699835736185"><ele>692.75</ele><time>2026-04-19T13:26:09.999Z</time></trkpt><trkpt lat="44.33024361710181" lon="10.840666874992195"><ele>694.0</ele><time>2026-04-19T13:26:11Z</time></trkpt><trkpt lat="44.330345739358215" lon="10.840637117041128"><ele>694.0</ele><time>2026-04-19T13:26:12Z</time></trkpt><trkpt lat="44.330412439881485" lon="10.840605408180508"><ele>694.0</ele><time>2026-04-19T13:26:13Z</time></trkpt><trkpt lat="44.330497218797454" lon="10.84058967642355"><ele>694.0</ele><time>2026-04-19T13:26:15Z</time></trkpt><trkpt lat="44.33048965309302" lon="10.840246050295605"><ele>694.0</ele><time>2026-04-19T13:26:17Z</time></trkpt><trkpt lat="44.33046989580656" lon="10.84004910621704"><ele>693.3333333333334</ele><time>2026-04-19T13:26:18Z</time></trkpt><trkpt lat="44.33044921151502" lon="10.839896723552211"><ele>692.6666666666667</ele><time>2026-04-19T13:26:19Z</time></trkpt><trkpt lat="44.330440808214234" lon="10.839767629828968"><ele>692.0</ele><time>2026-04-19T13:26:20Z</time></trkpt><trkpt lat="44.330440563919794" lon="10.839652997149448"><ele>691.3333333333334</ele><time>2026-04-19T13:26:21Z</time></trkpt><trkpt lat="44.33044405320191" lon="10.839544235540846"><ele>690.6666666666666</ele><time>2026-04-19T13:26:22Z</time></trkpt><trkpt lat="44.330450408956196" lon="10.839442722996818"><ele>690.0</ele><time>2026-04-19T13:26:23Z</time></trkpt><trkpt lat="44.33045750156583" lon="10.839353072401991"><ele>690.0</ele><time>2026-04-19T13:26:24Z</time></trkpt><trkpt lat="44.33045432152739" lon="10.839201074102993"><ele>690.0</ele><time>2026-04-19T13:26:26Z</time></trkpt><trkpt lat="44.33051174727229" lon="10.839109860338583"><ele>690.0</ele><time>2026-04-19T13:26:27Z</time></trkpt><trkpt lat="44.33049893370541" lon="10.838984908189788"><ele>690.0</ele><time>2026-04-19T13:26:31Z</time></trkpt><trkpt lat="44.33050219511434" lon="10.839065040983913"><ele>690.0</ele><time>2026-04-19T13:34:29.998Z</time></trkpt><trkpt lat="44.3305356150713" lon="10.839231586825878"><ele>690.0</ele><time>2026-04-19T13:34:31.998Z</time></trkpt><trkpt lat="44.33037930903389" lon="10.839320572641679"><ele>690.0</ele><time>2026-04-19T13:34:32.998Z</time></trkpt><trkpt lat="44.330323266390536" lon="10.839444572203702"><ele>690.0</ele><time>2026-04-19T13:34:34Z</time></trkpt><trkpt lat="44.330261886330504" lon="10.839587883144542"><ele>690.0</ele><time>2026-04-19T13:34:35Z</time></trkpt><trkpt lat="44.33020655577366" lon="10.839717070118558"><ele>690.0</ele><time>2026-04-19T13:34:36Z</time></trkpt><trkpt lat="44.33017323483306" lon="10.839818392647148"><ele>690.0</ele><time>2026-04-19T13:34:37Z</time></trkpt><trkpt lat="44.33013265540413" lon="10.83997983971516"><ele>690.0</ele><time>2026-04-19T13:34:39Z</time></trkpt><trkpt lat="44.33012367402519" lon="10.839873719231894"><ele>690.0</ele><time>2026-04-19T13:34:44Z</time></trkpt><trkpt lat="44.3300404691924" lon="10.839900019664395"><ele>690.0</ele><time>2026-04-19T13:34:46Z</time></trkpt><trkpt lat="44.32985264518297" lon="10.839797851447386"><ele>690.0</ele><time>2026-04-19T13:34:50Z</time></trkpt><trkpt lat="44.329731077419844" lon="10.839733163310543"><ele>690.0</ele><time>2026-04-19T13:34:51Z</time></trkpt><trkpt lat="44.32962224393513" lon="10.839675251248357"><ele>690.0</ele><time>2026-04-19T13:34:51.999Z</time></trkpt><trkpt lat="44.32951345140508" lon="10.839617804648757"><ele>690.0</ele><time>2026-04-19T13:34:52.999Z</time></trkpt><trkpt lat="44.32941479917742" lon="10.839567247165231"><ele>689.0</ele><time>2026-04-19T13:34:53.999Z</time></trkpt><trkpt lat="44.32932912945478" lon="10.839523278585085"><ele>688.0</ele><time>2026-04-19T13:34:54.999Z</time></trkpt><trkpt lat="44.32922975752727" lon="10.839469925505464"><ele>687.0</ele><time>2026-04-19T13:34:55.999Z</time></trkpt><trkpt lat="44.32913905793996" lon="10.839420932855564"><ele>686.0</ele><time>2026-04-19T13:34:56.999Z</time></trkpt><trkpt lat="44.32906502656409" lon="10.839382688154064"><ele>685.0</ele><time>2026-04-19T13:34:57.999Z</time></trkpt><trkpt lat="44.32899227840772" lon="10.839345106452978"><ele>685.0</ele><time>2026-04-19T13:34:58.999Z</time></trkpt><trkpt lat="44.32890908752782" lon="10.839302671882535"><ele>685.0</ele><time>2026-04-19T13:34:59.999Z</time></trkpt><trkpt lat="44.32881102272399" lon="10.839252833435674"><ele>685.0</ele><time>2026-04-19T13:35:00.999Z</time></trkpt><trkpt lat="44.32870826788563" lon="10.83920061142274"><ele>685.0</ele><time>2026-04-19T13:35:01.999Z</time></trkpt><trkpt lat="44.32860817577622" lon="10.839199612877534"><ele>685.0</ele><time>2026-04-19T13:35:02.999Z</time></trkpt><trkpt lat="44.32840281372846" lon="10.839810590532247"><ele>684.8</ele><time>2026-04-19T13:35:03.999Z</time></trkpt><trkpt lat="44.32834231903835" lon="10.839741606400468"><ele>684.6</ele><time>2026-04-19T13:35:04.999Z</time></trkpt><trkpt lat="44.32828042804173" lon="10.839678561232104"><ele>684.4000000000001</ele><time>2026-04-19T13:35:05.999Z</time></trkpt><trkpt lat="44.32822566101203" lon="10.839622772881969"><ele>684.2</ele><time>2026-04-19T13:35:06.999Z</time></trkpt><trkpt lat="44.32815696458732" lon="10.839552795375225"><ele>684.0</ele><time>2026-04-19T13:35:08.999Z</time></trkpt><trkpt lat="44.32787313874514" lon="10.839971910294695"><ele>683.6</ele><time>2026-04-19T13:35:13.999Z</time></trkpt><trkpt lat="44.32784581518539" lon="10.840078108362114"><ele>683.2</ele><time>2026-04-19T13:35:14.999Z</time></trkpt><trkpt lat="44.327808866536806" lon="10.840218722076349"><ele>682.8000000000001</ele><time>2026-04-19T13:35:15.999Z</time></trkpt><trkpt lat="44.327771844814045" lon="10.840374931472278"><ele>682.4000000000001</ele><time>2026-04-19T13:35:16.999Z</time></trkpt><trkpt lat="44.32773095586129" lon="10.840528100812683"><ele>682.0</ele><time>2026-04-19T13:35:17.999Z</time></trkpt><trkpt lat="44.327686287600585" lon="10.840687842227288"><ele>682.0</ele><time>2026-04-19T13:35:18.999Z</time></trkpt><trkpt lat="44.32765315572432" lon="10.84085484806374"><ele>682.0</ele><time>2026-04-19T13:35:19.999Z</time></trkpt><trkpt lat="44.32762169215958" lon="10.841047357172574"><ele>682.0</ele><time>2026-04-19T13:35:20.999Z</time></trkpt><trkpt lat="44.32759484305542" lon="10.841242188530616"><ele>682.0</ele><time>2026-04-19T13:35:21.999Z</time></trkpt><trkpt lat="44.32756698479139" lon="10.84142414799589"><ele>682.25</ele><time>2026-04-19T13:35:22.999Z</time></trkpt><trkpt lat="44.327545016851" lon="10.841585714423102"><ele>682.5</ele><time>2026-04-19T13:35:23.999Z</time></trkpt><trkpt lat="44.32752015260804" lon="10.84174048203503"><ele>682.75</ele><time>2026-04-19T13:35:24.999Z</time></trkpt><trkpt lat="44.32749573051532" lon="10.841909291067935"><ele>683.0</ele><time>2026-04-19T13:35:25.999Z</time></trkpt><trkpt lat="44.327474933212706" lon="10.842052323471018"><ele>683.0</ele><time>2026-04-19T13:35:26.999Z</time></trkpt><trkpt lat="44.32745160486597" lon="10.8421847551365"><ele>683.0</ele><time>2026-04-19T13:35:27.999Z</time></trkpt><trkpt lat="44.327428385786384" lon="10.842308677697751"><ele>683.0</ele><time>2026-04-19T13:35:28.999Z</time></trkpt><trkpt lat="44.32739691018879" lon="10.842429807112335"><ele>683.0</ele><time>2026-04-19T13:35:29.999Z</time></trkpt><trkpt lat="44.32735664261791" lon="10.842520455835695"><ele>683.0</ele><time>2026-04-19T13:35:30.999Z</time></trkpt><trkpt lat="44.32730558076461" lon="10.842578233468995"><ele>683.0</ele><time>2026-04-19T13:35:31.999Z</time></trkpt><trkpt lat="44.327241381032195" lon="10.842624758609258"><ele>683.0</ele><time>2026-04-19T13:35:32.999Z</time></trkpt><trkpt lat="44.32718363027962" lon="10.84267753304018"><ele>683.0</ele><time>2026-04-19T13:36:03.998Z</time></trkpt><trkpt lat="44.327080549608354" lon="10.842789469181437"><ele>683.0</ele><time>2026-04-19T13:36:05.998Z</time></trkpt><trkpt lat="44.32700674885882" lon="10.842842632438968"><ele>683.0</ele><time>2026-04-19T13:36:06.998Z</time></trkpt><trkpt lat="44.3269095692323" lon="10.842888551996017"><ele>683.0</ele><time>2026-04-19T13:36:08.998Z</time></trkpt><trkpt lat="44.32682394893178" lon="10.842764636115433"><ele>683.0</ele><time>2026-04-19T13:36:10.998Z</time></trkpt><trkpt lat="44.32677212143296" lon="10.842632856454355"><ele>683.0</ele><time>2026-04-19T13:36:11.998Z</time></trkpt><trkpt lat="44.32670356892408" lon="10.842477761067144"><ele>683.0</ele><time>2026-04-19T13:36:12.998Z</time></trkpt><trkpt lat="44.32664468010859" lon="10.842342620707853"><ele>683.0</ele><time>2026-04-19T13:36:13.998Z</time></trkpt><trkpt lat="44.32657778368447" lon="10.842211427547735"><ele>682.75</ele><time>2026-04-19T13:36:14.998Z</time></trkpt><trkpt lat="44.32652430203225" lon="10.842051311531003"><ele>682.5</ele><time>2026-04-19T13:36:15.998Z</time></trkpt><trkpt lat="44.326440867423756" lon="10.841868325529685"><ele>682.25</ele><time>2026-04-19T13:36:16.998Z</time></trkpt><trkpt lat="44.326355930010784" lon="10.841670554458362"><ele>682.0</ele><time>2026-04-19T13:36:17.998Z</time></trkpt><trkpt lat="44.326241302413564" lon="10.841442657663666"><ele>681.5</ele><time>2026-04-19T13:36:18.998Z</time></trkpt><trkpt lat="44.32613236246962" lon="10.84117170027923"><ele>681.0</ele><time>2026-04-19T13:36:19.998Z</time></trkpt><trkpt lat="44.325995513984246" lon="10.840917610990768"><ele>680.6666666666666</ele><time>2026-04-19T13:36:20.998Z</time></trkpt><trkpt lat="44.325865619823105" lon="10.840691474238069"><ele>680.3333333333333</ele><time>2026-04-19T13:36:21.998Z</time></trkpt><trkpt lat="44.325752735170575" lon="10.840495904468256"><ele>680.0</ele><time>2026-04-19T13:36:22.998Z</time></trkpt><trkpt lat="44.32565038556822" lon="10.840307727617452"><ele>680.0</ele><time>2026-04-19T13:36:23.998Z</time></trkpt><trkpt lat="44.325551332531475" lon="10.840144799314418"><ele>680.0</ele><time>2026-04-19T13:36:24.998Z</time></trkpt><trkpt lat="44.32545110526521" lon="10.839974909971328"><ele>680.0</ele><time>2026-04-19T13:36:25.998Z</time></trkpt><trkpt lat="44.32536060811764" lon="10.83980803048521"><ele>679.6666666666666</ele><time>2026-04-19T13:36:26.998Z</time></trkpt><trkpt lat="44.325264070592915" lon="10.839600406686314"><ele>679.3333333333334</ele><time>2026-04-19T13:36:27.998Z</time></trkpt><trkpt lat="44.32515851385117" lon="10.839412777955136"><ele>679.0</ele><time>2026-04-19T13:36:28.998Z</time></trkpt><trkpt lat="44.32504604908988" lon="10.83923597633188"><ele>679.0</ele><time>2026-04-19T13:36:29.998Z</time></trkpt><trkpt lat="44.324947538445514" lon="10.839069000722278"><ele>679.0</ele><time>2026-04-19T13:36:30.998Z</time></trkpt><trkpt lat="44.324851413501946" lon="10.83889500919082"><ele>679.0</ele><time>2026-04-19T13:36:31.998Z</time></trkpt><trkpt lat="44.324762380411066" lon="10.838724876825552"><ele>678.75</ele><time>2026-04-19T13:36:32.998Z</time></trkpt><trkpt lat="44.32467721428373" lon="10.838568988348847"><ele>678.5</ele><time>2026-04-19T13:36:33.998Z</time></trkpt><trkpt lat="44.32458514438647" lon="10.838431695142388"><ele>678.25</ele><time>2026-04-19T13:36:34.998Z</time></trkpt><trkpt lat="44.32450101259751" lon="10.8382980096639"><ele>678.0</ele><time>2026-04-19T13:36:35.998Z</time></trkpt><trkpt lat="44.324439083252" lon="10.838183810916721"><ele>678.0</ele><time>2026-04-19T13:36:36.998Z</time></trkpt><trkpt lat="44.32437991355406" lon="10.83807816104693"><ele>678.0</ele><time>2026-04-19T13:36:37.998Z</time></trkpt><trkpt lat="44.3243372672297" lon="10.837991952151386"><ele>678.0</ele><time>2026-04-19T13:36:38.998Z</time></trkpt><trkpt lat="44.32430448365919" lon="10.837875773292868"><ele>678.0</ele><time>2026-04-19T13:36:39.999Z</time></trkpt><trkpt lat="44.324295735502915" lon="10.837779061626353"><ele>678.0</ele><time>2026-04-19T13:36:40.999Z</time></trkpt><trkpt lat="44.3242121024132" lon="10.837684938291986"><ele>678.0</ele><time>2026-04-19T13:36:42.999Z</time></trkpt><trkpt lat="44.32410464622748" lon="10.837784065887059"><ele>678.0</ele><time>2026-04-19T13:36:44.999Z</time></trkpt><trkpt lat="44.32404467465707" lon="10.837893221491788"><ele>678.0</ele><time>2026-04-19T13:36:45.999Z</time></trkpt><trkpt lat="44.32400681329313" lon="10.837995374148107"><ele>678.0</ele><time>2026-04-19T13:36:46.999Z</time></trkpt><trkpt lat="44.32399760429844" lon="10.838113574598331"><ele>678.0</ele><time>2026-04-19T13:36:47.999Z</time></trkpt><trkpt lat="44.32400222150946" lon="10.838257988500711"><ele>678.0</ele><time>2026-04-19T13:36:48.999Z</time></trkpt><trkpt lat="44.32400660700195" lon="10.838368829629403"><ele>678.0</ele><time>2026-04-19T13:36:49.999Z</time></trkpt><trkpt lat="44.32396576862163" lon="10.838490779507456"><ele>677.2</ele><time>2026-04-19T13:36:51.999Z</time></trkpt><trkpt lat="44.32383794274341" lon="10.838460126614487"><ele>676.4</ele><time>2026-04-19T13:36:53.999Z</time></trkpt><trkpt lat="44.323732514006196" lon="10.838483402297728"><ele>675.6</ele><time>2026-04-19T13:36:54.999Z</time></trkpt><trkpt lat="44.32363022687653" lon="10.838457070275076"><ele>674.8000000000001</ele><time>2026-04-19T13:36:55.999Z</time></trkpt><trkpt lat="44.323548571443" lon="10.83846674423964"><ele>674.0</ele><time>2026-04-19T13:36:56.999Z</time></trkpt><trkpt lat="44.323479447026145" lon="10.83833125492521"><ele>674.0</ele><time>2026-04-19T13:36:58.999Z</time></trkpt><trkpt lat="44.323498507162384" lon="10.838246757185921"><ele>674.0</ele><time>2026-04-19T13:36:59.999Z</time></trkpt><trkpt lat="44.323475773672236" lon="10.838126687633768"><ele>674.0</ele><time>2026-04-19T13:37:01.999Z</time></trkpt><trkpt lat="44.32348670884833" lon="10.83799271297577"><ele>674.0</ele><time>2026-04-19T13:37:04Z</time></trkpt><trkpt lat="44.323559985879214" lon="10.83792690890201"><ele>674.0</ele><time>2026-04-19T13:37:07Z</time></trkpt><trkpt lat="44.32366548165682" lon="10.837899543599097"><ele>674.0</ele><time>2026-04-19T13:39:52Z</time></trkpt><trkpt lat="44.32372229061213" lon="10.837943168706767"><ele>674.0</ele><time>2026-04-19T13:39:53Z</time></trkpt><trkpt lat="44.32379166878399" lon="10.837988336426962"><ele>674.0</ele><time>2026-04-19T13:39:54Z</time></trkpt><trkpt lat="44.32386472686844" lon="10.838000411340584"><ele>674.0</ele><time>2026-04-19T13:39:55Z</time></trkpt><trkpt lat="44.323904560883136" lon="10.838127933750938"><ele>674.0</ele><time>2026-04-19T13:39:57Z</time></trkpt><trkpt lat="44.32389744356516" lon="10.83823944125894"><ele>674.0</ele><time>2026-04-19T13:39:58Z</time></trkpt><trkpt lat="44.323892241642" lon="10.83833535761879"><ele>674.0</ele><time>2026-04-19T13:39:59Z</time></trkpt><trkpt lat="44.3239107315876" lon="10.838459740464208"><ele>674.5</ele><time>2026-04-19T13:40:01Z</time></trkpt><trkpt lat="44.323996231015784" lon="10.838491186209188"><ele>675.0</ele><time>2026-04-19T13:40:03Z</time></trkpt><trkpt lat="44.32405698047639" lon="10.838308682159854"><ele>675.5</ele><time>2026-04-19T13:40:06Z</time></trkpt><trkpt lat="44.32405721444133" lon="10.838206733965722"><ele>676.0</ele><time>2026-04-19T13:40:06.999Z</time></trkpt><trkpt lat="44.324058871626995" lon="10.83811090884062"><ele>676.5</ele><time>2026-04-19T13:40:07.999Z</time></trkpt><trkpt lat="44.32406409261687" lon="10.838021067455983"><ele>677.0</ele><time>2026-04-19T13:40:08.999Z</time></trkpt><trkpt lat="44.32415344644372" lon="10.837898715229853"><ele>677.2</ele><time>2026-04-19T13:40:10.999Z</time></trkpt><trkpt lat="44.32422742964449" lon="10.837878543731044"><ele>677.4000000000001</ele><time>2026-04-19T13:40:11.999Z</time></trkpt><trkpt lat="44.32429868045509" lon="10.837845250697166"><ele>677.5999999999999</ele><time>2026-04-19T13:40:12.999Z</time></trkpt><trkpt lat="44.32434922426901" lon="10.837763922310215"><ele>677.8</ele><time>2026-04-19T13:40:13.999Z</time></trkpt><trkpt lat="44.3243991053026" lon="10.837661849030743"><ele>678.0</ele><time>2026-04-19T13:40:14.999Z</time></trkpt><trkpt lat="44.32454441029827" lon="10.83760893984035"><ele>679.0</ele><time>2026-04-19T13:40:16.999Z</time></trkpt><trkpt lat="44.32465138875746" lon="10.837568381039084"><ele>680.0</ele><time>2026-04-19T13:40:17.999Z</time></trkpt><trkpt lat="44.32477760041217" lon="10.83754302145879"><ele>681.0</ele><time>2026-04-19T13:40:18.999Z</time></trkpt><trkpt lat="44.324916712876586" lon="10.837513932387052"><ele>682.0</ele><time>2026-04-19T13:40:19.999Z</time></trkpt><trkpt lat="44.325044609471924" lon="10.837504424591096"><ele>682.0</ele><time>2026-04-19T13:40:20.999Z</time></trkpt><trkpt lat="44.325168501713655" lon="10.83750995971163"><ele>682.0</ele><time>2026-04-19T13:40:21.999Z</time></trkpt><trkpt lat="44.32528853712132" lon="10.83751907087569"><ele>682.0</ele><time>2026-04-19T13:40:22.999Z</time></trkpt><trkpt lat="44.325402816576315" lon="10.837534743223989"><ele>682.0</ele><time>2026-04-19T13:40:23.999Z</time></trkpt><trkpt lat="44.32551200267701" lon="10.837553314851723"><ele>681.8</ele><time>2026-04-19T13:40:24.999Z</time></trkpt><trkpt lat="44.32562659340486" lon="10.837566379174614"><ele>681.6</ele><time>2026-04-19T13:40:25.999Z</time></trkpt><trkpt lat="44.32572232905157" lon="10.837570407010686"><ele>681.4</ele><time>2026-04-19T13:40:26.999Z</time></trkpt><trkpt lat="44.32581656172849" lon="10.837571632585343"><ele>681.1999999999999</ele><time>2026-04-19T13:40:27.999Z</time></trkpt><trkpt lat="44.32591686902518" lon="10.837562993000093"><ele>681.0</ele><time>2026-04-19T13:40:28.999Z</time></trkpt><trkpt lat="44.32602897531806" lon="10.837540941899771"><ele>681.0</ele><time>2026-04-19T13:40:29.999Z</time></trkpt><trkpt lat="44.326123815434286" lon="10.837513242423974"><ele>681.0</ele><time>2026-04-19T13:40:30.999Z</time></trkpt><trkpt lat="44.32621796915671" lon="10.837480051676213"><ele>681.0</ele><time>2026-04-19T13:40:31.999Z</time></trkpt><trkpt lat="44.32631666920031" lon="10.837442795762248"><ele>681.0</ele><time>2026-04-19T13:40:32.999Z</time></trkpt><trkpt lat="44.32641495167394" lon="10.837400874809811"><ele>681.0</ele><time>2026-04-19T13:40:33.999Z</time></trkpt><trkpt lat="44.32651045143059" lon="10.837362373101167"><ele>680.5</ele><time>2026-04-19T13:40:34.999Z</time></trkpt><trkpt lat="44.32660637757206" lon="10.83732870284787"><ele>680.0</ele><time>2026-04-19T13:40:35.999Z</time></trkpt><trkpt lat="44.32669482621833" lon="10.83730200348828"><ele>679.5</ele><time>2026-04-19T13:40:36.999Z</time></trkpt><trkpt lat="44.32677214217309" lon="10.837283734180996"><ele>679.0</ele><time>2026-04-19T13:40:37.999Z</time></trkpt><trkpt lat="44.32684181952743" lon="10.837269754078973"><ele>678.5</ele><time>2026-04-19T13:40:38.999Z</time></trkpt><trkpt lat="44.326920707817834" lon="10.837253398895955"><ele>678.0</ele><time>2026-04-19T13:40:39.999Z</time></trkpt><trkpt lat="44.32701672731215" lon="10.837229884993022"><ele>678.0</ele><time>2026-04-19T13:40:40.999Z</time></trkpt><trkpt lat="44.32710505263423" lon="10.837214042726755"><ele>678.0</ele><time>2026-04-19T13:40:41.999Z</time></trkpt><trkpt lat="44.32718474093667" lon="10.837205540142852"><ele>678.0</ele><time>2026-04-19T13:40:42.999Z</time></trkpt><trkpt lat="44.32733199327085" lon="10.83718961665007"><ele>678.0</ele><time>2026-04-19T13:40:44.999Z</time></trkpt><trkpt lat="44.32740897251545" lon="10.837175976971722"><ele>678.0</ele><time>2026-04-19T13:40:45.999Z</time></trkpt><trkpt lat="44.32747265463866" lon="10.837163955743614"><ele>678.0</ele><time>2026-04-19T13:40:46.999Z</time></trkpt><trkpt lat="44.32754782115063" lon="10.837151375099033"><ele>678.0</ele><time>2026-04-19T13:40:47.999Z</time></trkpt><trkpt lat="44.32762346229667" lon="10.837152642844694"><ele>678.0</ele><time>2026-04-19T13:40:48.999Z</time></trkpt><trkpt lat="44.32771214853266" lon="10.837139418843018"><ele>678.0</ele><time>2026-04-19T13:40:50.999Z</time></trkpt><trkpt lat="44.32767289969859" lon="10.836856287776603"><ele>678.0</ele><time>2026-04-19T13:40:53Z</time></trkpt><trkpt lat="44.32763592077411" lon="10.836752332158179"><ele>678.75</ele><time>2026-04-19T13:40:54Z</time></trkpt><trkpt lat="44.32760343325369" lon="10.836627178607678"><ele>679.5</ele><time>2026-04-19T13:40:55Z</time></trkpt><trkpt lat="44.32756157949695" lon="10.836496064299789"><ele>680.25</ele><time>2026-04-19T13:40:56Z</time></trkpt><trkpt lat="44.327508556146974" lon="10.836330731189417"><ele>681.0</ele><time>2026-04-19T13:40:57Z</time></trkpt><trkpt lat="44.327448477845394" lon="10.836125949556093"><ele>681.6666666666666</ele><time>2026-04-19T13:40:58Z</time></trkpt><trkpt lat="44.32738115968686" lon="10.835901774955364"><ele>682.3333333333333</ele><time>2026-04-19T13:40:59Z</time></trkpt><trkpt lat="44.32731558537841" lon="10.835684777034265"><ele>683.0</ele><time>2026-04-19T13:41:00Z</time></trkpt><trkpt lat="44.32724040933233" lon="10.835489212434384"><ele>683.75</ele><time>2026-04-19T13:41:01Z</time></trkpt><trkpt lat="44.3271881348809" lon="10.83529073039409"><ele>684.5</ele><time>2026-04-19T13:41:02Z</time></trkpt><trkpt lat="44.32713391744514" lon="10.835127541819435"><ele>685.25</ele><time>2026-04-19T13:41:03Z</time></trkpt><trkpt lat="44.32707808005035" lon="10.834994466377148"><ele>686.0</ele><time>2026-04-19T13:41:04Z</time></trkpt><trkpt lat="44.32703007254892" lon="10.834862409245172"><ele>686.0</ele><time>2026-04-19T13:41:05Z</time></trkpt><trkpt lat="44.326979557676886" lon="10.834712170106101"><ele>686.0</ele><time>2026-04-19T13:41:06Z</time></trkpt><trkpt lat="44.326923295114604" lon="10.834531352297162"><ele>686.0</ele><time>2026-04-19T13:41:07.001Z</time></trkpt><trkpt lat="44.32686299039185" lon="10.834339496836089"><ele>686.0</ele><time>2026-04-19T13:41:08Z</time></trkpt><trkpt lat="44.326795345094354" lon="10.834129117628642"><ele>683.6666666666666</ele><time>2026-04-19T13:41:09Z</time></trkpt><trkpt lat="44.326728692002966" lon="10.833928606147257"><ele>681.3333333333334</ele><time>2026-04-19T13:41:10Z</time></trkpt><trkpt lat="44.32665846355687" lon="10.833727632473423"><ele>679.0</ele><time>2026-04-19T13:41:11Z</time></trkpt><trkpt lat="44.32658327974618" lon="10.833491045733341"><ele>678.3333333333334</ele><time>2026-04-19T13:41:12Z</time></trkpt><trkpt lat="44.32650294152119" lon="10.833249329629602"><ele>677.6666666666666</ele><time>2026-04-19T13:41:13Z</time></trkpt><trkpt lat="44.32642852794021" lon="10.833021586098186"><ele>677.0</ele><time>2026-04-19T13:41:14Z</time></trkpt><trkpt lat="44.32636104083511" lon="10.832819700451632"><ele>677.3333333333333</ele><time>2026-04-19T13:41:15Z</time></trkpt><trkpt lat="44.32630383039603" lon="10.832630513179593"><ele>677.6666666666666</ele><time>2026-04-19T13:41:16Z</time></trkpt><trkpt lat="44.32624789210091" lon="10.832427058284432"><ele>678.0</ele><time>2026-04-19T13:41:17Z</time></trkpt><trkpt lat="44.326195492206445" lon="10.83220636424057"><ele>678.0</ele><time>2026-04-19T13:41:18Z</time></trkpt><trkpt lat="44.326139256912015" lon="10.831977224955923"><ele>678.0</ele><time>2026-04-19T13:41:19Z</time></trkpt><trkpt lat="44.32609539575214" lon="10.831770568139506"><ele>678.0</ele><time>2026-04-19T13:41:20Z</time></trkpt><trkpt lat="44.32606165872952" lon="10.831579786959468"><ele>678.25</ele><time>2026-04-19T13:41:21Z</time></trkpt><trkpt lat="44.32605080267745" lon="10.831371449095544"><ele>678.5</ele><time>2026-04-19T13:41:22Z</time></trkpt><trkpt lat="44.32606890010193" lon="10.831182979579417"><ele>678.75</ele><time>2026-04-19T13:41:23Z</time></trkpt><trkpt lat="44.32610670301825" lon="10.830986068910391"><ele>679.0</ele><time>2026-04-19T13:41:24Z</time></trkpt><trkpt lat="44.32614513129452" lon="10.830800887063239"><ele>680.0</ele><time>2026-04-19T13:41:25Z</time></trkpt><trkpt lat="44.32617618091234" lon="10.830602247736081"><ele>681.0</ele><time>2026-04-19T13:41:26Z</time></trkpt><trkpt lat="44.32617468759684" lon="10.830414343497358"><ele>682.0</ele><time>2026-04-19T13:41:27Z</time></trkpt><trkpt lat="44.32615270401793" lon="10.830201714453564"><ele>683.0</ele><time>2026-04-19T13:41:28Z</time></trkpt><trkpt lat="44.32611641117404" lon="10.829984043061271"><ele>683.3333333333333</ele><time>2026-04-19T13:41:29Z</time></trkpt><trkpt lat="44.326073333428546" lon="10.829744553026504"><ele>683.6666666666666</ele><time>2026-04-19T13:41:30Z</time></trkpt><trkpt lat="44.32601284333333" lon="10.829518270788144"><ele>684.0</ele><time>2026-04-19T13:41:31Z</time></trkpt><trkpt lat="44.325938198322156" lon="10.829319693241562"><ele>685.6666666666666</ele><time>2026-04-19T13:41:32Z</time></trkpt><trkpt lat="44.32584454098902" lon="10.829124478234583"><ele>687.3333333333333</ele><time>2026-04-19T13:41:33Z</time></trkpt><trkpt lat="44.32575229214328" lon="10.82894902917273"><ele>689.0</ele><time>2026-04-19T13:41:34Z</time></trkpt><trkpt lat="44.325667862995275" lon="10.828737616865226"><ele>689.0</ele><time>2026-04-19T13:41:35Z</time></trkpt><trkpt lat="44.325605747365856" lon="10.828539079632044"><ele>689.0</ele><time>2026-04-19T13:41:36Z</time></trkpt><trkpt lat="44.3255532821132" lon="10.828325753826803"><ele>689.0</ele><time>2026-04-19T13:41:37Z</time></trkpt><trkpt lat="44.32548490042869" lon="10.828089701806059"><ele>688.3333333333333</ele><time>2026-04-19T13:41:38Z</time></trkpt><trkpt lat="44.325416446462015" lon="10.82783589551994"><ele>687.6666666666666</ele><time>2026-04-19T13:41:39Z</time></trkpt><trkpt lat="44.32534553326095" lon="10.827584480342924"><ele>687.0</ele><time>2026-04-19T13:41:40Z</time></trkpt><trkpt lat="44.32527040779573" lon="10.827318912975361"><ele>690.3333333333334</ele><time>2026-04-19T13:41:41Z</time></trkpt><trkpt lat="44.32519647023833" lon="10.827074484110517"><ele>693.6666666666667</ele><time>2026-04-19T13:41:42Z</time></trkpt><trkpt lat="44.32512776627173" lon="10.826842762554897"><ele>697.0</ele><time>2026-04-19T13:41:43Z</time></trkpt><trkpt lat="44.325056207842614" lon="10.826590202133975"><ele>698.3333333333334</ele><time>2026-04-19T13:41:44Z</time></trkpt><trkpt lat="44.32498725688336" lon="10.826349164213102"><ele>699.6666666666666</ele><time>2026-04-19T13:41:45Z</time></trkpt><trkpt lat="44.32492621629996" lon="10.826134656621495"><ele>701.0</ele><time>2026-04-19T13:41:46Z</time></trkpt><trkpt lat="44.3248668268568" lon="10.825911994784851"><ele>701.75</ele><time>2026-04-19T13:41:47Z</time></trkpt><trkpt lat="44.32481353074725" lon="10.825726649515802"><ele>702.5</ele><time>2026-04-19T13:41:48Z</time></trkpt><trkpt lat="44.324760310955945" lon="10.825522675017849"><ele>703.25</ele><time>2026-04-19T13:41:49Z</time></trkpt><trkpt lat="44.324714633836045" lon="10.825356073738813"><ele>704.0</ele><time>2026-04-19T13:41:50Z</time></trkpt><trkpt lat="44.324666857829136" lon="10.825173867501611"><ele>706.25</ele><time>2026-04-19T13:41:51Z</time></trkpt><trkpt lat="44.32463291416986" lon="10.82501099547529"><ele>708.5</ele><time>2026-04-19T13:41:52Z</time></trkpt><trkpt lat="44.32461898016963" lon="10.824864958739699"><ele>710.75</ele><time>2026-04-19T13:41:53Z</time></trkpt><trkpt lat="44.324635916528834" lon="10.824711230054437"><ele>713.0</ele><time>2026-04-19T13:41:54Z</time></trkpt><trkpt lat="44.32469376794855" lon="10.824569177895384"><ele>712.0</ele><time>2026-04-19T13:41:55Z</time></trkpt><trkpt lat="44.32478366606818" lon="10.82443327101859"><ele>711.0</ele><time>2026-04-19T13:41:56Z</time></trkpt><trkpt lat="44.32486854885081" lon="10.8243041319405"><ele>710.0</ele><time>2026-04-19T13:41:57Z</time></trkpt><trkpt lat="44.324910620332844" lon="10.824176918804602"><ele>709.0</ele><time>2026-04-19T13:41:58Z</time></trkpt><trkpt lat="44.324916538138496" lon="10.82403298654643"><ele>711.25</ele><time>2026-04-19T13:41:59Z</time></trkpt><trkpt lat="44.32489371879938" lon="10.823865484475153"><ele>713.5</ele><time>2026-04-19T13:42:00Z</time></trkpt><trkpt lat="44.32486049988007" lon="10.823698255780045"><ele>715.75</ele><time>2026-04-19T13:42:01Z</time></trkpt><trkpt lat="44.3248665925288" lon="10.823534176709288"><ele>718.0</ele><time>2026-04-19T13:42:02Z</time></trkpt><trkpt lat="44.32492297248147" lon="10.823387973333416"><ele>720.75</ele><time>2026-04-19T13:42:03Z</time></trkpt><trkpt lat="44.32500739191205" lon="10.823249867139983"><ele>723.5</ele><time>2026-04-19T13:42:04Z</time></trkpt><trkpt lat="44.325094456497034" lon="10.823128448262182"><ele>726.25</ele><time>2026-04-19T13:42:05Z</time></trkpt><trkpt lat="44.32519642028286" lon="10.823034119093885"><ele>729.0</ele><time>2026-04-19T13:42:06Z</time></trkpt><trkpt lat="44.32530799719504" lon="10.822970238911962"><ele>729.0</ele><time>2026-04-19T13:42:07Z</time></trkpt><trkpt lat="44.32543844159826" lon="10.822905242855603"><ele>729.0</ele><time>2026-04-19T13:42:08Z</time></trkpt><trkpt lat="44.32557035663056" lon="10.822855997931086"><ele>729.0</ele><time>2026-04-19T13:42:09Z</time></trkpt><trkpt lat="44.32570519161117" lon="10.822836759131478"><ele>729.0</ele><time>2026-04-19T13:42:10Z</time></trkpt><trkpt lat="44.325823768617354" lon="10.82282958341282"><ele>727.8333333333334</ele><time>2026-04-19T13:42:11Z</time></trkpt><trkpt lat="44.32592914858913" lon="10.822816099519457"><ele>726.6666666666666</ele><time>2026-04-19T13:42:12Z</time></trkpt><trkpt lat="44.32601778523495" lon="10.82279316046925"><ele>725.5</ele><time>2026-04-19T13:42:13Z</time></trkpt><trkpt lat="44.326085272702535" lon="10.822734608308576"><ele>724.3333333333333</ele><time>2026-04-19T13:42:14Z</time></trkpt><trkpt lat="44.32610732706062" lon="10.822633231178612"><ele>723.1666666666666</ele><time>2026-04-19T13:42:15Z</time></trkpt><trkpt lat="44.326091421556704" lon="10.822538387623425"><ele>722.0</ele><time>2026-04-19T13:42:16Z</time></trkpt><trkpt lat="44.326036078214855" lon="10.822457413077585"><ele>726.2</ele><time>2026-04-19T13:42:17Z</time></trkpt><trkpt lat="44.32595110381675" lon="10.822414413666246"><ele>730.4000000000001</ele><time>2026-04-19T13:42:18Z</time></trkpt><trkpt lat="44.32584614554449" lon="10.822394292874089"><ele>734.5999999999999</ele><time>2026-04-19T13:42:19Z</time></trkpt><trkpt lat="44.3257328181707" lon="10.822378249966363"><ele>738.8</ele><time>2026-04-19T13:42:20Z</time></trkpt><trkpt lat="44.325622890419275" lon="10.822355336117504"><ele>743.0</ele><time>2026-04-19T13:42:21Z</time></trkpt><trkpt lat="44.32551178980179" lon="10.822337477949999"><ele>743.0</ele><time>2026-04-19T13:42:21.999Z</time></trkpt><trkpt lat="44.325410775214415" lon="10.822332992746832"><ele>743.0</ele><time>2026-04-19T13:42:22.999Z</time></trkpt><trkpt lat="44.32530782129725" lon="10.822333023825262"><ele>743.0</ele><time>2026-04-19T13:42:23.999Z</time></trkpt><trkpt lat="44.32521852771533" lon="10.822403323691633"><ele>743.0</ele><time>2026-04-19T13:42:24.999Z</time></trkpt><trkpt lat="44.32512313224025" lon="10.822416109022443"><ele>743.0</ele><time>2026-04-19T13:42:25.999Z</time></trkpt><trkpt lat="44.325028465454984" lon="10.822432699844274"><ele>743.0</ele><time>2026-04-19T13:42:26.999Z</time></trkpt><trkpt lat="44.32495271139388" lon="10.822433971425752"><ele>743.0</ele><time>2026-04-19T13:42:27.999Z</time></trkpt><trkpt lat="44.32487905490541" lon="10.822417053119587"><ele>743.0</ele><time>2026-04-19T13:42:28.999Z</time></trkpt><trkpt lat="44.32481328858468" lon="10.822396534664378"><ele>743.0</ele><time>2026-04-19T13:42:29.999Z</time></trkpt><trkpt lat="44.32474607942958" lon="10.822361525476497"><ele>743.0</ele><time>2026-04-19T13:42:31.999Z</time></trkpt><trkpt lat="44.32480162813898" lon="10.822238822502836"><ele>743.0</ele><time>2026-04-19T13:42:33.999Z</time></trkpt><trkpt lat="44.324859295104226" lon="10.822186363809392"><ele>743.0</ele><time>2026-04-19T13:42:34.999Z</time></trkpt><trkpt lat="44.32492101790953" lon="10.822149593081505"><ele>743.0</ele><time>2026-04-19T13:42:35.999Z</time></trkpt><trkpt lat="44.32499815367957" lon="10.822102303292008"><ele>743.0</ele><time>2026-04-19T13:42:36.999Z</time></trkpt><trkpt lat="44.32506399408133" lon="10.82203844878288"><ele>743.0</ele><time>2026-04-19T13:42:38.999Z</time></trkpt><trkpt lat="44.32497740619367" lon="10.821949392198974"><ele>743.0</ele><time>2026-04-19T13:42:41.999Z</time></trkpt><trkpt lat="44.32489935466022" lon="10.821940585652756"><ele>743.0</ele><time>2026-04-19T13:42:42.999Z</time></trkpt><trkpt lat="44.32482228343212" lon="10.821912350788816"><ele>743.0</ele><time>2026-04-19T13:42:43.999Z</time></trkpt><trkpt lat="44.32475113300508" lon="10.821879472974736"><ele>743.0</ele><time>2026-04-19T13:42:44.999Z</time></trkpt><trkpt lat="44.324692620057945" lon="10.821840255115337"><ele>743.0</ele><time>2026-04-19T13:42:45.999Z</time></trkpt><trkpt lat="44.32462281832912" lon="10.821782314244926"><ele>743.0</ele><time>2026-04-19T13:42:46.999Z</time></trkpt><trkpt lat="44.32453110724469" lon="10.821706361333323"><ele>743.0</ele><time>2026-04-19T13:42:47.999Z</time></trkpt><trkpt lat="44.324437318587684" lon="10.821634734519085"><ele>743.0</ele><time>2026-04-19T13:42:48.999Z</time></trkpt><trkpt lat="44.32435577290704" lon="10.821573269145958"><ele>747.5999999999999</ele><time>2026-04-19T13:42:49.999Z</time></trkpt><trkpt lat="44.32426339253413" lon="10.821510588440134"><ele>752.1999999999999</ele><time>2026-04-19T13:42:50.999Z</time></trkpt><trkpt lat="44.32417523806043" lon="10.821454461776483"><ele>756.8</ele><time>2026-04-19T13:42:51.999Z</time></trkpt><trkpt lat="44.32409906434256" lon="10.821392600829567"><ele>761.4</ele><time>2026-04-19T13:42:52.999Z</time></trkpt><trkpt lat="44.32401963106172" lon="10.821326826136236"><ele>766.0</ele><time>2026-04-19T13:42:53.999Z</time></trkpt><trkpt lat="44.323932441062745" lon="10.821253044106466"><ele>767.0</ele><time>2026-04-19T13:42:54.999Z</time></trkpt><trkpt lat="44.32387975447653" lon="10.821186797063953"><ele>768.0</ele><time>2026-04-19T13:42:55.999Z</time></trkpt><trkpt lat="44.32381450823897" lon="10.821106723513621"><ele>769.0</ele><time>2026-04-19T13:42:56.999Z</time></trkpt><trkpt lat="44.323764541957615" lon="10.821047596141604"><ele>770.0</ele><time>2026-04-19T13:42:58Z</time></trkpt><trkpt lat="44.32370721179062" lon="10.820979977325955"><ele>770.9999999999999</ele><time>2026-04-19T13:43:00Z</time></trkpt><trkpt lat="44.32363310004299" lon="10.820912066467681"><ele>772.0</ele><time>2026-04-19T13:43:22Z</time></trkpt><trkpt lat="44.323543955118964" lon="10.820792974664036"><ele>775.5</ele><time>2026-04-19T13:43:24Z</time></trkpt><trkpt lat="44.32348079863089" lon="10.82071731209318"><ele>779.0</ele><time>2026-04-19T13:43:25Z</time></trkpt><trkpt lat="44.32339260309805" lon="10.820629867726687"><ele>782.5</ele><time>2026-04-19T13:43:26Z</time></trkpt><trkpt lat="44.323293310029875" lon="10.820510276619682"><ele>786.0</ele><time>2026-04-19T13:43:27Z</time></trkpt><trkpt lat="44.32316329869945" lon="10.820358577022716"><ele>786.0</ele><time>2026-04-19T13:43:28Z</time></trkpt><trkpt lat="44.32311687648648" lon="10.820285277678279"><ele>786.0</ele><time>2026-04-19T13:43:29Z</time></trkpt><trkpt lat="44.32301633917574" lon="10.820143709621167"><ele>786.0</ele><time>2026-04-19T13:43:30Z</time></trkpt><trkpt lat="44.32292822412134" lon="10.820017619353784"><ele>786.0</ele><time>2026-04-19T13:43:31Z</time></trkpt><trkpt lat="44.32289123435218" lon="10.819937447010709"><ele>786.0</ele><time>2026-04-19T13:43:32Z</time></trkpt><trkpt lat="44.32284056956725" lon="10.819798700466"><ele>788.3333333333334</ele><time>2026-04-19T13:43:34Z</time></trkpt><trkpt lat="44.32278577336758" lon="10.819734100608443"><ele>790.6666666666667</ele><time>2026-04-19T13:43:35Z</time></trkpt><trkpt lat="44.32272907746229" lon="10.819650667031004"><ele>793.0</ele><time>2026-04-19T13:43:36Z</time></trkpt><trkpt lat="44.322667838143474" lon="10.819561703330935"><ele>795.3333333333334</ele><time>2026-04-19T13:43:37Z</time></trkpt><trkpt lat="44.32261129118102" lon="10.819470950178149"><ele>797.6666666666667</ele><time>2026-04-19T13:43:38Z</time></trkpt><trkpt lat="44.32255336918937" lon="10.819385754146007"><ele>800.0</ele><time>2026-04-19T13:43:39Z</time></trkpt><trkpt lat="44.32249130270319" lon="10.819333635012955"><ele>803.3333333333334</ele><time>2026-04-19T13:43:40Z</time></trkpt><trkpt lat="44.32243250895485" lon="10.819266594611666"><ele>806.6666666666667</ele><time>2026-04-19T13:43:41Z</time></trkpt><trkpt lat="44.32236610058942" lon="10.819195718225691"><ele>810.0</ele><time>2026-04-19T13:43:42Z</time></trkpt><trkpt lat="44.322314185697834" lon="10.819137461336275"><ele>813.3333333333333</ele><time>2026-04-19T13:43:43Z</time></trkpt><trkpt lat="44.3222508405276" lon="10.819069049456544"><ele>816.6666666666666</ele><time>2026-04-19T13:43:44Z</time></trkpt><trkpt lat="44.32215559013504" lon="10.81894340556782"><ele>820.0</ele><time>2026-04-19T13:43:46Z</time></trkpt><trkpt lat="44.32210968529308" lon="10.81885112383137"><ele>821.1666666666666</ele><time>2026-04-19T13:43:47Z</time></trkpt><trkpt lat="44.32206072922225" lon="10.818770664633016"><ele>822.3333333333333</ele><time>2026-04-19T13:43:48Z</time></trkpt><trkpt lat="44.32201766240982" lon="10.818700914286902"><ele>823.5</ele><time>2026-04-19T13:43:49Z</time></trkpt><trkpt lat="44.32198323824588" lon="10.81861505011467"><ele>824.6666666666667</ele><time>2026-04-19T13:43:50Z</time></trkpt><trkpt lat="44.321913199092045" lon="10.8184704240105"><ele>825.8333333333334</ele><time>2026-04-19T13:43:52Z</time></trkpt><trkpt lat="44.321861570194535" lon="10.818373414722936"><ele>827.0</ele><time>2026-04-19T13:43:53Z</time></trkpt><trkpt lat="44.32181534662367" lon="10.818311897742962"><ele>829.0</ele><time>2026-04-19T13:43:54Z</time></trkpt><trkpt lat="44.32177145601958" lon="10.81824818644662"><ele>831.0</ele><time>2026-04-19T13:43:55Z</time></trkpt><trkpt lat="44.32168305019429" lon="10.818173878704437"><ele>833.0</ele><time>2026-04-19T13:43:57Z</time></trkpt><trkpt lat="44.321601600022355" lon="10.81807977943237"><ele>835.0</ele><time>2026-04-19T13:43:59Z</time></trkpt><trkpt lat="44.32150559904775" lon="10.818000787127447"><ele>837.0</ele><time>2026-04-19T13:44:01Z</time></trkpt><trkpt lat="44.32145250398894" lon="10.817885821300516"><ele>838.4000000000001</ele><time>2026-04-19T13:44:03Z</time></trkpt><trkpt lat="44.32136441938243" lon="10.817773901551305"><ele>839.8000000000001</ele><time>2026-04-19T13:44:05Z</time></trkpt><trkpt lat="44.32126882433485" lon="10.817708508432174"><ele>841.2</ele><time>2026-04-19T13:44:07Z</time></trkpt><trkpt lat="44.321215634257136" lon="10.81763923775404"><ele>842.6</ele><time>2026-04-19T13:44:09Z</time></trkpt><trkpt lat="44.32130430618354" lon="10.817473188034958"><ele>844.0</ele><time>2026-04-19T13:44:12Z</time></trkpt><trkpt lat="44.321255878324564" lon="10.817361505185117"><ele>844.0</ele><time>2026-04-19T13:44:14Z</time></trkpt><trkpt lat="44.321180247266724" lon="10.817247599155055"><ele>844.0</ele><time>2026-04-19T13:44:16Z</time></trkpt><trkpt lat="44.32112797003846" lon="10.81717903984568"><ele>844.0</ele><time>2026-04-19T13:44:17Z</time></trkpt><trkpt lat="44.321042594237106" lon="10.8171423323271"><ele>844.0</ele><time>2026-04-19T13:44:18Z</time></trkpt><trkpt lat="44.32095350335054" lon="10.817101003475726"><ele>844.0</ele><time>2026-04-19T13:44:19Z</time></trkpt><trkpt lat="44.32087551820156" lon="10.817054629755223"><ele>844.0</ele><time>2026-04-19T13:44:20Z</time></trkpt><trkpt lat="44.32080259107177" lon="10.8169899159435"><ele>844.0</ele><time>2026-04-19T13:44:21Z</time></trkpt><trkpt lat="44.320684827378116" lon="10.816954493452295"><ele>844.0</ele><time>2026-04-19T13:44:22Z</time></trkpt><trkpt lat="44.32060101686761" lon="10.816910933830838"><ele>844.0</ele><time>2026-04-19T13:44:23Z</time></trkpt><trkpt lat="44.32052020118123" lon="10.816856843196621"><ele>844.0</ele><time>2026-04-19T13:44:24Z</time></trkpt><trkpt lat="44.320442163415" lon="10.81679993553987"><ele>842.8333333333333</ele><time>2026-04-19T13:44:24.999Z</time></trkpt><trkpt lat="44.32036910721386" lon="10.816746788956735"><ele>841.6666666666666</ele><time>2026-04-19T13:44:25.999Z</time></trkpt><trkpt lat="44.32029785801784" lon="10.816695627854704"><ele>840.5</ele><time>2026-04-19T13:44:26.999Z</time></trkpt><trkpt lat="44.320232238028844" lon="10.816647693263047"><ele>839.3333333333333</ele><time>2026-04-19T13:44:27.999Z</time></trkpt><trkpt lat="44.32016059143196" lon="10.81659343494043"><ele>838.1666666666666</ele><time>2026-04-19T13:44:28.999Z</time></trkpt><trkpt lat="44.320071662843645" lon="10.816523735188342"><ele>837.0</ele><time>2026-04-19T13:44:29.999Z</time></trkpt><trkpt lat="44.31999561324839" lon="10.81646412933545"><ele>837.0</ele><time>2026-04-19T13:44:30.999Z</time></trkpt><trkpt lat="44.31991117410217" lon="10.816397948100589"><ele>837.0</ele><time>2026-04-19T13:44:31.999Z</time></trkpt><trkpt lat="44.31980606395015" lon="10.816312798794762"><ele>837.0</ele><time>2026-04-19T13:44:32.999Z</time></trkpt><trkpt lat="44.3196954602986" lon="10.816223181805961"><ele>837.0</ele><time>2026-04-19T13:44:33.999Z</time></trkpt><trkpt lat="44.31957983321549" lon="10.816131287571947"><ele>834.5</ele><time>2026-04-19T13:44:34.999Z</time></trkpt><trkpt lat="44.31946347116677" lon="10.816046946202196"><ele>832.0</ele><time>2026-04-19T13:44:35.999Z</time></trkpt><trkpt lat="44.319354229736575" lon="10.815981269719357"><ele>829.5</ele><time>2026-04-19T13:44:36.999Z</time></trkpt><trkpt lat="44.31923941187752" lon="10.815927156464463"><ele>827.0</ele><time>2026-04-19T13:44:37.999Z</time></trkpt><trkpt lat="44.3191479525454" lon="10.815887066699453"><ele>827.0</ele><time>2026-04-19T13:44:38.999Z</time></trkpt><trkpt lat="44.31904317888551" lon="10.81584754533618"><ele>827.0</ele><time>2026-04-19T13:44:39.999Z</time></trkpt><trkpt lat="44.31893674071017" lon="10.815832123486778"><ele>827.0</ele><time>2026-04-19T13:44:40.999Z</time></trkpt><trkpt lat="44.31883520119627" lon="10.815802076890606"><ele>827.0</ele><time>2026-04-19T13:44:41.999Z</time></trkpt><trkpt lat="44.31873098412989" lon="10.81578546418926"><ele>827.0</ele><time>2026-04-19T13:44:42.999Z</time></trkpt><trkpt lat="44.31862580731257" lon="10.815757068296522"><ele>827.75</ele><time>2026-04-19T13:44:43.999Z</time></trkpt><trkpt lat="44.318517807294185" lon="10.815749548038227"><ele>828.5</ele><time>2026-04-19T13:44:44.999Z</time></trkpt><trkpt lat="44.31841168112647" lon="10.815725677969912"><ele>829.25</ele><time>2026-04-19T13:44:45.999Z</time></trkpt><trkpt lat="44.31830504982211" lon="10.815682553041675"><ele>830.0</ele><time>2026-04-19T13:44:46.999Z</time></trkpt><trkpt lat="44.31818008710912" lon="10.815621111680265"><ele>831.75</ele><time>2026-04-19T13:44:47.999Z</time></trkpt><trkpt lat="44.31805443940288" lon="10.815561614013033"><ele>833.5</ele><time>2026-04-19T13:44:48.999Z</time></trkpt><trkpt lat="44.31793762430805" lon="10.81550702203599"><ele>835.25</ele><time>2026-04-19T13:44:49.999Z</time></trkpt><trkpt lat="44.31782905243637" lon="10.8154552814159"><ele>837.0</ele><time>2026-04-19T13:44:50.999Z</time></trkpt><trkpt lat="44.31772353582235" lon="10.815401006097648"><ele>837.0</ele><time>2026-04-19T13:44:51.999Z</time></trkpt><trkpt lat="44.31761783797594" lon="10.815346637558463"><ele>837.0</ele><time>2026-04-19T13:44:52.999Z</time></trkpt><trkpt lat="44.31752313315762" lon="10.815303405169725"><ele>837.0</ele><time>2026-04-19T13:44:53.999Z</time></trkpt><trkpt lat="44.31744287284343" lon="10.815271859981022"><ele>837.0</ele><time>2026-04-19T13:44:54.999Z</time></trkpt><trkpt lat="44.31736153246052" lon="10.81525506471777"><ele>837.0</ele><time>2026-04-19T13:44:55.999Z</time></trkpt><trkpt lat="44.31726837702034" lon="10.815253012090643"><ele>838.2</ele><time>2026-04-19T13:44:56.999Z</time></trkpt><trkpt lat="44.31716980718302" lon="10.81525596489658"><ele>839.4000000000001</ele><time>2026-04-19T13:44:57.999Z</time></trkpt><trkpt lat="44.31707049022044" lon="10.81525783015725"><ele>840.5999999999999</ele><time>2026-04-19T13:44:58.999Z</time></trkpt><trkpt lat="44.31696505719999" lon="10.815262413404286"><ele>841.8</ele><time>2026-04-19T13:44:59.999Z</time></trkpt><trkpt lat="44.31686683480194" lon="10.815299566098165"><ele>843.0</ele><time>2026-04-19T13:45:00.999Z</time></trkpt><trkpt lat="44.316773844117776" lon="10.815319824438422"><ele>843.0</ele><time>2026-04-19T13:45:01.999Z</time></trkpt><trkpt lat="44.31667444292289" lon="10.815326328110471"><ele>843.0</ele><time>2026-04-19T13:45:02.999Z</time></trkpt><trkpt lat="44.31656588202132" lon="10.815352747032552"><ele>843.0</ele><time>2026-04-19T13:45:04.001Z</time></trkpt><trkpt lat="44.31643731539045" lon="10.815379032286035"><ele>843.0</ele><time>2026-04-19T13:45:05.001Z</time></trkpt><trkpt lat="44.31631209102831" lon="10.815394320473835"><ele>843.4</ele><time>2026-04-19T13:45:06.001Z</time></trkpt><trkpt lat="44.31619024055792" lon="10.815389942362541"><ele>843.8</ele><time>2026-04-19T13:45:07.001Z</time></trkpt><trkpt lat="44.31607982325282" lon="10.815360747590125"><ele>844.2</ele><time>2026-04-19T13:45:08.001Z</time></trkpt><trkpt lat="44.31597901123214" lon="10.815324035819852"><ele>844.6</ele><time>2026-04-19T13:45:09Z</time></trkpt><trkpt lat="44.31589153058314" lon="10.815278634185367"><ele>845.0</ele><time>2026-04-19T13:45:10.001Z</time></trkpt><trkpt lat="44.31581729301249" lon="10.815214062368874"><ele>841.4</ele><time>2026-04-19T13:45:11.001Z</time></trkpt><trkpt lat="44.315739800390396" lon="10.815126447494452"><ele>837.8</ele><time>2026-04-19T13:45:12Z</time></trkpt><trkpt lat="44.31565629519204" lon="10.815039570768722"><ele>834.2</ele><time>2026-04-19T13:45:13.001Z</time></trkpt><trkpt lat="44.31558303268745" lon="10.81495278268076"><ele>830.6</ele><time>2026-04-19T13:45:14.001Z</time></trkpt><trkpt lat="44.315517904723215" lon="10.814889688495525"><ele>827.0</ele><time>2026-04-19T13:45:15Z</time></trkpt><trkpt lat="44.315429341301794" lon="10.814810843576197"><ele>827.0</ele><time>2026-04-19T13:45:17Z</time></trkpt><trkpt lat="44.3153837295072" lon="10.814718118299238"><ele>827.0</ele><time>2026-04-19T13:45:19Z</time></trkpt><trkpt lat="44.31526843053562" lon="10.81476534697516"><ele>827.0</ele><time>2026-04-19T13:45:21Z</time></trkpt><trkpt lat="44.31519591701281" lon="10.814792070035429"><ele>827.0</ele><time>2026-04-19T13:45:22Z</time></trkpt><trkpt lat="44.31512372312308" lon="10.814805724479132"><ele>827.0</ele><time>2026-04-19T13:45:23Z</time></trkpt><trkpt lat="44.31501706360987" lon="10.814832526768361"><ele>827.0</ele><time>2026-04-19T13:45:25Z</time></trkpt><trkpt lat="44.314918667430256" lon="10.814869471539213"><ele>827.0</ele><time>2026-04-19T13:45:27Z</time></trkpt><trkpt lat="44.31480342100075" lon="10.814927654736008"><ele>827.0</ele><time>2026-04-19T13:45:29Z</time></trkpt><trkpt lat="44.31469563417255" lon="10.815016748502355"><ele>827.0</ele><time>2026-04-19T13:45:31Z</time></trkpt><trkpt lat="44.314627852011675" lon="10.81507969786783"><ele>827.0</ele><time>2026-04-19T13:45:32Z</time></trkpt><trkpt lat="44.31456260084259" lon="10.81509286940433"><ele>828.0000000000001</ele><time>2026-04-19T13:45:33Z</time></trkpt><trkpt lat="44.31449438528464" lon="10.815100276167177"><ele>829.0</ele><time>2026-04-19T13:45:34Z</time></trkpt><trkpt lat="44.314418228335846" lon="10.815117429720546"><ele>830.0</ele><time>2026-04-19T13:45:35Z</time></trkpt><trkpt lat="44.314336124608225" lon="10.815108806468443"><ele>831.0</ele><time>2026-04-19T13:45:36Z</time></trkpt><trkpt lat="44.31422355121588" lon="10.815062314748852"><ele>832.0000000000001</ele><time>2026-04-19T13:45:38Z</time></trkpt><trkpt lat="44.31415765177028" lon="10.815021619149878"><ele>833.0</ele><time>2026-04-19T13:45:39Z</time></trkpt><trkpt lat="44.314092182214864" lon="10.815014488980045"><ele>833.0</ele><time>2026-04-19T13:45:40Z</time></trkpt><trkpt lat="44.313994928825416" lon="10.814985216820986"><ele>833.0</ele><time>2026-04-19T13:45:42Z</time></trkpt><trkpt lat="44.31391456316398" lon="10.814968016398456"><ele>833.0</ele><time>2026-04-19T13:45:44Z</time></trkpt><trkpt lat="44.3138245306927" lon="10.814951915277712"><ele>833.0</ele><time>2026-04-19T13:45:46Z</time></trkpt><trkpt lat="44.31370689584026" lon="10.814936796015688"><ele>833.0</ele><time>2026-04-19T13:45:49Z</time></trkpt><trkpt lat="44.31374118234255" lon="10.814487454651418"><ele>835.4</ele><time>2026-04-19T13:45:51Z</time></trkpt><trkpt lat="44.31368507923227" lon="10.81438847491358"><ele>837.8</ele><time>2026-04-19T13:45:53Z</time></trkpt><trkpt lat="44.31363043443819" lon="10.814331509603145"><ele>840.2</ele><time>2026-04-19T13:45:54Z</time></trkpt><trkpt lat="44.31353531330542" lon="10.814274489945333"><ele>842.6</ele><time>2026-04-19T13:45:56Z</time></trkpt><trkpt lat="44.313445387414724" lon="10.814192446016426"><ele>845.0</ele><time>2026-04-19T13:45:58Z</time></trkpt><trkpt lat="44.313372260236065" lon="10.814088288348811"><ele>840.25</ele><time>2026-04-19T13:46:00Z</time></trkpt><trkpt lat="44.313281296753516" lon="10.813977497786706"><ele>835.5</ele><time>2026-04-19T13:46:02Z</time></trkpt><trkpt lat="44.31318620128687" lon="10.813878245414179"><ele>830.75</ele><time>2026-04-19T13:46:04Z</time></trkpt><trkpt lat="44.31309424611242" lon="10.813808954986396"><ele>826.0</ele><time>2026-04-19T13:46:06Z</time></trkpt><trkpt lat="44.31299352845518" lon="10.813741383374728"><ele>825.9999999999999</ele><time>2026-04-19T13:46:08Z</time></trkpt><trkpt lat="44.312880294374764" lon="10.813658312935807"><ele>826.0</ele><time>2026-04-19T13:46:10Z</time></trkpt><trkpt lat="44.312825529002446" lon="10.81360437158818"><ele>826.0</ele><time>2026-04-19T13:46:11Z</time></trkpt><trkpt lat="44.31273948746912" lon="10.813558842466195"><ele>826.0</ele><time>2026-04-19T13:46:13Z</time></trkpt><trkpt lat="44.31268112075695" lon="10.813508430449966"><ele>825.9999999999999</ele><time>2026-04-19T13:46:15Z</time></trkpt><trkpt lat="44.31261142585834" lon="10.813440490594125"><ele>826.0</ele><time>2026-04-19T13:46:18Z</time></trkpt><trkpt lat="44.312538990430966" lon="10.813347749438705"><ele>822.8333333333333</ele><time>2026-04-19T13:46:21Z</time></trkpt><trkpt lat="44.31248810380229" lon="10.813264759094281"><ele>819.6666666666666</ele><time>2026-04-19T13:46:23Z</time></trkpt><trkpt lat="44.312421401813175" lon="10.813220130731139"><ele>816.5</ele><time>2026-04-19T13:46:26Z</time></trkpt><trkpt lat="44.31231624340721" lon="10.813201700917334"><ele>813.3333333333333</ele><time>2026-04-19T13:46:28Z</time></trkpt><trkpt lat="44.312232947445615" lon="10.813180514713267"><ele>810.1666666666666</ele><time>2026-04-19T13:46:30Z</time></trkpt><trkpt lat="44.31216353789308" lon="10.813162091274155"><ele>807.0</ele><time>2026-04-19T13:46:31.999Z</time></trkpt><trkpt lat="44.31210665565379" lon="10.813097307615203"><ele>807.0</ele><time>2026-04-19T13:46:33.999Z</time></trkpt><trkpt lat="44.312045906198165" lon="10.812991596821785"><ele>807.0</ele><time>2026-04-19T13:46:35.999Z</time></trkpt><trkpt lat="44.31200393034121" lon="10.812904766234613"><ele>807.0</ele><time>2026-04-19T13:46:36.999Z</time></trkpt><trkpt lat="44.31195472189395" lon="10.812846846039204"><ele>807.0</ele><time>2026-04-19T13:46:37.999Z</time></trkpt><trkpt lat="44.31189405533444" lon="10.812795065252573"><ele>807.0</ele><time>2026-04-19T13:46:39.999Z</time></trkpt><trkpt lat="44.31181544930981" lon="10.812763574657938"><ele>807.0</ele><time>2026-04-19T13:46:41.999Z</time></trkpt><trkpt lat="44.31175557567339" lon="10.812677089677852"><ele>801.0</ele><time>2026-04-19T13:46:43.999Z</time></trkpt><trkpt lat="44.31170906576715" lon="10.812585922699109"><ele>795.0</ele><time>2026-04-19T13:46:45.999Z</time></trkpt><trkpt lat="44.31165317227096" lon="10.812505494072301"><ele>789.0</ele><time>2026-04-19T13:46:47.999Z</time></trkpt><trkpt lat="44.311580081466126" lon="10.812368183013746"><ele>783.0</ele><time>2026-04-19T13:46:49.999Z</time></trkpt><trkpt lat="44.31148501890369" lon="10.812223319761907"><ele>777.0</ele><time>2026-04-19T13:46:51.999Z</time></trkpt><trkpt lat="44.3115424429611" lon="10.811939745553232"><ele>777.0</ele><time>2026-04-19T13:46:52.999Z</time></trkpt><trkpt lat="44.31144904019901" lon="10.811845798054653"><ele>777.0</ele><time>2026-04-19T13:46:54.999Z</time></trkpt><trkpt lat="44.31136966953567" lon="10.811765964782587"><ele>777.0</ele><time>2026-04-19T13:46:55.999Z</time></trkpt><trkpt lat="44.311296459721305" lon="10.811702392895661"><ele>777.0</ele><time>2026-04-19T13:46:56.999Z</time></trkpt><trkpt lat="44.31121177869681" lon="10.811648511563986"><ele>777.0</ele><time>2026-04-19T13:46:57.999Z</time></trkpt><trkpt lat="44.31113508101486" lon="10.811607849134429"><ele>773.4000000000001</ele><time>2026-04-19T13:46:58.999Z</time></trkpt><trkpt lat="44.311038855762476" lon="10.811579466460657"><ele>769.8000000000001</ele><time>2026-04-19T13:46:59.999Z</time></trkpt><trkpt lat="44.310967466846286" lon="10.811568155952243"><ele>766.2</ele><time>2026-04-19T13:47:00.999Z</time></trkpt><trkpt lat="44.31087914342457" lon="10.811562923402551"><ele>762.6</ele><time>2026-04-19T13:47:01.999Z</time></trkpt><trkpt lat="44.31079873193527" lon="10.811566556404866"><ele>759.0</ele><time>2026-04-19T13:47:02.999Z</time></trkpt><trkpt lat="44.3106815818605" lon="10.811589206173227"><ele>759.0</ele><time>2026-04-19T13:47:04.999Z</time></trkpt><trkpt lat="44.31061703633472" lon="10.811621209979107"><ele>759.0</ele><time>2026-04-19T13:47:05.999Z</time></trkpt><trkpt lat="44.310558712921846" lon="10.811657200231254"><ele>759.0</ele><time>2026-04-19T13:47:07.999Z</time></trkpt><trkpt lat="44.31048059813833" lon="10.811730190900354"><ele>759.0</ele><time>2026-04-19T13:47:12.001Z</time></trkpt><trkpt lat="44.3104094717287" lon="10.811797754837956"><ele>759.0</ele><time>2026-04-19T13:47:13.001Z</time></trkpt><trkpt lat="44.3103293152061" lon="10.811895340993116"><ele>759.0</ele><time>2026-04-19T13:47:14.001Z</time></trkpt><trkpt lat="44.31021258889102" lon="10.811983697667158"><ele>763.25</ele><time>2026-04-19T13:47:15.001Z</time></trkpt><trkpt lat="44.310062383613264" lon="10.812047012548671"><ele>767.5</ele><time>2026-04-19T13:47:16.001Z</time></trkpt><trkpt lat="44.30991736370995" lon="10.812096504040014"><ele>771.75</ele><time>2026-04-19T13:47:17.001Z</time></trkpt><trkpt lat="44.30977835618606" lon="10.812099715532545"><ele>776.0</ele><time>2026-04-19T13:47:18.001Z</time></trkpt><trkpt lat="44.30964745953706" lon="10.812063553080893"><ele>776.0</ele><time>2026-04-19T13:47:19.001Z</time></trkpt><trkpt lat="44.30951693945541" lon="10.811990380380108"><ele>776.0</ele><time>2026-04-19T13:47:20Z</time></trkpt><trkpt lat="44.30939490529183" lon="10.811916490193147"><ele>776.0</ele><time>2026-04-19T13:47:21.001Z</time></trkpt><trkpt lat="44.30928011257001" lon="10.811823344497268"><ele>776.0</ele><time>2026-04-19T13:47:22.001Z</time></trkpt><trkpt lat="44.30917194336224" lon="10.811738437852101"><ele>772.4</ele><time>2026-04-19T13:47:23Z</time></trkpt><trkpt lat="44.30906434474802" lon="10.81166060199076"><ele>768.8</ele><time>2026-04-19T13:47:24Z</time></trkpt><trkpt lat="44.308970045461386" lon="10.811597187031609"><ele>765.1999999999999</ele><time>2026-04-19T13:47:25Z</time></trkpt><trkpt lat="44.30888480661101" lon="10.811542614178562"><ele>761.5999999999999</ele><time>2026-04-19T13:47:26Z</time></trkpt><trkpt lat="44.308807559013445" lon="10.811502378524347"><ele>758.0</ele><time>2026-04-19T13:47:27Z</time></trkpt><trkpt lat="44.30874227974889" lon="10.811473375643262"><ele>758.0</ele><time>2026-04-19T13:47:28Z</time></trkpt><trkpt lat="44.30864543744588" lon="10.81143982837606"><ele>758.0</ele><time>2026-04-19T13:47:30Z</time></trkpt><trkpt lat="44.30860763904174" lon="10.811310966444434"><ele>758.0</ele><time>2026-04-19T13:47:32Z</time></trkpt><trkpt lat="44.30856484307991" lon="10.81123416779152"><ele>758.0</ele><time>2026-04-19T13:47:33Z</time></trkpt><trkpt lat="44.308498292210416" lon="10.811099347063783"><ele>758.0</ele><time>2026-04-19T13:47:35Z</time></trkpt><trkpt lat="44.308425312300606" lon="10.810971600398952"><ele>757.4</ele><time>2026-04-19T13:47:37Z</time></trkpt><trkpt lat="44.308378813601934" lon="10.810907643585718"><ele>756.8</ele><time>2026-04-19T13:47:39Z</time></trkpt><trkpt lat="44.3084282453945" lon="10.810837258767577"><ele>756.2</ele><time>2026-04-19T13:47:40Z</time></trkpt><trkpt lat="44.308473093740204" lon="10.810688610289208"><ele>755.6</ele><time>2026-04-19T13:47:42Z</time></trkpt><trkpt lat="44.30850544120524" lon="10.810546492768498"><ele>755.0</ele><time>2026-04-19T13:47:44Z</time></trkpt><trkpt lat="44.30848228841114" lon="10.810391813148803"><ele>755.0</ele><time>2026-04-19T13:47:46Z</time></trkpt><trkpt lat="44.30840665734456" lon="10.810329432477916"><ele>755.0</ele><time>2026-04-19T13:47:47Z</time></trkpt><trkpt lat="44.30836436287636" lon="10.810256451114114"><ele>755.0</ele><time>2026-04-19T13:47:48Z</time></trkpt><trkpt lat="44.30830602884593" lon="10.810198727036884"><ele>755.0</ele><time>2026-04-19T13:47:49Z</time></trkpt><trkpt lat="44.308247096723505" lon="10.81015831712785"><ele>755.0</ele><time>2026-04-19T13:47:50Z</time></trkpt><trkpt lat="44.30815251455767" lon="10.810127249205692"><ele>755.0</ele><time>2026-04-19T13:47:52Z</time></trkpt><trkpt lat="44.30804849298691" lon="10.810089268172884"><ele>752.3333333333333</ele><time>2026-04-19T13:47:54Z</time></trkpt><trkpt lat="44.30793881711286" lon="10.810044643816662"><ele>749.6666666666666</ele><time>2026-04-19T13:47:56Z</time></trkpt><trkpt lat="44.30787702541841" lon="10.81001498916037"><ele>747.0</ele><time>2026-04-19T13:47:57Z</time></trkpt><trkpt lat="44.30780183104452" lon="10.809975465420713"><ele>744.3333333333334</ele><time>2026-04-19T13:47:58Z</time></trkpt><trkpt lat="44.30772258177062" lon="10.809929185295642"><ele>741.6666666666667</ele><time>2026-04-19T13:47:59Z</time></trkpt><trkpt lat="44.307639744031334" lon="10.80987917906732"><ele>739.0</ele><time>2026-04-19T13:48:00Z</time></trkpt><trkpt lat="44.30755899970625" lon="10.80983043648658"><ele>739.0</ele><time>2026-04-19T13:48:01Z</time></trkpt><trkpt lat="44.30750013246958" lon="10.809791268708478"><ele>739.0</ele><time>2026-04-19T13:48:02Z</time></trkpt><trkpt lat="44.30743672265726" lon="10.809749405986706"><ele>739.0</ele><time>2026-04-19T13:48:03Z</time></trkpt><trkpt lat="44.30736526765068" lon="10.809702929127786"><ele>739.0</ele><time>2026-04-19T13:48:04Z</time></trkpt><trkpt lat="44.30727740995913" lon="10.809664682150686"><ele>739.0</ele><time>2026-04-19T13:48:05Z</time></trkpt><trkpt lat="44.30719825829708" lon="10.809663259737587"><ele>739.0</ele><time>2026-04-19T13:48:06Z</time></trkpt><trkpt lat="44.30711072434764" lon="10.809658707867884"><ele>740.6</ele><time>2026-04-19T13:48:07Z</time></trkpt><trkpt lat="44.30703602810497" lon="10.809642950356855"><ele>742.2</ele><time>2026-04-19T13:48:08Z</time></trkpt><trkpt lat="44.3069116885587" lon="10.8096354299503"><ele>743.8000000000001</ele><time>2026-04-19T13:48:10Z</time></trkpt><trkpt lat="44.30682987940381" lon="10.809632296700896"><ele>745.4000000000001</ele><time>2026-04-19T13:48:11Z</time></trkpt><trkpt lat="44.30676137819889" lon="10.80960475366519"><ele>747.0</ele><time>2026-04-19T13:48:12Z</time></trkpt><trkpt lat="44.306627088519804" lon="10.809537439858184"><ele>747.0</ele><time>2026-04-19T13:48:14Z</time></trkpt><trkpt lat="44.30654871486217" lon="10.809500294898724"><ele>747.0</ele><time>2026-04-19T13:48:15Z</time></trkpt><trkpt lat="44.30647337632793" lon="10.8094655647879"><ele>747.0</ele><time>2026-04-19T13:48:16Z</time></trkpt><trkpt lat="44.30633139806397" lon="10.809409972302742"><ele>747.0</ele><time>2026-04-19T13:48:18Z</time></trkpt><trkpt lat="44.306247901574366" lon="10.809378915534339"><ele>747.0</ele><time>2026-04-19T13:48:19Z</time></trkpt><trkpt lat="44.3061667044417" lon="10.809347475510672"><ele>741.5</ele><time>2026-04-19T13:48:20Z</time></trkpt><trkpt lat="44.30608905088783" lon="10.809312996272826"><ele>736.0</ele><time>2026-04-19T13:48:21Z</time></trkpt><trkpt lat="44.3059971817741" lon="10.809266128319715"><ele>730.5</ele><time>2026-04-19T13:48:22Z</time></trkpt><trkpt lat="44.305921383372386" lon="10.809224283361077"><ele>725.0</ele><time>2026-04-19T13:48:23Z</time></trkpt><trkpt lat="44.305842389139855" lon="10.809177833937666"><ele>719.5</ele><time>2026-04-19T13:48:24Z</time></trkpt><trkpt lat="44.30577181981949" lon="10.809136195097045"><ele>714.0</ele><time>2026-04-19T13:48:25Z</time></trkpt><trkpt lat="44.3057083480099" lon="10.80909874410779"><ele>714.0</ele><time>2026-04-19T13:48:26Z</time></trkpt><trkpt lat="44.305641925166434" lon="10.80905683560613"><ele>714.0</ele><time>2026-04-19T13:48:27Z</time></trkpt><trkpt lat="44.30551911592616" lon="10.80897222821211"><ele>714.0</ele><time>2026-04-19T13:48:29Z</time></trkpt><trkpt lat="44.305408221269985" lon="10.80890411962179"><ele>714.0</ele><time>2026-04-19T13:48:31Z</time></trkpt><trkpt lat="44.30529058489166" lon="10.808825831845125"><ele>715.4000000000001</ele><time>2026-04-19T13:48:33Z</time></trkpt><trkpt lat="44.30518529081341" lon="10.808785475960018"><ele>716.8</ele><time>2026-04-19T13:48:34.999Z</time></trkpt><trkpt lat="44.305069980607215" lon="10.80877092844057"><ele>718.2</ele><time>2026-04-19T13:48:36.999Z</time></trkpt><trkpt lat="44.30498664988892" lon="10.808770392332328"><ele>719.5999999999999</ele><time>2026-04-19T13:48:38.999Z</time></trkpt><trkpt lat="44.3049158365003" lon="10.80878049835075"><ele>721.0</ele><time>2026-04-19T13:48:39.999Z</time></trkpt><trkpt lat="44.304806855635825" lon="10.808770021937303"><ele>719.6666666666667</ele><time>2026-04-19T13:48:41.999Z</time></trkpt><trkpt lat="44.304743374993244" lon="10.808761050325348"><ele>718.3333333333334</ele><time>2026-04-19T13:48:42.999Z</time></trkpt><trkpt lat="44.30464735779899" lon="10.808741400037947"><ele>717.0</ele><time>2026-04-19T13:48:44.999Z</time></trkpt><trkpt lat="44.30453627710561" lon="10.808727177538444"><ele>715.6666666666666</ele><time>2026-04-19T13:48:46.999Z</time></trkpt><trkpt lat="44.304433457082276" lon="10.80869971111648"><ele>714.3333333333333</ele><time>2026-04-19T13:48:48.999Z</time></trkpt><trkpt lat="44.30436604057215" lon="10.808686175097076"><ele>713.0</ele><time>2026-04-19T13:48:49.999Z</time></trkpt><trkpt lat="44.304298341229" lon="10.808638403787423"><ele>713.0</ele><time>2026-04-19T13:48:50.999Z</time></trkpt><trkpt lat="44.30418542568985" lon="10.808580576895983"><ele>713.0</ele><time>2026-04-19T13:48:52.999Z</time></trkpt><trkpt lat="44.30409498674225" lon="10.808475161668401"><ele>713.0</ele><time>2026-04-19T13:48:54.999Z</time></trkpt><trkpt lat="44.30399307599367" lon="10.80836508630725"><ele>713.0</ele><time>2026-04-19T13:48:56.999Z</time></trkpt><trkpt lat="44.30393551853076" lon="10.808319442598354"><ele>713.0</ele><time>2026-04-19T13:48:57.999Z</time></trkpt><trkpt lat="44.3038400355675" lon="10.80825896358581"><ele>707.5</ele><time>2026-04-19T13:48:58.999Z</time></trkpt><trkpt lat="44.303769276398384" lon="10.808190505443353"><ele>702.0</ele><time>2026-04-19T13:48:59.999Z</time></trkpt><trkpt lat="44.30369167662774" lon="10.80813158749903"><ele>696.5</ele><time>2026-04-19T13:49:00.999Z</time></trkpt><trkpt lat="44.30361123152633" lon="10.808077858369554"><ele>691.0</ele><time>2026-04-19T13:49:01.999Z</time></trkpt><trkpt lat="44.30353577136743" lon="10.808016470740057"><ele>685.5</ele><time>2026-04-19T13:49:02.999Z</time></trkpt><trkpt lat="44.30344781842574" lon="10.80796581568858"><ele>680.0</ele><time>2026-04-19T13:49:03.999Z</time></trkpt><trkpt lat="44.30335696327067" lon="10.807934876247398"><ele>680.0</ele><time>2026-04-19T13:49:04.999Z</time></trkpt><trkpt lat="44.303284205371845" lon="10.807884322565524"><ele>680.0</ele><time>2026-04-19T13:49:05.999Z</time></trkpt><trkpt lat="44.303195949064644" lon="10.807874193799822"><ele>680.0</ele><time>2026-04-19T13:49:06.999Z</time></trkpt><trkpt lat="44.30312886434893" lon="10.807845615042314"><ele>680.0</ele><time>2026-04-19T13:49:07.999Z</time></trkpt><trkpt lat="44.303003593743874" lon="10.807823992886322"><ele>680.0</ele><time>2026-04-19T13:49:09.999Z</time></trkpt><trkpt lat="44.30292359651073" lon="10.807822212606013"><ele>680.0</ele><time>2026-04-19T13:49:10.999Z</time></trkpt><trkpt lat="44.30285166843677" lon="10.807829964842936"><ele>678.2857142857143</ele><time>2026-04-19T13:49:11.999Z</time></trkpt><trkpt lat="44.30278433352429" lon="10.807820205822601"><ele>676.5714285714286</ele><time>2026-04-19T13:49:12.999Z</time></trkpt><trkpt lat="44.30270877808855" lon="10.807805812298287"><ele>674.8571428571429</ele><time>2026-04-19T13:49:13.999Z</time></trkpt><trkpt lat="44.302641679780656" lon="10.807797411231416"><ele>673.1428571428571</ele><time>2026-04-19T13:49:15Z</time></trkpt><trkpt lat="44.302582467578254" lon="10.807756339353345"><ele>671.4285714285714</ele><time>2026-04-19T13:49:16.001Z</time></trkpt><trkpt lat="44.30251510390903" lon="10.807731085276732"><ele>669.7142857142857</ele><time>2026-04-19T13:49:17Z</time></trkpt><trkpt lat="44.3024476018481" lon="10.807712022977295"><ele>668.0</ele><time>2026-04-19T13:49:18.001Z</time></trkpt><trkpt lat="44.30238220367397" lon="10.807698569776463"><ele>668.0</ele><time>2026-04-19T13:49:19.001Z</time></trkpt><trkpt lat="44.302313929099356" lon="10.807691456438409"><ele>668.0</ele><time>2026-04-19T13:49:20Z</time></trkpt><trkpt lat="44.302195806021075" lon="10.807700855125931"><ele>668.0</ele><time>2026-04-19T13:49:22Z</time></trkpt><trkpt lat="44.302127067973444" lon="10.807695961847061"><ele>668.0</ele><time>2026-04-19T13:49:24Z</time></trkpt><trkpt lat="44.302055088822236" lon="10.807720815598719"><ele>668.0</ele><time>2026-04-19T13:49:27Z</time></trkpt><trkpt lat="44.30195851105965" lon="10.807780347856092"><ele>668.0</ele><time>2026-04-19T13:49:34Z</time></trkpt><trkpt lat="44.301847255841274" lon="10.807852298771996"><ele>664.0</ele><time>2026-04-19T13:49:36Z</time></trkpt><trkpt lat="44.301815684244325" lon="10.80802812974374"><ele>660.0</ele><time>2026-04-19T13:49:38Z</time></trkpt><trkpt lat="44.30178198031262" lon="10.808160414341074"><ele>656.0</ele><time>2026-04-19T13:49:39Z</time></trkpt><trkpt lat="44.3017453555003" lon="10.808294261746283"><ele>652.0</ele><time>2026-04-19T13:49:40Z</time></trkpt><trkpt lat="44.30170447251953" lon="10.808426343429634"><ele>648.0</ele><time>2026-04-19T13:49:41Z</time></trkpt><trkpt lat="44.30165441511789" lon="10.80854427763312"><ele>648.0</ele><time>2026-04-19T13:49:42Z</time></trkpt><trkpt lat="44.30159261276414" lon="10.808655757711932"><ele>648.0</ele><time>2026-04-19T13:49:43Z</time></trkpt><trkpt lat="44.301560137482454" lon="10.808779238939069"><ele>648.0</ele><time>2026-04-19T13:49:44Z</time></trkpt><trkpt lat="44.301551791297626" lon="10.808905472472315"><ele>648.0</ele><time>2026-04-19T13:49:45Z</time></trkpt><trkpt lat="44.30157241143202" lon="10.809027986882718"><ele>648.0</ele><time>2026-04-19T13:49:46Z</time></trkpt><trkpt lat="44.30159318705309" lon="10.809145548501547"><ele>648.0</ele><time>2026-04-19T13:49:47Z</time></trkpt><trkpt lat="44.30162586512404" lon="10.809294514659237"><ele>648.0</ele><time>2026-04-19T13:49:48Z</time></trkpt><trkpt lat="44.30164461477677" lon="10.80945327368074"><ele>648.0</ele><time>2026-04-19T13:49:49Z</time></trkpt><trkpt lat="44.301664276519695" lon="10.809585880046452"><ele>648.0</ele><time>2026-04-19T13:49:50Z</time></trkpt><trkpt lat="44.3016773045663" lon="10.809717235989982"><ele>648.0</ele><time>2026-04-19T13:49:51Z</time></trkpt><trkpt lat="44.30168739602062" lon="10.809820253942016"><ele>645.6666666666666</ele><time>2026-04-19T13:49:52Z</time></trkpt><trkpt lat="44.301668028432005" lon="10.809967363539277"><ele>643.3333333333334</ele><time>2026-04-19T13:49:54Z</time></trkpt><trkpt lat="44.301647707197795" lon="10.81005071566052"><ele>641.0</ele><time>2026-04-19T13:49:55Z</time></trkpt><trkpt lat="44.30163414685002" lon="10.810155976293721"><ele>638.6666666666667</ele><time>2026-04-19T13:49:56Z</time></trkpt><trkpt lat="44.30161796391904" lon="10.81026015394719"><ele>636.3333333333334</ele><time>2026-04-19T13:49:57Z</time></trkpt><trkpt lat="44.301600404541766" lon="10.810355197901435"><ele>634.0</ele><time>2026-04-19T13:49:58Z</time></trkpt><trkpt lat="44.301587249390664" lon="10.810447812011233"><ele>633.0</ele><time>2026-04-19T13:49:59Z</time></trkpt><trkpt lat="44.30157684430473" lon="10.810535033424904"><ele>632.0</ele><time>2026-04-19T13:50:00Z</time></trkpt><trkpt lat="44.3015456203991" lon="10.81069255098502"><ele>631.0</ele><time>2026-04-19T13:50:02Z</time></trkpt><trkpt lat="44.30146256519158" lon="10.810764092242316"><ele>630.0</ele><time>2026-04-19T13:50:04Z</time></trkpt><trkpt lat="44.30135763338217" lon="10.810798004921836"><ele>629.0</ele><time>2026-04-19T13:50:06Z</time></trkpt><trkpt lat="44.301283973432746" lon="10.810788568838944"><ele>624.2</ele><time>2026-04-19T13:50:07Z</time></trkpt><trkpt lat="44.30121561970646" lon="10.810789330846712"><ele>619.4</ele><time>2026-04-19T13:50:08Z</time></trkpt><trkpt lat="44.30109808953776" lon="10.810806512087986"><ele>614.6</ele><time>2026-04-19T13:50:10Z</time></trkpt><trkpt lat="44.300980098887806" lon="10.810769118672518"><ele>609.8</ele><time>2026-04-19T13:50:12Z</time></trkpt><trkpt lat="44.300880538877706" lon="10.810808070643782"><ele>605.0</ele><time>2026-04-19T13:50:14Z</time></trkpt><trkpt lat="44.30078137565659" lon="10.810851359537908"><ele>605.0</ele><time>2026-04-19T13:50:16Z</time></trkpt><trkpt lat="44.30072031059334" lon="10.810882871802637"><ele>605.0</ele><time>2026-04-19T13:50:17Z</time></trkpt><trkpt lat="44.30066530197691" lon="10.81093652358384"><ele>605.0</ele><time>2026-04-19T13:50:18Z</time></trkpt><trkpt lat="44.30060156959701" lon="10.810976439615839"><ele>605.0</ele><time>2026-04-19T13:50:19Z</time></trkpt><trkpt lat="44.300500915137015" lon="10.811042998998525"><ele>605.0</ele><time>2026-04-19T13:50:21Z</time></trkpt><trkpt lat="44.30039511879207" lon="10.811090286516603"><ele>605.0</ele><time>2026-04-19T13:50:23Z</time></trkpt><trkpt lat="44.30031887735772" lon="10.811113888511953"><ele>600.0</ele><time>2026-04-19T13:50:24Z</time></trkpt><trkpt lat="44.30022924140507" lon="10.811176329044223"><ele>595.0</ele><time>2026-04-19T13:50:26Z</time></trkpt><trkpt lat="44.30013572367745" lon="10.81124849870041"><ele>590.0</ele><time>2026-04-19T13:50:28Z</time></trkpt><trkpt lat="44.30004025197637" lon="10.811256796039153"><ele>585.0</ele><time>2026-04-19T13:50:30Z</time></trkpt><trkpt lat="44.29996741144938" lon="10.811249946913534"><ele>580.0</ele><time>2026-04-19T13:50:32Z</time></trkpt><trkpt lat="44.29984898062091" lon="10.81132745871717"><ele>579.4</ele><time>2026-04-19T13:50:34.999Z</time></trkpt><trkpt lat="44.29972352930469" lon="10.811362047346726"><ele>578.8</ele><time>2026-04-19T13:50:36.999Z</time></trkpt><trkpt lat="44.29963183131131" lon="10.811377316893507"><ele>578.2</ele><time>2026-04-19T13:50:37.999Z</time></trkpt><trkpt lat="44.29954371790392" lon="10.811333705301685"><ele>577.6</ele><time>2026-04-19T13:50:38.999Z</time></trkpt><trkpt lat="44.29946191619632" lon="10.811298225249455"><ele>577.0</ele><time>2026-04-19T13:50:39.999Z</time></trkpt><trkpt lat="44.29937402044777" lon="10.811281932031372"><ele>577.0</ele><time>2026-04-19T13:50:40.999Z</time></trkpt><trkpt lat="44.299292685845934" lon="10.811255098970603"><ele>577.0</ele><time>2026-04-19T13:50:41.999Z</time></trkpt><trkpt lat="44.299209737430225" lon="10.811231333166319"><ele>577.0</ele><time>2026-04-19T13:50:42.999Z</time></trkpt><trkpt lat="44.29912433110049" lon="10.811204759815382"><ele>577.0</ele><time>2026-04-19T13:50:43.999Z</time></trkpt><trkpt lat="44.299040670237474" lon="10.811192116021465"><ele>577.0</ele><time>2026-04-19T13:50:44.999Z</time></trkpt><trkpt lat="44.29892005456425" lon="10.811145093793472"><ele>579.5</ele><time>2026-04-19T13:50:45.999Z</time></trkpt><trkpt lat="44.2987680605075" lon="10.8111251024403"><ele>582.0</ele><time>2026-04-19T13:50:46.999Z</time></trkpt><trkpt lat="44.2986332229481" lon="10.81113644710124"><ele>584.5</ele><time>2026-04-19T13:50:47.999Z</time></trkpt><trkpt lat="44.29854252404538" lon="10.811081389978856"><ele>587.0</ele><time>2026-04-19T13:50:48.999Z</time></trkpt><trkpt lat="44.29845503948995" lon="10.811038909480972"><ele>587.0</ele><time>2026-04-19T13:50:49.999Z</time></trkpt><trkpt lat="44.29836806301735" lon="10.811020009643842"><ele>587.0</ele><time>2026-04-19T13:50:50.999Z</time></trkpt><trkpt lat="44.29830221225884" lon="10.8109753724715"><ele>587.0</ele><time>2026-04-19T13:50:51.999Z</time></trkpt><trkpt lat="44.29819190486254" lon="10.810984520317543"><ele>587.0</ele><time>2026-04-19T13:50:53.999Z</time></trkpt><trkpt lat="44.29808851652804" lon="10.811027453604925"><ele>587.0</ele><time>2026-04-19T13:50:55.999Z</time></trkpt><trkpt lat="44.29800191960286" lon="10.811066129953549"><ele>589.4</ele><time>2026-04-19T13:50:56.999Z</time></trkpt><trkpt lat="44.29792722712168" lon="10.81111193493222"><ele>591.8000000000001</ele><time>2026-04-19T13:50:57.999Z</time></trkpt><trkpt lat="44.29785611031823" lon="10.811156678137182"><ele>594.2</ele><time>2026-04-19T13:50:58.999Z</time></trkpt><trkpt lat="44.297735506290614" lon="10.81120536296491"><ele>596.6</ele><time>2026-04-19T13:51:00.999Z</time></trkpt><trkpt lat="44.29768747932753" lon="10.811124664868585"><ele>599.0</ele><time>2026-04-19T13:51:01.999Z</time></trkpt><trkpt lat="44.297567506654225" lon="10.81108999952749"><ele>599.0</ele><time>2026-04-19T13:51:03.999Z</time></trkpt><trkpt lat="44.29750155495875" lon="10.811075965794254"><ele>599.0</ele><time>2026-04-19T13:51:04.999Z</time></trkpt><trkpt lat="44.297384521427865" lon="10.811033060750443"><ele>599.0</ele><time>2026-04-19T13:51:06.999Z</time></trkpt><trkpt lat="44.29727340453617" lon="10.811008114865512"><ele>599.0</ele><time>2026-04-19T13:51:08.999Z</time></trkpt><trkpt lat="44.297205691550886" lon="10.810972260129217"><ele>599.0</ele><time>2026-04-19T13:51:09.999Z</time></trkpt><trkpt lat="44.29713485606648" lon="10.81092254047236"><ele>599.4</ele><time>2026-04-19T13:51:10.999Z</time></trkpt><trkpt lat="44.29699722520164" lon="10.810861744699512"><ele>599.8</ele><time>2026-04-19T13:51:12.999Z</time></trkpt><trkpt lat="44.29690107691671" lon="10.810836952524951"><ele>600.2</ele><time>2026-04-19T13:51:13.999Z</time></trkpt><trkpt lat="44.29681526492575" lon="10.810817780515197"><ele>600.6</ele><time>2026-04-19T13:51:14.999Z</time></trkpt><trkpt lat="44.29674385232537" lon="10.81079068589852"><ele>601.0</ele><time>2026-04-19T13:51:16.999Z</time></trkpt><trkpt lat="44.29672907343643" lon="10.810945936419358"><ele>602.2857142857142</ele><time>2026-04-19T13:51:19.999Z</time></trkpt><trkpt lat="44.296703312264725" lon="10.811040599332658"><ele>603.5714285714287</ele><time>2026-04-19T13:51:22Z</time></trkpt><trkpt lat="44.29669346891033" lon="10.811138069526784"><ele>604.8571428571429</ele><time>2026-04-19T13:51:24Z</time></trkpt><trkpt lat="44.2966850922231" lon="10.81123451244066"><ele>606.1428571428571</ele><time>2026-04-19T13:51:26Z</time></trkpt><trkpt lat="44.29667651301355" lon="10.811331038716434"><ele>607.4285714285713</ele><time>2026-04-19T13:51:27Z</time></trkpt><trkpt lat="44.29666576951943" lon="10.811462151974867"><ele>608.7142857142858</ele><time>2026-04-19T13:51:29Z</time></trkpt><trkpt lat="44.2966579680073" lon="10.811559670782277"><ele>610.0</ele><time>2026-04-19T13:51:30Z</time></trkpt><trkpt lat="44.296660717268345" lon="10.811649529590648"><ele>610.0</ele><time>2026-04-19T13:51:31Z</time></trkpt><trkpt lat="44.2966480945292" lon="10.81176654138122"><ele>610.0</ele><time>2026-04-19T13:51:32Z</time></trkpt><trkpt lat="44.29663341948627" lon="10.811874293313332"><ele>610.0</ele><time>2026-04-19T13:51:33Z</time></trkpt><trkpt lat="44.296623736742134" lon="10.81200016916263"><ele>610.0</ele><time>2026-04-19T13:51:35Z</time></trkpt><trkpt lat="44.29661327665838" lon="10.812136150266292"><ele>610.0</ele><time>2026-04-19T13:51:37Z</time></trkpt><trkpt lat="44.29660469579085" lon="10.812247701646472"><ele>610.0</ele><time>2026-04-19T13:51:38Z</time></trkpt><trkpt lat="44.29659526664552" lon="10.812372105151441"><ele>612.4</ele><time>2026-04-19T13:51:39Z</time></trkpt><trkpt lat="44.29658626869307" lon="10.812492515460418"><ele>614.8</ele><time>2026-04-19T13:51:40Z</time></trkpt><trkpt lat="44.29657779708909" lon="10.812605882072132"><ele>617.2</ele><time>2026-04-19T13:51:41Z</time></trkpt><trkpt lat="44.296567324764595" lon="10.81274602222899"><ele>619.6</ele><time>2026-04-19T13:51:42Z</time></trkpt><trkpt lat="44.2965579696541" lon="10.812871211903403"><ele>622.0</ele><time>2026-04-19T13:51:43Z</time></trkpt><trkpt lat="44.296543304236806" lon="10.813058860029054"><ele>624.6</ele><time>2026-04-19T13:51:45Z</time></trkpt><trkpt lat="44.29653542082043" lon="10.813159346719512"><ele>627.2</ele><time>2026-04-19T13:51:46Z</time></trkpt><trkpt lat="44.29652134193108" lon="10.813294756568258"><ele>629.8</ele><time>2026-04-19T13:51:47Z</time></trkpt><trkpt lat="44.29650318354255" lon="10.81342930330612"><ele>632.4</ele><time>2026-04-19T13:51:48Z</time></trkpt><trkpt lat="44.29647851976342" lon="10.813595885923291"><ele>635.0</ele><time>2026-04-19T13:51:49Z</time></trkpt><trkpt lat="44.29646385973249" lon="10.813722375553033"><ele>637.1666666666666</ele><time>2026-04-19T13:51:50Z</time></trkpt><trkpt lat="44.296457998624476" lon="10.813830060043172"><ele>639.3333333333333</ele><time>2026-04-19T13:51:51Z</time></trkpt><trkpt lat="44.29647511323144" lon="10.813966067142802"><ele>641.5</ele><time>2026-04-19T13:51:52Z</time></trkpt><trkpt lat="44.29648097476983" lon="10.814089717658488"><ele>643.6666666666666</ele><time>2026-04-19T13:51:53Z</time></trkpt><trkpt lat="44.29647352864533" lon="10.814209782123656"><ele>645.8333333333334</ele><time>2026-04-19T13:51:54Z</time></trkpt><trkpt lat="44.296474249161314" lon="10.814319948464068"><ele>648.0</ele><time>2026-04-19T13:51:55Z</time></trkpt><trkpt lat="44.296472663227185" lon="10.81445530388726"><ele>650.6666666666666</ele><time>2026-04-19T13:51:56Z</time></trkpt><trkpt lat="44.29647169716726" lon="10.814552827853035"><ele>653.3333333333334</ele><time>2026-04-19T13:51:57Z</time></trkpt><trkpt lat="44.29645453213949" lon="10.814665062557296"><ele>656.0</ele><time>2026-04-19T13:52:01Z</time></trkpt><trkpt lat="44.296469505453565" lon="10.814774085854147"><ele>658.6666666666667</ele><time>2026-04-19T13:52:04Z</time></trkpt><trkpt lat="44.29642607539703" lon="10.814859290058527"><ele>661.3333333333334</ele><time>2026-04-19T13:52:06Z</time></trkpt><trkpt lat="44.296482323001676" lon="10.814909083686716"><ele>664.0</ele><time>2026-04-19T13:52:09Z</time></trkpt><trkpt lat="44.29654908633832" lon="10.814826587728662"><ele>664.0</ele><time>2026-04-19T13:52:11Z</time></trkpt><trkpt lat="44.29666689980702" lon="10.814803398771911"><ele>664.0</ele><time>2026-04-19T13:52:13Z</time></trkpt><trkpt lat="44.296734040142795" lon="10.814823858976204"><ele>664.0</ele><time>2026-04-19T13:52:14Z</time></trkpt><trkpt lat="44.29682201476613" lon="10.814861161468501"><ele>664.0</ele><time>2026-04-19T13:52:15Z</time></trkpt><trkpt lat="44.29688964576032" lon="10.814885416603046"><ele>664.0</ele><time>2026-04-19T13:52:16Z</time></trkpt><trkpt lat="44.29701226543933" lon="10.814898684570549"><ele>664.0</ele><time>2026-04-19T13:52:18Z</time></trkpt><trkpt lat="44.29710162459714" lon="10.814930496711458"><ele>664.0</ele><time>2026-04-19T13:52:20Z</time></trkpt><trkpt lat="44.29716686911087" lon="10.814946226605485"><ele>664.0</ele><time>2026-04-19T13:52:22Z</time></trkpt><trkpt lat="44.29723471644312" lon="10.814959032407803"><ele>664.0</ele><time>2026-04-19T13:52:24Z</time></trkpt><trkpt lat="44.29729694726568" lon="10.814885856103128"><ele>664.0</ele><time>2026-04-19T13:52:26Z</time></trkpt><trkpt lat="44.29737968179372" lon="10.814756122684024"><ele>664.0</ele><time>2026-04-19T13:52:28Z</time></trkpt><trkpt lat="44.29746159368282" lon="10.814626136058347"><ele>662.8333333333334</ele><time>2026-04-19T13:52:30Z</time></trkpt><trkpt lat="44.29753014041208" lon="10.814543184320911"><ele>661.6666666666667</ele><time>2026-04-19T13:52:32Z</time></trkpt><trkpt lat="44.297642186858745" lon="10.81449841994828"><ele>660.5</ele><time>2026-04-19T13:52:34Z</time></trkpt><trkpt lat="44.297722910676654" lon="10.81450399107061"><ele>659.3333333333334</ele><time>2026-04-19T13:52:36Z</time></trkpt><trkpt lat="44.297811397707314" lon="10.814510339441687"><ele>658.1666666666666</ele><time>2026-04-19T13:52:37.999Z</time></trkpt><trkpt lat="44.2978793207195" lon="10.814518859065332"><ele>657.0</ele><time>2026-04-19T13:52:39.999Z</time></trkpt><trkpt lat="44.2979503225119" lon="10.814584061652488"><ele>657.0</ele><time>2026-04-19T13:52:41.999Z</time></trkpt><trkpt lat="44.29801614831443" lon="10.814682779391775"><ele>657.0</ele><time>2026-04-19T13:52:43.999Z</time></trkpt><trkpt lat="44.298068240181" lon="10.814797154706442"><ele>657.0</ele><time>2026-04-19T13:52:45.999Z</time></trkpt><trkpt lat="44.2981350025415" lon="10.814880019545368"><ele>657.0</ele><time>2026-04-19T13:52:47.999Z</time></trkpt><trkpt lat="44.29820048175869" lon="10.814922710824087"><ele>657.0</ele><time>2026-04-19T13:52:48.999Z</time></trkpt><trkpt lat="44.29828171900089" lon="10.814999154429168"><ele>654.5</ele><time>2026-04-19T13:52:50.999Z</time></trkpt><trkpt lat="44.29834689779557" lon="10.81513582346585"><ele>652.0</ele><time>2026-04-19T13:52:52.999Z</time></trkpt><trkpt lat="44.29837226502688" lon="10.815233795295976"><ele>649.5</ele><time>2026-04-19T13:52:53.999Z</time></trkpt><trkpt lat="44.29841004586763" lon="10.815330990168203"><ele>647.0</ele><time>2026-04-19T13:52:55.999Z</time></trkpt><trkpt lat="44.29846365043195" lon="10.815431302252588"><ele>644.5</ele><time>2026-04-19T13:52:57.999Z</time></trkpt><trkpt lat="44.2985049346467" lon="10.815504594170383"><ele>642.0</ele><time>2026-04-19T13:52:58.999Z</time></trkpt><trkpt lat="44.298580955627074" lon="10.81567600338622"><ele>642.0</ele><time>2026-04-19T13:53:00.999Z</time></trkpt><trkpt lat="44.2986355382785" lon="10.81581189782933"><ele>642.0</ele><time>2026-04-19T13:53:02.999Z</time></trkpt><trkpt lat="44.29867936119117" lon="10.815892004331202"><ele>642.0</ele><time>2026-04-19T13:53:04.999Z</time></trkpt><trkpt lat="44.2987804163512" lon="10.815856744119776"><ele>642.0</ele><time>2026-04-19T13:53:06.999Z</time></trkpt><trkpt lat="44.29884910320653" lon="10.815846941101148"><ele>642.0</ele><time>2026-04-19T13:53:07.999Z</time></trkpt><trkpt lat="44.29897081775945" lon="10.815844147104771"><ele>640.4</ele><time>2026-04-19T13:53:09.999Z</time></trkpt><trkpt lat="44.299079793766616" lon="10.815866648193618"><ele>638.8000000000001</ele><time>2026-04-19T13:53:11.999Z</time></trkpt><trkpt lat="44.29918125712342" lon="10.815893879503346"><ele>637.2</ele><time>2026-04-19T13:53:13.999Z</time></trkpt><trkpt lat="44.29924914756847" lon="10.815938994616138"><ele>635.6</ele><time>2026-04-19T13:53:15.999Z</time></trkpt><trkpt lat="44.299306457788894" lon="10.816052982915467"><ele>634.0</ele><time>2026-04-19T13:53:17.999Z</time></trkpt><trkpt lat="44.29936435107447" lon="10.816189894707584"><ele>634.0</ele><time>2026-04-19T13:53:19.999Z</time></trkpt><trkpt lat="44.29940626871329" lon="10.816326309860308"><ele>634.0</ele><time>2026-04-19T13:53:21.999Z</time></trkpt><trkpt lat="44.29945532028467" lon="10.816447927832597"><ele>634.0</ele><time>2026-04-19T13:53:23.999Z</time></trkpt><trkpt lat="44.29951127396368" lon="10.816563871764188"><ele>634.0</ele><time>2026-04-19T13:53:25.999Z</time></trkpt><trkpt lat="44.29958904006632" lon="10.816649536038252"><ele>634.0</ele><time>2026-04-19T13:53:28Z</time></trkpt><trkpt lat="44.29963100363201" lon="10.816752788533464"><ele>635.0</ele><time>2026-04-19T13:53:30Z</time></trkpt><trkpt lat="44.29967965297577" lon="10.816872488152422"><ele>636.0</ele><time>2026-04-19T13:53:32Z</time></trkpt><trkpt lat="44.299687349999296" lon="10.816977871787252"><ele>637.0</ele><time>2026-04-19T13:53:34Z</time></trkpt><trkpt lat="44.29970443589042" lon="10.817095417326703"><ele>638.0</ele><time>2026-04-19T13:53:36Z</time></trkpt><trkpt lat="44.29972411927505" lon="10.817213376445324"><ele>639.0</ele><time>2026-04-19T13:53:38Z</time></trkpt><trkpt lat="44.299771558051674" lon="10.817339459613507"><ele>640.0</ele><time>2026-04-19T13:53:40Z</time></trkpt><trkpt lat="44.29986316801084" lon="10.817416817272733"><ele>636.8333333333334</ele><time>2026-04-19T13:53:42Z</time></trkpt><trkpt lat="44.29994066142793" lon="10.817485833558575"><ele>633.6666666666667</ele><time>2026-04-19T13:53:44Z</time></trkpt><trkpt lat="44.300001156439386" lon="10.817545922394956"><ele>630.5</ele><time>2026-04-19T13:53:46Z</time></trkpt><trkpt lat="44.30004765219775" lon="10.81764134213749"><ele>627.3333333333334</ele><time>2026-04-19T13:53:49Z</time></trkpt><trkpt lat="44.30010547848138" lon="10.817763152636175"><ele>624.1666666666666</ele><time>2026-04-19T13:53:51Z</time></trkpt><trkpt lat="44.30014925083208" lon="10.817843770400314"><ele>621.0</ele><time>2026-04-19T13:53:53Z</time></trkpt><trkpt lat="44.30004098343547" lon="10.817884523434042"><ele>621.0</ele><time>2026-04-19T13:54:04Z</time></trkpt><trkpt lat="44.299968232472985" lon="10.817859450938721"><ele>621.0</ele><time>2026-04-19T13:54:06Z</time></trkpt><trkpt lat="44.29990236008584" lon="10.817892876747491"><ele>621.0</ele><time>2026-04-19T13:54:07Z</time></trkpt><trkpt lat="44.29979714740747" lon="10.817901639471486"><ele>621.0</ele><time>2026-04-19T13:54:09Z</time></trkpt><trkpt lat="44.299701713958186" lon="10.817890471733874"><ele>621.0</ele><time>2026-04-19T13:54:11Z</time></trkpt><trkpt lat="44.29957963535237" lon="10.8179375091172"><ele>624.8333333333334</ele><time>2026-04-19T13:54:13Z</time></trkpt><trkpt lat="44.29950767958917" lon="10.817971745120296"><ele>628.6666666666666</ele><time>2026-04-19T13:54:14Z</time></trkpt><trkpt lat="44.29944167289901" lon="10.818011607050698"><ele>632.5</ele><time>2026-04-19T13:54:15Z</time></trkpt><trkpt lat="44.299362634378404" lon="10.818008187655838"><ele>636.3333333333333</ele><time>2026-04-19T13:54:18Z</time></trkpt><trkpt lat="44.29926895949238" lon="10.817948218392532"><ele>640.1666666666666</ele><time>2026-04-19T13:54:20Z</time></trkpt><trkpt lat="44.29918009740776" lon="10.817964179367298"><ele>644.0</ele><time>2026-04-19T13:54:22Z</time></trkpt><trkpt lat="44.299113034996736" lon="10.817972670912939"><ele>644.0</ele><time>2026-04-19T13:54:23Z</time></trkpt><trkpt lat="44.29901574385627" lon="10.818003999384308"><ele>644.0</ele><time>2026-04-19T13:54:25Z</time></trkpt><trkpt lat="44.29892539562898" lon="10.817998622393175"><ele>644.0</ele><time>2026-04-19T13:54:28Z</time></trkpt><trkpt lat="44.29879992313254" lon="10.81802313186456"><ele>644.0</ele><time>2026-04-19T13:54:30Z</time></trkpt><trkpt lat="44.29872321235561" lon="10.818008753135572"><ele>644.0</ele><time>2026-04-19T13:54:31Z</time></trkpt><trkpt lat="44.298635205809575" lon="10.817993481994923"><ele>646.8571428571429</ele><time>2026-04-19T13:54:32Z</time></trkpt><trkpt lat="44.298552211256535" lon="10.817994684805274"><ele>649.7142857142858</ele><time>2026-04-19T13:54:33Z</time></trkpt><trkpt lat="44.298480435311994" lon="10.818005674876089"><ele>652.5714285714286</ele><time>2026-04-19T13:54:34Z</time></trkpt><trkpt lat="44.29841787953741" lon="10.818018078486265"><ele>655.4285714285714</ele><time>2026-04-19T13:54:35Z</time></trkpt><trkpt lat="44.298346680578184" lon="10.81802375527678"><ele>658.2857142857143</ele><time>2026-04-19T13:54:36Z</time></trkpt><trkpt lat="44.2982820080181" lon="10.81801314195348"><ele>661.1428571428571</ele><time>2026-04-19T13:54:37Z</time></trkpt><trkpt lat="44.29823143534775" lon="10.81793078266547"><ele>664.0</ele><time>2026-04-19T13:54:39Z</time></trkpt><trkpt lat="44.2981851581124" lon="10.817867456939181"><ele>664.0</ele><time>2026-04-19T13:54:39.999Z</time></trkpt><trkpt lat="44.29810278989152" lon="10.817786925355676"><ele>664.0</ele><time>2026-04-19T13:54:41.999Z</time></trkpt><trkpt lat="44.29804683417516" lon="10.817744984445403"><ele>664.0</ele><time>2026-04-19T13:54:42.999Z</time></trkpt><trkpt lat="44.29794135950288" lon="10.817726865040385"><ele>664.0</ele><time>2026-04-19T13:54:44.999Z</time></trkpt><trkpt lat="44.29784389573571" lon="10.817770044080726"><ele>664.0</ele><time>2026-04-19T13:54:46.999Z</time></trkpt><trkpt lat="44.29776997792642" lon="10.817767856697786"><ele>664.0</ele><time>2026-04-19T13:54:47.999Z</time></trkpt><trkpt lat="44.2977046677951" lon="10.817736458075665"><ele>666.6</ele><time>2026-04-19T13:54:48.999Z</time></trkpt><trkpt lat="44.29764059819601" lon="10.817693628748128"><ele>669.2</ele><time>2026-04-19T13:54:49.999Z</time></trkpt><trkpt lat="44.29751298457022" lon="10.817655494931273"><ele>671.8000000000001</ele><time>2026-04-19T13:54:51.999Z</time></trkpt><trkpt lat="44.29743713838017" lon="10.817652161160398"><ele>674.4000000000001</ele><time>2026-04-19T13:54:52.999Z</time></trkpt><trkpt lat="44.29732430691666" lon="10.817650729328456"><ele>677.0</ele><time>2026-04-19T13:54:53.999Z</time></trkpt><trkpt lat="44.29723914188668" lon="10.817651443012378"><ele>679.6666666666666</ele><time>2026-04-19T13:54:54.999Z</time></trkpt><trkpt lat="44.297172827974286" lon="10.81765053438812"><ele>682.3333333333333</ele><time>2026-04-19T13:54:55.999Z</time></trkpt><trkpt lat="44.2971009418454" lon="10.81765907880782"><ele>685.0</ele><time>2026-04-19T13:54:56.999Z</time></trkpt><trkpt lat="44.29702757643861" lon="10.817662224815674"><ele>687.6666666666666</ele><time>2026-04-19T13:54:57.999Z</time></trkpt><trkpt lat="44.29691877852205" lon="10.817682783723653"><ele>690.3333333333334</ele><time>2026-04-19T13:54:59.999Z</time></trkpt><trkpt lat="44.29684579141455" lon="10.81766904303518"><ele>693.0</ele><time>2026-04-19T13:55:00.999Z</time></trkpt><trkpt lat="44.296751584450355" lon="10.817622150494369"><ele>693.0</ele><time>2026-04-19T13:55:02.999Z</time></trkpt><trkpt lat="44.296680906864964" lon="10.817576435924355"><ele>693.0</ele><time>2026-04-19T13:55:03.999Z</time></trkpt><trkpt lat="44.29660297643308" lon="10.817534196589168"><ele>693.0</ele><time>2026-04-19T13:55:04.999Z</time></trkpt><trkpt lat="44.29653791628729" lon="10.817505223385595"><ele>693.0</ele><time>2026-04-19T13:55:05.999Z</time></trkpt><trkpt lat="44.29641310482664" lon="10.817451871071954"><ele>693.0</ele><time>2026-04-19T13:55:07.999Z</time></trkpt><trkpt lat="44.29634289029076" lon="10.817421689298827"><ele>693.0</ele><time>2026-04-19T13:55:08.999Z</time></trkpt><trkpt lat="44.29626998570417" lon="10.81737357497079"><ele>694.8333333333334</ele><time>2026-04-19T13:55:09.999Z</time></trkpt><trkpt lat="44.2961556918811" lon="10.817298735753319"><ele>696.6666666666666</ele><time>2026-04-19T13:55:11.999Z</time></trkpt><trkpt lat="44.29610008963741" lon="10.817248760039108"><ele>698.5</ele><time>2026-04-19T13:55:12.999Z</time></trkpt><trkpt lat="44.29602525181037" lon="10.817197797109282"><ele>700.3333333333333</ele><time>2026-04-19T13:55:14.999Z</time></trkpt><trkpt lat="44.29598370255106" lon="10.817273567137066"><ele>702.1666666666666</ele><time>2026-04-19T13:55:16.999Z</time></trkpt><trkpt lat="44.29593196999626" lon="10.817382736518642"><ele>704.0</ele><time>2026-04-19T13:55:18.999Z</time></trkpt><trkpt lat="44.295880681676415" lon="10.817535740520546"><ele>705.75</ele><time>2026-04-19T13:55:20.999Z</time></trkpt><trkpt lat="44.29583069515644" lon="10.817656282148558"><ele>707.5</ele><time>2026-04-19T13:55:23.999Z</time></trkpt><trkpt lat="44.29576893337291" lon="10.817800649599539"><ele>709.25</ele><time>2026-04-19T13:55:25.999Z</time></trkpt><trkpt lat="44.29571159393794" lon="10.817929365175436"><ele>711.0</ele><time>2026-04-19T13:55:27.999Z</time></trkpt><trkpt lat="44.29567167552991" lon="10.81809258412896"><ele>711.0</ele><time>2026-04-19T13:55:29.999Z</time></trkpt><trkpt lat="44.29562083107678" lon="10.818189769014728"><ele>711.0</ele><time>2026-04-19T13:55:30.999Z</time></trkpt><trkpt lat="44.2955719956084" lon="10.81824924300743"><ele>711.0</ele><time>2026-04-19T13:55:31.999Z</time></trkpt><trkpt lat="44.295529999891805" lon="10.818315448674403"><ele>711.0</ele><time>2026-04-19T13:55:33Z</time></trkpt><trkpt lat="44.29544003479758" lon="10.81838767494467"><ele>711.0</ele><time>2026-04-19T13:55:35Z</time></trkpt><trkpt lat="44.29537309509926" lon="10.818395916410614"><ele>711.0</ele><time>2026-04-19T13:55:36Z</time></trkpt><trkpt lat="44.29529579370284" lon="10.818413935452659"><ele>711.6666666666666</ele><time>2026-04-19T13:55:37Z</time></trkpt><trkpt lat="44.29518648930278" lon="10.818457547077914"><ele>712.3333333333334</ele><time>2026-04-19T13:55:39Z</time></trkpt><trkpt lat="44.29510534298928" lon="10.81849695189481"><ele>713.0</ele><time>2026-04-19T13:55:40Z</time></trkpt><trkpt lat="44.29504025916079" lon="10.81852613542175"><ele>713.6666666666667</ele><time>2026-04-19T13:55:41Z</time></trkpt><trkpt lat="44.29497067518905" lon="10.818553845257526"><ele>714.3333333333334</ele><time>2026-04-19T13:55:42Z</time></trkpt><trkpt lat="44.29489597111815" lon="10.818603142449856"><ele>715.0</ele><time>2026-04-19T13:55:44Z</time></trkpt><trkpt lat="44.294859569019145" lon="10.818757944235493"><ele>715.0</ele><time>2026-04-19T13:55:46Z</time></trkpt><trkpt lat="44.29485992689701" lon="10.818855385532876"><ele>715.0</ele><time>2026-04-19T13:55:47Z</time></trkpt><trkpt lat="44.294859123460796" lon="10.818985191764249"><ele>715.0</ele><time>2026-04-19T13:55:48Z</time></trkpt><trkpt lat="44.29484942897941" lon="10.819108154819748"><ele>715.0</ele><time>2026-04-19T13:55:49Z</time></trkpt><trkpt lat="44.294830081948845" lon="10.819210520819995"><ele>715.0</ele><time>2026-04-19T13:55:50Z</time></trkpt><trkpt lat="44.29480687192402" lon="10.819303643456113"><ele>715.0</ele><time>2026-04-19T13:55:51Z</time></trkpt><trkpt lat="44.294771472965735" lon="10.819398190850888"><ele>715.0</ele><time>2026-04-19T13:55:52Z</time></trkpt><trkpt lat="44.29475658955712" lon="10.819490259732529"><ele>715.0</ele><time>2026-04-19T13:55:53Z</time></trkpt><trkpt lat="44.29475089025509" lon="10.81961206971841"><ele>715.0</ele><time>2026-04-19T13:55:54Z</time></trkpt><trkpt lat="44.29474239858651" lon="10.819729461884672"><ele>715.0</ele><time>2026-04-19T13:55:55Z</time></trkpt><trkpt lat="44.29471400069501" lon="10.819809143222894"><ele>715.0</ele><time>2026-04-19T13:55:56Z</time></trkpt><trkpt lat="44.29471373349782" lon="10.819959152328263"><ele>715.0</ele><time>2026-04-19T13:55:58Z</time></trkpt><trkpt lat="44.29469994576669" lon="10.8200593036297"><ele>715.1666666666667</ele><time>2026-04-19T13:55:59Z</time></trkpt><trkpt lat="44.29466934248147" lon="10.820173142637591"><ele>715.3333333333334</ele><time>2026-04-19T13:56:00Z</time></trkpt><trkpt lat="44.29464536006888" lon="10.82027565529907"><ele>715.5</ele><time>2026-04-19T13:56:01Z</time></trkpt><trkpt lat="44.29461767939542" lon="10.820398575125017"><ele>715.6666666666666</ele><time>2026-04-19T13:56:02Z</time></trkpt><trkpt lat="44.294592075528776" lon="10.820491888861524"><ele>715.8333333333333</ele><time>2026-04-19T13:56:03Z</time></trkpt><trkpt lat="44.29456683015847" lon="10.820605402665144"><ele>716.0</ele><time>2026-04-19T13:56:04Z</time></trkpt><trkpt lat="44.294525370131716" lon="10.820798653906508"><ele>716.0000000000001</ele><time>2026-04-19T13:56:06Z</time></trkpt><trkpt lat="44.29453335263953" lon="10.820918851391728"><ele>716.0</ele><time>2026-04-19T13:56:07Z</time></trkpt><trkpt lat="44.29455583258873" lon="10.821011827713683"><ele>716.0</ele><time>2026-04-19T13:56:08Z</time></trkpt><trkpt lat="44.29457735281936" lon="10.821097650672888"><ele>716.0</ele><time>2026-04-19T13:56:09Z</time></trkpt><trkpt lat="44.29459185851868" lon="10.821196193529577"><ele>716.0</ele><time>2026-04-19T13:56:10Z</time></trkpt><trkpt lat="44.294596064638775" lon="10.821287077516097"><ele>716.0000000000001</ele><time>2026-04-19T13:56:11Z</time></trkpt><trkpt lat="44.29460395070568" lon="10.82139264646841"><ele>716.0</ele><time>2026-04-19T13:56:12Z</time></trkpt><trkpt lat="44.294569895196446" lon="10.821499500331337"><ele>716.8</ele><time>2026-04-19T13:56:14Z</time></trkpt><trkpt lat="44.29453370670383" lon="10.821599112148155"><ele>717.5999999999999</ele><time>2026-04-19T13:56:15Z</time></trkpt><trkpt lat="44.29451360413676" lon="10.821686412347757"><ele>718.4</ele><time>2026-04-19T13:56:16Z</time></trkpt><trkpt lat="44.2944476309066" lon="10.821850682695606"><ele>719.2</ele><time>2026-04-19T13:56:18Z</time></trkpt><trkpt lat="44.29441203263901" lon="10.821955467064093"><ele>720.0</ele><time>2026-04-19T13:56:19Z</time></trkpt><trkpt lat="44.29437066204146" lon="10.82208821752647"><ele>722.0</ele><time>2026-04-19T13:56:20Z</time></trkpt><trkpt lat="44.294342868714104" lon="10.82218745357245"><ele>724.0</ele><time>2026-04-19T13:56:21Z</time></trkpt><trkpt lat="44.2943172903383" lon="10.822272890973183"><ele>726.0</ele><time>2026-04-19T13:56:22Z</time></trkpt><trkpt lat="44.294280740438765" lon="10.82235476056841"><ele>728.0</ele><time>2026-04-19T13:56:24Z</time></trkpt><trkpt lat="44.29422734465409" lon="10.822527500334505"><ele>730.0</ele><time>2026-04-19T13:56:26Z</time></trkpt><trkpt lat="44.294160049687676" lon="10.822640762030199"><ele>732.4</ele><time>2026-04-19T13:56:27Z</time></trkpt><trkpt lat="44.2940829369375" lon="10.822766091040803"><ele>734.8</ele><time>2026-04-19T13:56:28Z</time></trkpt><trkpt lat="44.2940266633502" lon="10.822890397878108"><ele>737.2</ele><time>2026-04-19T13:56:29Z</time></trkpt><trkpt lat="44.29398063823552" lon="10.822996359766362"><ele>739.6</ele><time>2026-04-19T13:56:30Z</time></trkpt><trkpt lat="44.293954189116704" lon="10.823102918318737"><ele>742.0</ele><time>2026-04-19T13:56:31Z</time></trkpt><trkpt lat="44.29393718345399" lon="10.823209719773455"><ele>742.0</ele><time>2026-04-19T13:56:32Z</time></trkpt><trkpt lat="44.29393245141069" lon="10.823380781990366"><ele>742.0</ele><time>2026-04-19T13:56:34Z</time></trkpt><trkpt lat="44.29393241575855" lon="10.823510700618447"><ele>742.0</ele><time>2026-04-19T13:56:35Z</time></trkpt><trkpt lat="44.2939262622027" lon="10.823638633076389"><ele>742.0</ele><time>2026-04-19T13:56:36Z</time></trkpt><trkpt lat="44.29391120334366" lon="10.823783349381854"><ele>742.0</ele><time>2026-04-19T13:56:37Z</time></trkpt><trkpt lat="44.29390072042246" lon="10.823901471156276"><ele>741.3333333333334</ele><time>2026-04-19T13:56:38Z</time></trkpt><trkpt lat="44.29391374894357" lon="10.824069653265543"><ele>740.6666666666667</ele><time>2026-04-19T13:56:39Z</time></trkpt><trkpt lat="44.29390617863274" lon="10.824177376992616"><ele>740.0</ele><time>2026-04-19T13:56:40Z</time></trkpt><trkpt lat="44.293891646887715" lon="10.824270962401517"><ele>739.3333333333334</ele><time>2026-04-19T13:56:40.999Z</time></trkpt><trkpt lat="44.29386552371816" lon="10.824360870365313"><ele>738.6666666666666</ele><time>2026-04-19T13:56:42.999Z</time></trkpt><trkpt lat="44.29394058292628" lon="10.824411472248087"><ele>738.0</ele><time>2026-04-19T13:56:45.999Z</time></trkpt><trkpt lat="44.293981402699465" lon="10.824513126603783"><ele>741.5</ele><time>2026-04-19T13:56:47.999Z</time></trkpt><trkpt lat="44.29397325894685" lon="10.824623025955002"><ele>745.0</ele><time>2026-04-19T13:56:49.999Z</time></trkpt><trkpt lat="44.29394675721486" lon="10.824731971863747"><ele>748.5</ele><time>2026-04-19T13:56:51.999Z</time></trkpt><trkpt lat="44.293925134188555" lon="10.824834617765799"><ele>752.0</ele><time>2026-04-19T13:56:53.999Z</time></trkpt><trkpt lat="44.29394973373615" lon="10.824929665317919"><ele>755.5</ele><time>2026-04-19T13:56:55.999Z</time></trkpt><trkpt lat="44.29399285391914" lon="10.825017270354465"><ele>759.0</ele><time>2026-04-19T13:56:57.999Z</time></trkpt><trkpt lat="44.29403073081154" lon="10.825097687930326"><ele>760.6666666666666</ele><time>2026-04-19T13:56:59.999Z</time></trkpt><trkpt lat="44.294082359737764" lon="10.825215994574224"><ele>762.3333333333333</ele><time>2026-04-19T13:57:01.999Z</time></trkpt><trkpt lat="44.29410577219144" lon="10.825316048245977"><ele>764.0</ele><time>2026-04-19T13:57:02.999Z</time></trkpt><trkpt lat="44.294123311814566" lon="10.825404889499358"><ele>765.6666666666666</ele><time>2026-04-19T13:57:03.999Z</time></trkpt><trkpt lat="44.29419984216574" lon="10.825480894054323"><ele>767.3333333333333</ele><time>2026-04-19T13:57:05.999Z</time></trkpt><trkpt lat="44.294256196966096" lon="10.825577990913027"><ele>769.0</ele><time>2026-04-19T13:57:07.999Z</time></trkpt><trkpt lat="44.294286774070294" lon="10.825680158221711"><ele>769.0</ele><time>2026-04-19T13:57:11.999Z</time></trkpt><trkpt lat="44.294227021262984" lon="10.825814041705137"><ele>769.0</ele><time>2026-04-19T13:57:13.999Z</time></trkpt><trkpt lat="44.29418486122084" lon="10.825936658598804"><ele>769.0</ele><time>2026-04-19T13:57:15.999Z</time></trkpt><trkpt lat="44.29425213466621" lon="10.825990577330773"><ele>769.0</ele><time>2026-04-19T13:57:20.999Z</time></trkpt><trkpt lat="44.29432728285497" lon="10.82593201805472"><ele>769.0</ele><time>2026-04-19T13:57:21.999Z</time></trkpt><trkpt lat="44.29442225968913" lon="10.825879694057242"><ele>769.0</ele><time>2026-04-19T13:57:22.999Z</time></trkpt><trkpt lat="44.29451708636635" lon="10.82586492896345"><ele>769.0</ele><time>2026-04-19T13:57:23.999Z</time></trkpt><trkpt lat="44.29462400136439" lon="10.82585170427759"><ele>769.0</ele><time>2026-04-19T13:57:24.999Z</time></trkpt><trkpt lat="44.294761972933664" lon="10.825823209304813"><ele>769.0</ele><time>2026-04-19T13:57:25.999Z</time></trkpt><trkpt lat="44.294899469648804" lon="10.825795240817845"><ele>770.4000000000001</ele><time>2026-04-19T13:57:26.999Z</time></trkpt><trkpt lat="44.29500928826506" lon="10.825776675116396"><ele>771.8</ele><time>2026-04-19T13:57:27.999Z</time></trkpt><trkpt lat="44.29510042483913" lon="10.825788295936562"><ele>773.2</ele><time>2026-04-19T13:57:28.999Z</time></trkpt><trkpt lat="44.295165269647576" lon="10.825874042044605"><ele>774.5999999999999</ele><time>2026-04-19T13:57:29.999Z</time></trkpt><trkpt lat="44.295173394219205" lon="10.826016057089275"><ele>776.0</ele><time>2026-04-19T13:57:30.999Z</time></trkpt><trkpt lat="44.29521211073239" lon="10.826160787290082"><ele>778.4</ele><time>2026-04-19T13:57:31.999Z</time></trkpt><trkpt lat="44.295169099855954" lon="10.826268421673431"><ele>780.8</ele><time>2026-04-19T13:57:32.999Z</time></trkpt><trkpt lat="44.295118847314974" lon="10.826351192079718"><ele>783.1999999999999</ele><time>2026-04-19T13:57:33.999Z</time></trkpt><trkpt lat="44.29499788269667" lon="10.826370447055668"><ele>785.5999999999999</ele><time>2026-04-19T13:57:34.999Z</time></trkpt><trkpt lat="44.29487135271485" lon="10.82644543587932"><ele>788.0</ele><time>2026-04-19T13:57:35.999Z</time></trkpt><trkpt lat="44.29473218301843" lon="10.826537068192614"><ele>788.0</ele><time>2026-04-19T13:57:36.999Z</time></trkpt><trkpt lat="44.294596087212874" lon="10.826650269249662"><ele>788.0</ele><time>2026-04-19T13:57:38Z</time></trkpt><trkpt lat="44.29443431839511" lon="10.826727318071233"><ele>788.0</ele><time>2026-04-19T13:57:39Z</time></trkpt><trkpt lat="44.29429137316229" lon="10.826718930629113"><ele>788.0</ele><time>2026-04-19T13:57:40Z</time></trkpt><trkpt lat="44.29421997049286" lon="10.826762003918411"><ele>788.0</ele><time>2026-04-19T13:57:41Z</time></trkpt><trkpt lat="44.29417348491374" lon="10.826893172067708"><ele>788.0</ele><time>2026-04-19T13:57:43Z</time></trkpt><trkpt lat="44.29422420968429" lon="10.82699354207701"><ele>788.0</ele><time>2026-04-19T13:57:44Z</time></trkpt><trkpt lat="44.2943200652283" lon="10.82700522532967"><ele>788.0</ele><time>2026-04-19T13:57:45Z</time></trkpt><trkpt lat="44.29443505656953" lon="10.826980046517313"><ele>792.0</ele><time>2026-04-19T13:57:46Z</time></trkpt><trkpt lat="44.29457016280094" lon="10.826938930671716"><ele>796.0</ele><time>2026-04-19T13:57:47Z</time></trkpt><trkpt lat="44.29471832482518" lon="10.826916192060503"><ele>800.0</ele><time>2026-04-19T13:57:48Z</time></trkpt><trkpt lat="44.29487950246568" lon="10.826903439494105"><ele>804.0</ele><time>2026-04-19T13:57:49Z</time></trkpt><trkpt lat="44.29504889056499" lon="10.826937513197104"><ele>811.0</ele><time>2026-04-19T13:57:50Z</time></trkpt><trkpt lat="44.295248668631125" lon="10.826977752123494"><ele>818.0</ele><time>2026-04-19T13:57:51Z</time></trkpt><trkpt lat="44.295438839677054" lon="10.82696664813661"><ele>825.0</ele><time>2026-04-19T13:57:52Z</time></trkpt><trkpt lat="44.2956022979794" lon="10.826914034862956"><ele>826.3333333333333</ele><time>2026-04-19T13:57:53Z</time></trkpt><trkpt lat="44.295772904498435" lon="10.826849351243297"><ele>827.6666666666666</ele><time>2026-04-19T13:57:54Z</time></trkpt><trkpt lat="44.29593032747432" lon="10.826833178588393"><ele>829.0</ele><time>2026-04-19T13:57:55Z</time></trkpt><trkpt lat="44.29607759520654" lon="10.826847841875919"><ele>829.0</ele><time>2026-04-19T13:57:56Z</time></trkpt><trkpt lat="44.2962159815541" lon="10.826909130089764"><ele>829.0</ele><time>2026-04-19T13:57:57Z</time></trkpt><trkpt lat="44.2963490621886" lon="10.826965580772628"><ele>829.0</ele><time>2026-04-19T13:57:58Z</time></trkpt><trkpt lat="44.29650738465546" lon="10.827031269230185"><ele>829.0</ele><time>2026-04-19T13:57:59Z</time></trkpt><trkpt lat="44.29665197269661" lon="10.827109340695099"><ele>829.25</ele><time>2026-04-19T13:58:00Z</time></trkpt><trkpt lat="44.29677798175497" lon="10.827177816196583"><ele>829.5</ele><time>2026-04-19T13:58:01Z</time></trkpt><trkpt lat="44.296897529136196" lon="10.827250523963283"><ele>829.75</ele><time>2026-04-19T13:58:02Z</time></trkpt><trkpt lat="44.29700887159062" lon="10.827337114817517"><ele>830.0</ele><time>2026-04-19T13:58:03Z</time></trkpt><trkpt lat="44.29711960965352" lon="10.827428457365057"><ele>830.0</ele><time>2026-04-19T13:58:04Z</time></trkpt><trkpt lat="44.297230715117394" lon="10.827469972156903"><ele>830.0</ele><time>2026-04-19T13:58:05Z</time></trkpt><trkpt lat="44.29734425421015" lon="10.827472238677274"><ele>830.0</ele><time>2026-04-19T13:58:06Z</time></trkpt><trkpt lat="44.297438154885334" lon="10.827469362548912"><ele>830.0</ele><time>2026-04-19T13:58:07Z</time></trkpt><trkpt lat="44.29750553479446" lon="10.827486440924918"><ele>830.0</ele><time>2026-04-19T13:58:08Z</time></trkpt><trkpt lat="44.29755271949872" lon="10.827559595928498"><ele>830.8</ele><time>2026-04-19T13:58:09Z</time></trkpt><trkpt lat="44.29759662768251" lon="10.827696597421616"><ele>831.6</ele><time>2026-04-19T13:58:10Z</time></trkpt><trkpt lat="44.29766134583795" lon="10.827819495669887"><ele>832.4000000000001</ele><time>2026-04-19T13:58:11Z</time></trkpt><trkpt lat="44.29773190144007" lon="10.827912585622224"><ele>833.2</ele><time>2026-04-19T13:58:12Z</time></trkpt><trkpt lat="44.29781590686849" lon="10.827933520495616"><ele>834.0</ele><time>2026-04-19T13:58:13Z</time></trkpt><trkpt lat="44.29791461915931" lon="10.82791393468271"><ele>834.0</ele><time>2026-04-19T13:58:14Z</time></trkpt><trkpt lat="44.29801996826264" lon="10.82785952061166"><ele>834.0</ele><time>2026-04-19T13:58:15Z</time></trkpt><trkpt lat="44.298110239767944" lon="10.827841077241283"><ele>834.0</ele><time>2026-04-19T13:58:16Z</time></trkpt><trkpt lat="44.2981792663449" lon="10.827840252301453"><ele>834.0</ele><time>2026-04-19T13:58:17Z</time></trkpt><trkpt lat="44.29826880777336" lon="10.827853749355183"><ele>834.0</ele><time>2026-04-19T13:58:19Z</time></trkpt><trkpt lat="44.29822030299835" lon="10.827993496117859"><ele>834.0</ele><time>2026-04-19T13:58:21Z</time></trkpt><trkpt lat="44.298176825928586" lon="10.828110053713893"><ele>834.0</ele><time>2026-04-19T13:58:22Z</time></trkpt><trkpt lat="44.29813298003514" lon="10.82823972960756"><ele>834.0</ele><time>2026-04-19T13:58:23Z</time></trkpt><trkpt lat="44.29807149127204" lon="10.828428832347631"><ele>834.0</ele><time>2026-04-19T13:58:24Z</time></trkpt><trkpt lat="44.297994650680025" lon="10.828613261082888"><ele>835.8000000000001</ele><time>2026-04-19T13:58:25Z</time></trkpt><trkpt lat="44.29791408419516" lon="10.82874777497157"><ele>837.6</ele><time>2026-04-19T13:58:26Z</time></trkpt><trkpt lat="44.29782735148493" lon="10.828868023094717"><ele>839.4</ele><time>2026-04-19T13:58:27Z</time></trkpt><trkpt lat="44.297749484882516" lon="10.828969049382293"><ele>841.2</ele><time>2026-04-19T13:58:28Z</time></trkpt><trkpt lat="44.29769989480405" lon="10.829063109480494"><ele>843.0</ele><time>2026-04-19T13:58:29Z</time></trkpt><trkpt lat="44.29762622906755" lon="10.829116741081327"><ele>843.0</ele><time>2026-04-19T13:58:30Z</time></trkpt><trkpt lat="44.29754919521554" lon="10.829173047367885"><ele>843.0</ele><time>2026-04-19T13:58:31Z</time></trkpt><trkpt lat="44.29747714422878" lon="10.829216147674824"><ele>843.0</ele><time>2026-04-19T13:58:32Z</time></trkpt><trkpt lat="44.297374247485024" lon="10.829240005687712"><ele>843.0</ele><time>2026-04-19T13:58:34Z</time></trkpt><trkpt lat="44.29730882108451" lon="10.82911177016963"><ele>843.0</ele><time>2026-04-19T13:58:36Z</time></trkpt><trkpt lat="44.29724750370839" lon="10.829068832009668"><ele>844.2</ele><time>2026-04-19T13:58:37Z</time></trkpt><trkpt lat="44.29718260693708" lon="10.828982665755415"><ele>845.4</ele><time>2026-04-19T13:58:38Z</time></trkpt><trkpt lat="44.29712141211709" lon="10.828894123856927"><ele>846.6</ele><time>2026-04-19T13:58:39Z</time></trkpt><trkpt lat="44.297046310260946" lon="10.828810682623322"><ele>847.8000000000001</ele><time>2026-04-19T13:58:39.999Z</time></trkpt><trkpt lat="44.29697871969441" lon="10.828759859837463"><ele>849.0</ele><time>2026-04-19T13:58:40.999Z</time></trkpt><trkpt lat="44.296880937599234" lon="10.828688375012758"><ele>849.0</ele><time>2026-04-19T13:58:42.999Z</time></trkpt><trkpt lat="44.29690413446724" lon="10.82855540436166"><ele>849.0</ele><time>2026-04-19T13:58:45.999Z</time></trkpt><trkpt lat="44.29695149680033" lon="10.828484305196675"><ele>849.0</ele><time>2026-04-19T13:58:47.999Z</time></trkpt><trkpt lat="44.2969312975853" lon="10.828371200842092"><ele>841.0</ele><time>2026-04-19T13:58:50.999Z</time></trkpt></trkseg></trk></gpx>